[[{"header":{"parameterUnit":"m.s-1","parameterCategory":1,"la1":30.6,"la2":29.2853,"lo1":-89.7004,"lo2":-87.6739,"dy":0.0162,"dx":0.0183,"nx":112,"ny":82,"refTime":"2026-04-29T12:00:00:Z","depth":0,"parameterNumber":2,"parameterNumberName":"U-component_of_WINDS"},"data":[0.0,0.0,0.0,0.0,0.0,0.0,0.0,0.0,0.0,0.0,0.0,0.0,0.0,0.0,0.0,0.0,0.0,0.0,0.0,0.0,0.0,0.0,0.0,0.0,0.0,0.0,0.0,0.0,0.0,0.0,0.0,0.0,0.0,0.0,0.0,0.0,0.0,0.0,0.0,0.0,0.0,0.0,0.0,0.0,0.0,0.0,0.0,0.0,0.0,0.0,0.0,0.0,0.0,0.0,0.0,0.0,0.0,0.0,0.0,0.0,0.0,0.0,0.0,0.0,0.0,0.0,0.0,0.0,0.0,0.0,0.0,0.0,0.0,0.0,0.0,0.0,0.0,0.0,0.0,0.0,0.0,0.0,0.0,0.0,0.0,0.0,0.0,0.0,0.0,0.0,-4.8864,-5.1864,-5.5663,-5.8045,-5.818,-5.796,-5.5528,-5.0119,0.0,0.0,0.0,0.0,0.0,0.0,0.0,0.0,0.0,0.0,0.0,0.0,0.0,0.0,0.0,0.0,0.0,0.0,0.0,0.0,0.0,0.0,0.0,0.0,0.0,0.0,0.0,0.0,0.0,0.0,0.0,0.0,0.0,0.0,0.0,0.0,0.0,0.0,0.0,0.0,0.0,0.0,0.0,0.0,0.0,0.0,0.0,0.0,0.0,0.0,0.0,0.0,0.0,0.0,0.0,0.0,0.0,0.0,0.0,0.0,0.0,0.0,0.0,0.0,0.0,0.0,0.0,0.0,0.0,0.0,0.0,0.0,0.0,0.0,0.0,0.0,0.0,0.0,0.0,0.0,0.0,0.0,0.0,0.0,0.0,0.0,0.0,0.0,0.0,0.0,0.0,0.0,0.0,0.0,0.0,0.0,0.0,0.0,0.0,0.0,0.0,0.0,0.0,0.0,-5.0141,-5.6304,-5.7579,-5.8285,-5.8975,-5.7772,-5.4757,-4.9545,0.0,0.0,0.0,0.0,0.0,0.0,0.0,0.0,0.0,0.0,0.0,0.0,0.0,0.0,0.0,0.0,0.0,0.0,0.0,0.0,0.0,0.0,0.0,0.0,0.0,0.0,0.0,0.0,0.0,0.0,0.0,0.0,0.0,0.0,0.0,0.0,0.0,0.0,0.0,0.0,0.0,0.0,0.0,0.0,0.0,0.0,0.0,0.0,0.0,0.0,0.0,0.0,0.0,0.0,0.0,0.0,0.0,0.0,0.0,0.0,0.0,0.0,0.0,0.0,0.0,0.0,0.0,0.0,0.0,0.0,0.0,0.0,0.0,0.0,0.0,0.0,0.0,0.0,0.0,0.0,0.0,0.0,0.0,0.0,0.0,0.0,0.0,0.0,0.0,0.0,0.0,0.0,0.0,0.0,0.0,0.0,0.0,0.0,0.0,0.0,0.0,0.0,0.0,-4.9028,-5.2098,-5.7441,-5.7997,-5.8148,-5.8525,-5.7863,-5.5071,-4.9449,-4.9088,0.0,0.0,0.0,0.0,0.0,0.0,0.0,0.0,0.0,0.0,0.0,0.0,0.0,0.0,0.0,0.0,0.0,0.0,0.0,0.0,0.0,0.0,0.0,0.0,0.0,0.0,0.0,0.0,0.0,0.0,0.0,0.0,0.0,0.0,0.0,0.0,0.0,0.0,0.0,0.0,0.0,0.0,0.0,0.0,0.0,0.0,0.0,0.0,0.0,0.0,0.0,0.0,0.0,0.0,0.0,0.0,0.0,0.0,0.0,0.0,0.0,0.0,0.0,0.0,0.0,0.0,0.0,0.0,0.0,0.0,0.0,0.0,0.0,0.0,0.0,0.0,0.0,0.0,0.0,0.0,0.0,0.0,0.0,0.0,0.0,0.0,0.0,0.0,0.0,0.0,0.0,0.0,0.0,0.0,0.0,0.0,0.0,0.0,0.0,0.0,0.0,0.0,-5.2004,-5.4173,-5.7643,-5.7997,-5.7997,-5.7997,-5.7469,-5.4843,-4.9431,-4.8547,0.0,0.0,0.0,0.0,0.0,0.0,0.0,0.0,0.0,0.0,0.0,0.0,0.0,0.0,0.0,0.0,0.0,0.0,0.0,0.0,0.0,0.0,0.0,0.0,0.0,0.0,0.0,0.0,0.0,0.0,0.0,0.0,0.0,0.0,0.0,0.0,0.0,0.0,0.0,0.0,0.0,0.0,0.0,0.0,0.0,0.0,0.0,0.0,0.0,0.0,0.0,0.0,0.0,0.0,0.0,0.0,0.0,0.0,0.0,0.0,0.0,0.0,0.0,0.0,0.0,0.0,0.0,0.0,0.0,0.0,0.0,0.0,0.0,0.0,0.0,0.0,0.0,0.0,0.0,0.0,0.0,0.0,0.0,0.0,0.0,0.0,0.0,0.0,0.0,0.0,0.0,0.0,0.0,0.0,0.0,0.0,0.0,0.0,0.0,0.0,0.0,0.0,-5.2822,-5.604,-5.7818,-5.7997,-5.7997,-5.7997,-5.593,-5.3067,-4.9359,-4.6927,0.0,0.0,0.0,0.0,0.0,0.0,0.0,0.0,0.0,0.0,0.0,0.0,0.0,0.0,0.0,0.0,0.0,0.0,0.0,0.0,0.0,0.0,0.0,0.0,0.0,0.0,0.0,0.0,0.0,0.0,0.0,0.0,0.0,0.0,0.0,0.0,0.0,0.0,0.0,0.0,0.0,0.0,0.0,0.0,0.0,0.0,0.0,0.0,0.0,0.0,0.0,0.0,0.0,0.0,0.0,0.0,0.0,0.0,0.0,0.0,0.0,0.0,0.0,0.0,0.0,0.0,0.0,0.0,0.0,0.0,0.0,0.0,0.0,0.0,0.0,0.0,0.0,0.0,0.0,0.0,0.0,0.0,0.0,0.0,0.0,0.0,0.0,0.0,0.0,0.0,0.0,0.0,0.0,0.0,0.0,0.0,0.0,0.0,0.0,0.0,0.0,0.0,-5.2027,-5.5103,0.0,-5.7584,-5.751,-5.796,-5.5857,-5.2981,-4.9315,0.0,0.0,0.0,0.0,0.0,0.0,0.0,0.0,0.0,0.0,0.0,0.0,0.0,0.0,0.0,0.0,0.0,0.0,0.0,0.0,0.0,0.0,0.0,0.0,0.0,0.0,0.0,0.0,0.0,0.0,0.0,0.0,0.0,0.0,0.0,0.0,0.0,0.0,0.0,0.0,0.0,0.0,0.0,0.0,0.0,0.0,0.0,0.0,0.0,0.0,0.0,0.0,0.0,0.0,0.0,0.0,0.0,0.0,0.0,0.0,0.0,0.0,0.0,0.0,0.0,0.0,0.0,0.0,0.0,0.0,0.0,0.0,0.0,0.0,0.0,0.0,0.0,0.0,0.0,0.0,0.0,0.0,0.0,0.0,0.0,0.0,0.0,0.0,0.0,0.0,0.0,0.0,0.0,0.0,0.0,0.0,0.0,0.0,0.0,0.0,0.0,0.0,-4.861,-5.1539,-5.4396,0.0,-5.6965,-5.6733,-5.7241,-5.4912,-5.1991,-4.8594,0.0,0.0,0.0,0.0,0.0,0.0,0.0,0.0,0.0,0.0,0.0,0.0,0.0,0.0,0.0,0.0,0.0,0.0,0.0,0.0,0.0,0.0,0.0,0.0,0.0,0.0,0.0,0.0,0.0,0.0,0.0,0.0,0.0,0.0,0.0,0.0,0.0,0.0,0.0,0.0,0.0,0.0,0.0,0.0,0.0,0.0,0.0,0.0,0.0,0.0,0.0,0.0,0.0,0.0,0.0,0.0,0.0,0.0,0.0,0.0,0.0,0.0,0.0,0.0,0.0,0.0,0.0,0.0,0.0,0.0,0.0,0.0,0.0,0.0,0.0,0.0,0.0,0.0,0.0,0.0,0.0,0.0,0.0,0.0,0.0,0.0,0.0,0.0,0.0,0.0,0.0,0.0,0.0,0.0,0.0,0.0,0.0,0.0,0.0,0.0,0.0,0.0,-4.868,-5.1593,-5.43,-5.6639,-5.6168,-5.5692,-5.57,-5.2791,-4.9794,0.0,0.0,0.0,0.0,0.0,0.0,0.0,0.0,0.0,0.0,0.0,0.0,0.0,0.0,0.0,0.0,0.0,0.0,0.0,0.0,0.0,0.0,0.0,0.0,0.0,0.0,0.0,0.0,0.0,0.0,0.0,0.0,0.0,0.0,0.0,0.0,0.0,0.0,0.0,0.0,0.0,0.0,0.0,0.0,0.0,0.0,0.0,0.0,0.0,0.0,0.0,0.0,0.0,0.0,0.0,0.0,0.0,0.0,0.0,0.0,0.0,0.0,0.0,0.0,0.0,0.0,0.0,0.0,0.0,0.0,0.0,0.0,0.0,0.0,0.0,0.0,0.0,0.0,0.0,0.0,0.0,0.0,0.0,0.0,0.0,0.0,0.0,0.0,0.0,0.0,0.0,0.0,0.0,0.0,0.0,0.0,0.0,0.0,0.0,0.0,0.0,0.0,0.0,-4.786,-5.1284,-5.4069,-5.5844,-5.5379,-5.4911,-5.4906,-5.2126,-4.9124,-4.6196,0.0,0.0,0.0,0.0,0.0,0.0,0.0,0.0,0.0,0.0,0.0,0.0,0.0,0.0,0.0,0.0,0.0,0.0,0.0,0.0,0.0,0.0,0.0,0.0,0.0,0.0,0.0,0.0,0.0,0.0,0.0,0.0,0.0,0.0,0.0,0.0,0.0,0.0,0.0,0.0,0.0,0.0,0.0,0.0,0.0,0.0,0.0,0.0,0.0,0.0,0.0,0.0,0.0,0.0,0.0,0.0,0.0,0.0,0.0,0.0,0.0,0.0,0.0,0.0,0.0,0.0,0.0,0.0,0.0,0.0,0.0,0.0,0.0,0.0,0.0,0.0,0.0,0.0,0.0,0.0,0.0,0.0,0.0,0.0,0.0,0.0,0.0,0.0,0.0,0.0,0.0,0.0,0.0,0.0,0.0,0.0,0.0,0.0,0.0,0.0,0.0,0.0,-4.706,-5.0409,-5.309,-5.4666,-5.416,-5.367,-5.367,-5.121,-4.8385,-4.544,0.0,0.0,0.0,0.0,0.0,0.0,0.0,0.0,0.0,0.0,0.0,0.0,0.0,0.0,0.0,0.0,0.0,0.0,0.0,0.0,0.0,0.0,0.0,0.0,0.0,0.0,0.0,0.0,0.0,0.0,0.0,0.0,0.0,0.0,0.0,0.0,0.0,0.0,0.0,0.0,0.0,0.0,0.0,0.0,0.0,0.0,0.0,0.0,0.0,0.0,0.0,0.0,0.0,0.0,0.0,0.0,0.0,0.0,0.0,0.0,0.0,0.0,0.0,0.0,0.0,0.0,0.0,0.0,0.0,0.0,0.0,0.0,0.0,0.0,0.0,0.0,0.0,0.0,0.0,0.0,0.0,0.0,0.0,0.0,0.0,0.0,0.0,0.0,0.0,0.0,0.0,0.0,0.0,0.0,0.0,0.0,0.0,0.0,0.0,0.0,0.0,0.0,-4.6324,-4.9271,-5.1648,-5.3112,-5.2623,-5.2186,-5.2085,-5.0126,-4.7652,-4.4784,0.0,0.0,0.0,0.0,0.0,0.0,0.0,0.0,0.0,0.0,0.0,0.0,0.0,0.0,0.0,0.0,0.0,0.0,0.0,0.0,0.0,0.0,0.0,0.0,0.0,0.0,0.0,0.0,0.0,0.0,0.0,0.0,0.0,0.0,0.0,0.0,0.0,0.0,0.0,0.0,0.0,0.0,0.0,0.0,0.0,0.0,0.0,0.0,0.0,0.0,0.0,0.0,0.0,0.0,0.0,0.0,0.0,0.0,0.0,0.0,-5.1171,0.0,0.0,0.0,0.0,0.0,0.0,0.0,0.0,0.0,0.0,0.0,0.0,0.0,0.0,0.0,0.0,0.0,0.0,0.0,0.0,0.0,0.0,0.0,0.0,0.0,0.0,0.0,0.0,0.0,0.0,0.0,0.0,0.0,0.0,0.0,0.0,0.0,0.0,0.0,0.0,0.0,-4.564,-4.8503,-5.0663,-5.1581,-5.1547,-5.1211,-5.0602,-4.906,-4.7127,-4.4739,-4.1213,0.0,0.0,0.0,0.0,0.0,0.0,0.0,0.0,0.0,0.0,0.0,0.0,0.0,0.0,0.0,0.0,0.0,0.0,0.0,0.0,0.0,0.0,0.0,0.0,0.0,0.0,0.0,0.0,0.0,0.0,0.0,0.0,0.0,0.0,0.0,0.0,0.0,0.0,0.0,0.0,0.0,0.0,0.0,0.0,0.0,0.0,0.0,0.0,0.0,0.0,0.0,0.0,0.0,0.0,0.0,0.0,0.0,0.0,0.0,0.0,-5.2765,0.0,0.0,0.0,0.0,0.0,0.0,0.0,0.0,0.0,0.0,0.0,0.0,0.0,0.0,0.0,0.0,0.0,0.0,0.0,0.0,0.0,0.0,0.0,0.0,0.0,0.0,0.0,0.0,0.0,0.0,0.0,0.0,0.0,0.0,0.0,0.0,0.0,0.0,0.0,0.0,-4.4876,-4.7765,-4.9859,-5.0583,-5.0684,-5.036,-4.9633,-4.8211,-4.6572,-4.4722,-4.1745,0.0,0.0,0.0,0.0,0.0,0.0,0.0,0.0,0.0,0.0,0.0,0.0,0.0,0.0,0.0,0.0,0.0,0.0,0.0,0.0,0.0,0.0,0.0,0.0,0.0,0.0,0.0,0.0,0.0,0.0,0.0,0.0,0.0,0.0,0.0,0.0,0.0,0.0,0.0,0.0,0.0,0.0,0.0,0.0,0.0,0.0,0.0,0.0,0.0,0.0,0.0,0.0,0.0,-5.9992,-6.7217,-6.8679,-6.4008,-6.1897,-6.1743,-5.8896,-5.7545,-5.7097,0.0,0.0,0.0,0.0,0.0,0.0,0.0,0.0,0.0,0.0,0.0,0.0,0.0,0.0,0.0,0.0,0.0,0.0,0.0,0.0,0.0,0.0,0.0,0.0,0.0,-5.0011,-4.9726,0.0,0.0,0.0,0.0,0.0,0.0,0.0,0.0,0.0,0.0,0.0,0.0,-4.4447,-4.7021,-4.8869,-4.948,-4.9514,-4.9283,-4.8672,-4.7362,-4.6098,-4.488,-4.2646,-4.0852,0.0,0.0,0.0,0.0,0.0,0.0,0.0,0.0,0.0,0.0,0.0,0.0,0.0,0.0,0.0,0.0,0.0,0.0,0.0,0.0,0.0,0.0,0.0,0.0,0.0,0.0,0.0,0.0,0.0,0.0,0.0,0.0,-4.8691,-4.957,0.0,0.0,0.0,0.0,0.0,0.0,0.0,0.0,0.0,0.0,0.0,0.0,0.0,-5.591,-5.5044,-5.6309,-5.4623,-5.0162,-6.2286,-6.8944,-7.0458,-6.7584,-6.6263,-6.6244,-6.5782,0.0,-5.844,-5.5806,0.0,0.0,0.0,0.0,0.0,0.0,0.0,0.0,0.0,0.0,0.0,0.0,0.0,0.0,0.0,0.0,0.0,0.0,0.0,0.0,0.0,0.0,-5.238,-5.1667,-5.1734,-5.1373,0.0,-4.637,-4.3678,-4.2128,-4.0348,0.0,0.0,0.0,0.0,0.0,0.0,0.0,-4.5088,-4.6367,-4.7127,-4.7225,-4.7225,-4.7208,-4.7094,-4.6338,-4.575,-4.5569,-4.3412,-4.2061,-4.1875,-3.9225,0.0,0.0,0.0,0.0,0.0,0.0,0.0,0.0,0.0,0.0,0.0,0.0,0.0,0.0,0.0,0.0,0.0,0.0,0.0,0.0,0.0,0.0,0.0,0.0,0.0,0.0,0.0,0.0,0.0,-4.875,-5.0253,-5.0106,-5.1072,-5.0953,0.0,0.0,0.0,0.0,0.0,0.0,0.0,0.0,0.0,-5.9223,-6.0108,-6.0834,-6.142,-6.2196,-6.2401,-6.2126,-6.7333,-7.0188,-7.0844,-6.9271,-6.8552,-6.8532,-6.8032,-6.6198,-6.3261,-6.0236,-5.7602,-5.5156,0.0,0.0,0.0,0.0,-5.0629,-5.1085,-5.2066,-5.2362,0.0,0.0,0.0,0.0,0.0,0.0,0.0,0.0,0.0,0.0,0.0,0.0,0.0,-5.255,-5.2708,-5.2407,-5.1279,-4.9438,-4.7303,0.0,-4.3439,-4.1929,-4.0019,0.0,0.0,0.0,0.0,-4.2846,-4.4739,-4.5686,-4.635,-4.6743,-4.6806,-4.6629,-4.6237,-4.588,-4.5518,-4.51,-4.4148,-4.3396,-4.2948,-4.127,-3.9636,0.0,0.0,0.0,0.0,0.0,0.0,0.0,0.0,0.0,0.0,0.0,0.0,0.0,0.0,0.0,0.0,0.0,0.0,0.0,0.0,0.0,0.0,0.0,0.0,0.0,0.0,0.0,0.0,-5.0879,-5.1893,-5.1408,-5.3512,-5.3721,0.0,0.0,0.0,0.0,0.0,0.0,-5.7599,-5.9088,-6.0973,-6.3313,-6.4185,-6.5288,-6.6737,-6.7025,-6.8436,-7.0894,-7.09,-7.0906,-7.0887,-7.0277,-7.0014,-6.9975,-6.9321,-6.8552,-6.7493,-6.3821,-6.0885,-5.8426,-5.5544,-5.4072,-5.3545,-5.354,-5.3668,-5.4075,-5.5669,-5.5812,-5.5225,-5.462,0.0,-5.1811,-4.9169,0.0,0.0,0.0,0.0,-4.9269,-5.0726,-5.126,-5.1716,-5.2915,-5.3185,-5.3057,-5.244,-5.1744,-5.0366,0.0,-4.6153,-4.4705,-4.1792,0.0,0.0,0.0,0.0,-4.3231,-4.465,-4.5179,-4.5631,-4.6169,-4.6248,-4.6004,-4.5456,-4.5422,-4.5179,-4.4632,-4.4615,-4.4328,-4.3732,-4.2987,-4.1627,-3.9607,0.0,0.0,0.0,0.0,0.0,0.0,0.0,0.0,0.0,0.0,0.0,0.0,0.0,0.0,0.0,0.0,0.0,0.0,0.0,0.0,0.0,0.0,0.0,0.0,0.0,0.0,0.0,0.0,0.0,-5.4941,-5.6601,0.0,0.0,0.0,0.0,-5.677,-5.8507,-6.0489,-6.2813,-6.3801,-6.507,-6.6782,-6.7686,-6.8423,-6.9038,-7.011,-7.0725,-7.0898,-7.0898,-7.0898,-7.0898,-7.086,-7.0841,-7.0841,-7.0783,-7.0321,-6.9229,-6.4926,-6.2557,-6.143,-5.8801,-5.7716,-5.7696,-5.7693,-5.8194,-5.8736,-5.8093,-5.785,-5.7813,-5.7776,-5.5666,-5.2968,-5.2034,-5.0111,0.0,0.0,-5.0062,-5.0875,-5.1716,-5.2518,-5.3096,-5.3167,-5.3185,-5.3185,-5.3148,-5.2506,-5.1257,0.0,-4.737,-4.6315,-4.5932,0.0,-4.4241,-4.5638,-4.4735,-4.4298,-4.5337,-4.4987,-4.4666,-4.471,-4.471,-4.471,-4.4649,-4.4649,-4.4632,-4.4615,-4.4615,-4.4598,-4.4536,-4.3768,-4.2647,-4.1129,-3.8916,0.0,0.0,0.0,0.0,0.0,0.0,0.0,0.0,0.0,0.0,0.0,0.0,0.0,0.0,0.0,0.0,0.0,0.0,0.0,0.0,0.0,0.0,0.0,0.0,0.0,0.0,0.0,0.0,-5.8418,-6.0625,0.0,-5.9289,-6.0071,-6.0814,-6.11,-6.2725,-6.4289,-6.5667,-6.759,-6.8936,-6.9533,-7.0937,-7.1596,-7.139,-7.1063,-7.1269,-7.1989,-7.1245,-7.0898,-7.0898,-7.0898,-7.0898,-7.0898,-7.0898,-7.0437,-6.9536,-6.7286,-6.5238,-6.3314,-6.1152,-5.9984,-5.9554,-5.9543,-5.9727,-5.9934,-5.963,-5.9208,-5.8602,-5.7574,-5.5743,-5.3915,-5.3621,-5.2935,-5.2282,-5.2601,-5.291,-5.3171,-5.3481,-5.338,-5.3185,-5.3185,-5.3185,-5.3185,-5.3185,-5.2986,-5.2234,-5.0362,-4.9204,-4.787,-4.5892,-4.5877,-4.588,-4.5044,-4.5262,-4.5662,-4.6035,-4.5557,-4.5313,-4.5734,-4.5403,-4.5174,-4.5167,-4.5179,-4.5004,-4.4615,-4.4615,-4.4361,-4.3847,-4.3542,-4.2722,-4.1214,-3.9486,-3.7127,0.0,0.0,0.0,0.0,0.0,0.0,0.0,0.0,0.0,0.0,0.0,0.0,0.0,0.0,0.0,0.0,0.0,0.0,0.0,0.0,0.0,0.0,0.0,0.0,0.0,0.0,-5.9707,-6.1113,-6.3783,-6.4738,-6.2766,-6.4054,-6.5141,-6.5441,-6.6782,-6.8071,-6.9206,-7.086,-7.1783,-7.1783,-7.2899,-7.3308,-7.2909,-7.214,-7.2,-7.247,-7.1687,-7.1187,-7.0898,-7.0898,-7.0898,-7.0898,-7.0898,-7.0591,-6.9997,-6.8654,-6.6956,-6.5067,-6.3169,-6.1942,-6.1208,-6.1208,-6.1208,-6.1172,-6.0896,-6.0267,-5.9362,-5.8038,-5.6518,-5.5214,-5.5214,-5.5033,-5.4794,-5.4794,-5.4812,-5.4751,-5.447,-5.4007,-5.354,-5.3261,-5.3185,-5.3185,-5.3185,-5.3185,-5.2729,-5.1114,-5.0366,-4.9189,-4.6685,-4.7053,-4.7145,-4.5528,-4.6101,-4.6655,-4.6436,-4.6058,-4.5947,-4.6359,-4.587,-4.5492,-4.551,-4.5067,-4.4609,-4.4209,-4.3979,-4.3569,-4.3054,-4.2801,-4.2091,-4.0865,-3.887,-3.662,-3.4117,0.0,0.0,0.0,0.0,0.0,0.0,0.0,0.0,0.0,0.0,0.0,0.0,0.0,0.0,0.0,0.0,0.0,0.0,0.0,0.0,0.0,0.0,0.0,-5.6719,-5.9668,-6.2168,-6.3086,-6.6029,-6.7287,-6.5505,-6.6674,-6.8199,-6.9713,-7.0533,-7.1725,-7.3418,-7.3533,-7.3538,-7.3538,-7.3572,-7.3591,-7.3591,-7.3553,-7.311,-7.2225,-7.2206,-7.1745,-7.0898,-7.0898,-7.0898,-7.0898,-7.0898,-7.0898,-7.0766,-6.8901,-6.7654,-6.6727,-6.4835,-6.3576,-6.278,-6.278,-6.278,-6.2695,-6.1875,-6.1074,-6.0274,-5.9467,-5.813,-5.6832,-5.6832,-5.6279,-5.5656,-5.567,-5.5633,-5.5427,-5.4648,-5.4399,-5.4175,-5.3371,-5.3185,-5.3185,-5.3185,-5.3185,-5.2729,-5.1114,-5.0787,-5.0256,-4.8581,-4.8306,-4.8084,-4.7532,-4.7421,0.0,-4.6557,-4.6427,-4.6436,-4.6429,-4.5882,-4.5505,-4.5482,-4.4233,-4.3428,-4.3406,-4.2685,-4.2261,-4.2274,-4.1574,-4.0836,-4.0079,-3.7155,-3.4923,-3.3415,0.0,0.0,0.0,0.0,0.0,0.0,0.0,0.0,0.0,0.0,0.0,0.0,0.0,0.0,0.0,0.0,0.0,0.0,0.0,0.0,0.0,-5.6894,-5.9238,-5.9336,-6.2221,-6.5104,-6.7237,-6.8722,-6.9793,-7.0414,-7.0854,-7.1485,-7.2399,-7.2668,-7.2995,-7.3462,-7.4053,-7.438,-7.438,-7.4976,-7.5303,-7.5303,-7.4687,-7.3957,-7.3129,-7.2495,-7.1745,-7.0898,-7.0898,-7.0898,-7.0898,-7.0898,-7.0898,-7.0805,-6.9492,-6.8239,-6.6915,-6.4872,-6.3576,-6.278,-6.278,-6.278,-6.2695,-6.1875,-6.108,-6.028,-5.9457,-5.8525,-5.7657,-5.7657,-5.7524,-5.7326,-5.7345,-5.6496,-5.5536,-5.5316,-5.439,-5.3466,-5.3261,-5.3185,-5.3185,-5.3185,-5.3185,-5.2729,-5.1114,-5.0784,-5.0271,-4.86,-4.8306,-4.8232,-4.8066,-4.8047,0.0,-4.7808,-4.7401,-4.707,-4.6921,-4.6368,-4.5811,-4.5322,-4.4448,-4.3756,-4.3411,-4.2209,-4.1493,-4.148,-4.0792,-4.0068,-3.9312,-3.7445,-3.5716,0.0,0.0,0.0,0.0,0.0,0.0,0.0,0.0,0.0,0.0,0.0,0.0,0.0,0.0,0.0,0.0,0.0,0.0,0.0,0.0,0.0,0.0,-6.0169,-6.2722,-6.3815,-6.5597,-6.7512,-6.9383,-7.0213,-7.1101,-7.2375,-7.2424,-7.2827,-7.3918,-7.4014,-7.4168,-7.4534,-7.4995,-7.5245,-7.5245,-7.5745,-7.5995,-7.5995,-7.5495,-7.4668,-7.3481,-7.2995,-7.2091,-7.0898,-7.0898,-7.0898,0.0,-7.0898,-7.0898,-7.0785,-6.9377,-6.8315,0.0,0.0,0.0,0.0,0.0,-6.278,-6.267,-6.1881,-6.108,-6.0267,-5.9457,-5.8653,-5.7997,-5.7997,-5.7997,-5.7997,-5.7997,-5.7077,-5.6021,-5.5698,-5.466,-5.3628,-5.3277,-5.3185,-5.3185,-5.3185,-5.2949,-5.2325,-5.1059,-5.0527,0.0,-4.8526,-4.8306,-4.8306,-4.8306,-4.8306,-4.8306,-4.8306,-4.7977,-4.7735,-4.7626,-4.7059,-4.642,-4.5774,-4.48,0.0,0.0,0.0,-4.0914,-4.0303,-3.988,0.0,0.0,0.0,0.0,0.0,0.0,0.0,0.0,-3.4189,-3.4197,0.0,0.0,0.0,0.0,0.0,0.0,0.0,0.0,0.0,0.0,0.0,0.0,0.0,0.0,0.0,0.0,-6.3399,-6.6367,-6.8683,-6.9077,-6.9425,-7.0221,-7.0898,-7.1653,-7.254,-7.2527,-7.3149,-7.4726,-7.4861,-7.5188,-7.5957,0.0,0.0,0.0,0.0,-7.5995,-7.5995,-7.5899,-7.5053,-7.3514,-7.3399,-7.2495,-7.0898,-7.0898,-7.0898,-7.0898,-7.0898,-7.0898,-7.0747,-6.8936,-6.8052,-6.7725,-6.629,-6.4519,-6.278,-6.278,-6.278,-6.2688,-6.1874,0.0,0.0,-5.9462,-5.8653,-5.7997,-5.7997,-5.7997,-5.7997,-5.7997,-5.7359,-5.65,-5.5798,-5.4932,-5.4087,-5.3369,-5.3185,-5.3185,-5.3185,-5.2564,-5.1756,-5.0967,-5.0141,-4.9335,-4.8453,-4.8306,-4.8306,-4.8306,-4.8306,-4.8306,-4.8306,-4.8306,-4.8269,-4.8177,0.0,0.0,-4.6334,-4.5095,-4.3768,-4.2395,-4.1545,-4.0442,-3.9043,-3.9085,-3.8791,-3.8054,-3.8031,-3.7974,-3.7883,-3.7904,-3.7946,-3.7946,-3.5193,-3.4705,0.0,0.0,0.0,0.0,0.0,0.0,0.0,0.0,0.0,0.0,0.0,0.0,0.0,0.0,0.0,-6.2738,-6.5455,-6.7752,-6.9468,-7.0166,-7.0637,-7.0977,-7.1596,-7.2341,-7.3212,-7.3855,-7.4639,-7.5668,-7.5745,-7.5822,-7.5995,-7.5995,0.0,-7.5995,-7.5995,-7.5995,-7.5995,-7.5303,-7.4457,-7.3481,0.0,0.0,-7.0898,-7.0898,-7.0898,-7.0898,-7.0898,-7.0898,-7.0794,-6.9278,-6.7562,-6.5705,-6.4064,-6.3172,-6.278,-6.278,-6.278,-6.2688,-6.1874,-6.108,-6.0272,-5.9458,-5.8653,-5.7997,-5.7997,-5.7997,0.0,-5.7997,-5.694,-5.5809,-5.5633,-5.4528,-5.339,-5.3243,-5.3185,-5.3185,-5.3185,-5.2564,-5.1756,-5.0967,-5.0141,-4.9335,-4.8453,-4.8306,-4.8306,-4.8306,-4.8306,-4.8306,-4.8306,-4.8306,-4.8049,-4.7407,-4.7239,-4.6686,-4.5531,-4.4649,-4.3628,-4.236,-4.104,-3.991,-3.9043,-3.9581,-3.9539,-3.8807,-3.8781,-3.8495,-3.791,-3.7894,-3.8195,-3.8748,-3.7587,-3.7812,0.0,0.0,0.0,0.0,0.0,0.0,0.0,0.0,0.0,0.0,0.0,-5.5262,-5.7908,0.0,-6.2645,-6.5357,-6.7548,-6.9245,-7.0252,-7.0687,-7.0937,-7.1033,-7.1346,-7.2058,-7.3365,-7.3865,-7.4635,-7.5899,-7.5995,-7.5995,-7.5995,-7.5995,-7.5995,-7.5995,-7.5995,-7.5784,-7.5361,-7.4918,-7.4091,-7.2841,-7.2399,-7.1745,-7.0898,-7.0898,-7.0898,-7.0898,-7.0898,-7.0667,-7.0203,-6.9065,-6.6784,-6.397,-6.3143,-6.278,-6.278,-6.278,-6.278,-6.2633,-6.1421,-6.075,-6.0199,-5.8993,-5.8336,-5.7997,-5.7997,-5.7997,-5.7997,-5.7997,-5.6826,-5.56,-5.5596,-5.4418,-5.3185,-5.3185,-5.3185,-5.3185,-5.3185,-5.2252,-5.1279,-5.0875,-4.9793,-4.8802,-4.8379,-4.8306,-4.8306,-4.8306,-4.8306,-4.8306,-4.8306,-4.8306,-4.8141,-4.7738,-4.7424,-4.6854,-4.5882,-4.4545,-4.333,-4.2375,-4.1256,-4.0315,-3.9581,-3.991,-3.9927,-3.9539,-3.9539,-3.9379,-3.9009,-3.9009,-3.9194,-3.9539,-3.9547,-3.9741,0.0,0.0,0.0,0.0,0.0,0.0,0.0,0.0,-5.3774,-5.6372,-5.7379,-5.8714,-6.1683,-6.3748,-6.568,-6.7815,-6.9305,-7.0369,-7.0888,-7.092,-7.0898,-7.0898,-7.1052,-7.1764,-7.3341,-7.3649,-7.4361,-7.588,-7.5995,-7.5995,-7.5995,-7.5995,-7.5995,-7.5995,-7.5842,-7.5418,-7.4707,-7.438,-7.3533,-7.2187,-7.2033,-7.1572,-7.0898,-7.0898,-7.0898,-7.0898,-7.0898,-7.0283,-6.9229,-6.8439,-6.6138,-6.3096,-6.2872,-6.278,-6.278,-6.278,-6.278,-6.2578,-6.0957,-6.0401,-6.0144,-5.8525,-5.7997,-5.7997,-5.7997,-5.7997,-5.796,-5.7813,-5.6712,-5.5556,-5.5409,-5.4289,-5.3185,-5.3185,-5.3185,-5.3185,-5.3185,-5.194,-5.0802,-5.0802,-4.9462,-4.8306,-4.8306,-4.8306,-4.8306,-4.8306,-4.8306,-4.8306,-4.8306,-4.8306,-4.8306,-4.8306,-4.7765,-4.707,-4.6287,-4.4358,-4.2936,-4.233,-4.1486,-4.0722,-4.0113,-4.0096,-4.0096,-4.0096,-4.0096,-4.0096,-4.0096,-4.0096,-4.018,-4.0333,-4.1068,-4.11,-4.7616,-4.8883,-5.0519,-5.1539,-5.2358,-5.3937,0.0,0.0,-5.7198,-5.9884,-6.1689,-6.3223,-6.4611,-6.6307,-6.8083,-6.988,-7.0189,-7.0425,-7.1075,-7.1016,-7.0898,-7.0898,-7.1591,-7.2437,-7.3408,-7.4149,-7.4957,-7.5938,-7.5995,-7.5995,-7.5995,-7.5995,-7.5995,-7.5995,-7.5245,-7.4803,-7.4707,-7.3226,-7.2379,-7.2187,-7.1418,-7.0994,-7.0898,-7.0898,-7.0898,-7.0898,-7.0906,-6.9732,-6.7801,-6.7283,-6.5936,-6.4141,-6.3154,-6.278,-6.278,-6.278,-6.278,-6.256,-6.0964,-6.0386,-6.0144,-5.8525,-5.7997,-5.7997,-5.7997,-5.7997,-5.785,-5.7152,-5.629,-5.5427,-5.4711,-5.3867,-5.3185,-5.3185,-5.3185,-5.3185,-5.3185,-5.194,-5.0802,-5.0802,-4.9462,-4.8306,-4.8306,-4.8306,-4.8306,-4.8306,-4.8306,-4.8306,-4.8306,-4.8306,-4.8306,-4.8306,-4.7747,-4.6908,-4.5706,-4.3647,-4.2388,-4.2315,-4.0985,-4.0189,-4.0096,-4.0096,-4.0096,-4.0096,-4.0096,-4.0096,-4.0096,-4.0096,-4.0451,-4.1085,-4.183,-4.2141,-5.0882,-5.1606,-5.2738,-5.5122,-5.6286,-5.7595,-6.0382,-6.0465,-6.0554,-6.2671,-6.4151,-6.5346,-6.6331,-6.8013,-6.9431,0.0,-7.0512,-7.0835,-7.1,-7.0953,-7.0725,-7.0258,-7.0937,-7.1995,-7.336,-7.3803,-7.4572,-7.5899,-7.5995,-7.5995,-7.5995,-7.5995,-7.5784,-7.5255,-7.4889,-7.4231,-7.325,-7.2558,-7.1962,-7.1437,-7.1071,-7.0898,-7.0898,-7.0898,-7.0648,-7.0167,-6.9681,-6.8738,-6.7538,-6.6676,-6.5419,-6.4011,-6.3568,-6.3123,-6.278,-6.278,-6.2493,-6.1924,-6.0793,-6.0081,-5.9523,-5.8373,-5.7997,-5.7997,-5.7997,-5.7997,-5.7831,-5.7029,-5.6235,-5.5397,-5.462,-5.3791,-5.3185,-5.3185,-5.3185,-5.3057,-5.2601,-5.161,-5.0655,-5.0178,-4.9132,-4.8306,-4.8306,-4.8306,-4.8306,-4.8306,-4.8306,-4.8306,-4.8306,-4.8306,-4.8021,-4.7285,-4.698,-4.6317,-4.5088,-4.3708,-4.2753,-4.2313,-4.1316,-4.0535,-4.0113,-4.0096,-4.0096,-4.0096,-4.0096,-4.0096,-4.0096,-4.0096,-4.0485,-4.1221,-4.1948,-4.2523,-5.2432,-5.356,-5.52,-5.7699,-5.9454,-6.0947,-6.2456,-6.2683,-6.3024,-6.4633,-6.5602,-6.6417,-6.7237,-6.8891,-7.0091,-6.9994,-7.0868,-7.1418,-7.1042,-7.1139,-7.0937,-7.0123,-7.0552,-7.1495,-7.2995,-7.3149,-7.3841,-7.5515,-7.5649,-7.5745,-7.5995,-7.5765,-7.5346,-7.4716,-7.4255,-7.3442,-7.2212,-7.1948,-7.1505,-7.0898,-7.0898,-7.0898,-7.0898,-7.0667,-7.0129,-6.9288,-6.8513,-6.7795,-6.7038,-6.6043,-6.4911,-6.3823,-6.3771,-6.3359,-6.278,-6.278,-6.2291,-6.149,-6.0683,-5.9869,-5.9058,-5.8258,-5.7997,-5.7997,-5.7997,-5.785,-5.7496,-5.6713,-5.59,-5.5067,-5.4268,-5.3644,-5.3185,-5.3185,-5.3185,-5.2986,-5.216,-5.1371,-5.0563,-4.9757,-4.8893,-4.8306,-4.8306,-4.8306,-4.8306,-4.8306,-4.8306,-4.8306,-4.8306,-4.8306,-4.7808,-4.6534,-4.6405,-4.5812,-4.4389,-4.3556,-4.2788,-4.2048,-4.1299,-4.0646,-4.0113,-4.0096,-4.0096,-4.0096,-4.0096,-4.0096,-4.0096,-4.0096,-4.0587,-4.1528,-4.2052,-4.2811,-5.1279,-5.4436,-5.8188,-5.8355,-6.0808,-6.3431,-6.4321,-6.4116,-6.4155,-6.557,-6.6141,-6.6603,-6.7282,-6.8763,-6.9972,-7.0159,-7.1469,-7.216,-7.1308,-7.1742,-7.1841,-7.0975,-7.0898,-7.1245,0.0,-7.2225,-7.2937,-7.4611,-7.4745,-7.5111,-7.5957,-7.5207,-7.4726,-7.4702,-7.311,-7.2245,-7.2187,-7.136,-7.0937,-7.0898,-7.0898,-7.0898,-7.0879,-7.009,-6.925,-6.841,-6.7872,-6.6987,-6.5891,-6.521,-6.4533,-6.3879,-6.3678,-6.3285,-6.278,-6.278,-6.2291,-6.1465,-6.0676,-5.9863,-5.9069,-5.8272,-5.7997,-5.7997,-5.7997,-5.7464,-5.6671,-5.5856,-5.5049,-5.4249,-5.3442,-5.3203,-5.3185,-5.3185,-5.3185,-5.2986,-5.216,-5.1371,-5.0563,-4.9757,-4.8893,-4.8306,-4.8306,-4.8306,-4.8306,-4.8306,-4.8306,-4.8306,-4.8306,-4.8306,-4.78,-4.653,-4.6401,-4.5586,-4.3613,-4.276,-4.2033,-4.1278,-4.0544,-4.0113,-4.0096,-4.0096,-4.0096,-4.0096,-4.0096,-4.0096,-4.0096,-4.0096,-4.0849,-4.2269,-4.2302,-4.3098,-5.5305,-5.7165,-5.9163,-6.1409,-6.281,-6.3854,-6.4725,-6.5064,-6.5231,-6.5347,-6.5743,-6.6037,-6.5907,-6.707,-6.8244,-6.8906,-7.0363,-7.1531,-7.182,-7.2544,-7.2514,-7.1071,-7.1398,0.0,0.0,0.0,0.0,-7.3822,-7.4404,-7.4596,-7.4361,-7.4567,-7.4202,-7.3091,-7.2489,-7.1912,-7.1341,-7.1052,-7.0898,-7.0898,-7.0898,-7.0615,-7.0083,-6.9808,-6.8904,-6.7538,-6.734,-6.6756,-6.5878,-6.5665,-6.5038,-6.4219,-6.4159,-6.359,-6.275,-6.2199,-6.1484,-6.0768,-6.0493,-5.952,-5.834,-5.8088,-5.7997,-5.7997,-5.7997,-5.7436,-5.664,-5.5815,-5.5021,-5.4207,-5.3408,-5.3185,-5.3185,-5.3185,-5.2803,-5.2176,-5.1364,-5.058,-4.9738,-4.8893,-4.8508,-4.8306,-4.8306,-4.8306,-4.8306,-4.8306,-4.8306,-4.8306,-4.8306,-4.7937,-4.7385,-4.6501,-4.5589,-4.4628,-4.3491,-4.2267,-4.1446,-4.1201,-4.0502,-4.0096,-4.0096,-4.0096,-4.0096,-4.0096,-4.0096,-4.0096,-4.0096,-4.0096,-4.0858,-4.2285,-4.2309,-4.3129,-5.7627,-5.9031,-6.0471,-6.2933,-6.3791,-6.4167,-6.4717,-6.4963,-6.4943,-6.4479,-6.4294,-6.4218,-6.4203,-6.4671,-6.5696,-6.7628,-6.9373,-7.0879,-7.2033,-7.2956,-7.2976,-7.1533,-7.186,-7.1648,0.0,0.0,0.0,-7.2995,-7.3808,-7.4058,-7.3519,-7.399,-7.3644,-7.2245,-7.1893,-7.147,-7.0918,-7.0898,-7.0898,-7.0898,-7.061,-7.0192,-6.9665,-6.9038,-6.8148,-6.7084,-6.6801,-6.6378,-6.5897,-6.5897,-6.5407,-6.4643,-6.4643,-6.3831,-6.2593,-6.2082,-6.1051,-5.9979,-5.9979,-5.9116,-5.7997,-5.7997,-5.7997,-5.7941,-5.7666,-5.7014,-5.6198,-5.5395,-5.4601,-5.3857,-5.3335,-5.3185,-5.3185,-5.3185,-5.2577,-5.1768,-5.098,-5.0155,-4.9331,-4.847,-4.8306,-4.8306,-4.8306,-4.8306,-4.8306,-4.8306,-4.8306,-4.821,-4.8015,-4.7635,-4.7044,-4.6167,-4.5322,-4.4311,-4.3105,-4.2146,-4.137,-4.0848,-4.0358,-4.0096,-4.0096,-4.0096,-4.0096,-4.0096,-4.0096,-4.0096,-4.0096,-4.0096,-4.0874,-4.2286,-4.2301,-4.3111,-5.8303,-6.0081,-6.2108,-6.3027,-6.3851,-6.4426,-6.4426,-6.3988,-6.3481,-6.313,-6.2026,-6.1388,0.0,0.0,-6.2629,-6.6365,-6.8532,-7.036,-7.2033,-7.3053,-7.3303,0.0,0.0,0.0,0.0,0.0,0.0,-7.2187,0.0,-7.3418,-7.338,-7.3418,-7.3033,-7.2149,-7.1321,-7.0898,-7.0898,-7.0898,-7.0898,-7.0898,-7.0071,-6.9673,-6.9583,-6.7878,-6.7084,-6.6994,-6.6237,-6.5897,-6.5897,-6.5897,-6.5583,-6.5099,-6.5042,-6.3951,-6.2385,-6.2311,-6.0974,-5.9184,-5.9148,-5.8657,-5.7997,-5.7997,-5.7997,-5.785,-5.7042,-5.6235,-5.5427,-5.4634,-5.3827,-5.3185,-5.3185,-5.3185,-5.3185,-5.3185,-5.2553,-5.1724,-5.0965,-5.0134,-4.9288,-4.847,-4.8306,-4.8306,-4.8306,-4.8306,-4.8306,-4.8306,-4.8306,-4.8075,-4.7488,-4.7363,-4.6864,-4.5622,-4.5416,-4.4508,-4.2473,-4.2233,-4.1596,-4.0197,-4.0096,-4.0096,-4.0096,-4.0096,-4.0096,-4.0096,-4.0096,-4.0096,-4.0096,-4.0096,-4.0874,-4.2303,-4.2294,-4.3138,-6.1093,-6.2389,-6.3417,-6.4877,-6.4972,-6.4712,-6.4712,-6.3951,-6.3111,-6.2662,-6.1179,-5.9985,0.0,0.0,0.0,-6.4827,-6.8244,0.0,-7.2937,-7.4437,0.0,-7.4168,-7.4053,-7.3745,-7.2918,-7.2456,0.0,0.0,-7.2399,-7.2245,-7.161,-7.2187,-7.2129,-7.1264,-7.1014,-7.0898,-7.0898,-7.0898,-7.0898,-7.0898,-7.0071,-6.936,-6.87,-6.7603,-6.6776,-6.6199,-6.5974,-6.5897,-6.5897,-6.5897,-6.5583,-6.5042,-6.4393,-6.3403,-6.2255,-6.1004,-5.9967,-5.9093,-5.851,-5.8162,-5.7997,-5.7997,-5.7997,-5.785,-5.7042,-5.6235,-5.5427,-5.4638,-5.383,-5.3185,-5.3185,-5.3185,-5.3185,-5.3185,-5.2134,-5.1048,-5.0837,-4.9663,-4.8561,-4.8323,-4.8306,-4.8306,-4.8306,-4.8306,-4.8306,-4.8306,-4.8306,-4.8075,-4.7488,-4.6955,-4.6359,-4.5571,-4.4086,-4.2904,-4.2334,-4.1285,-4.0502,-4.013,-4.0096,-4.0096,-4.0096,-4.0096,-4.0096,-4.0096,-4.0096,-4.0096,-4.0096,-4.0096,-4.0874,-4.2286,-4.2318,-4.3126,-6.2409,-6.3606,-6.4531,-6.5462,-6.5085,-6.4308,-6.3554,-6.2622,-6.145,-5.9771,-5.8264,-5.7302,-5.7418,-5.7955,0.0,0.0,0.0,0.0,-7.3053,-7.4322,-7.4861,0.0,-7.4707,0.0,-7.3591,-7.3072,-7.261,0.0,-7.2187,-7.1822,-7.0956,-7.1725,-7.1802,-7.0937,-7.0898,-7.0898,-7.0898,-7.0898,-7.0725,-7.036,-6.9533,-6.8667,-6.7795,-6.6955,-6.632,-6.5897,0.0,-6.5897,-6.5897,-6.5897,-6.5492,-6.4819,-6.4327,-6.3134,-6.1525,-6.0602,-5.9571,-5.8621,-5.8162,-5.7997,-5.7997,-5.7997,-5.7997,-5.7772,-5.6621,-5.5947,-5.5354,-5.4197,-5.3555,-5.3185,-5.3185,-5.3185,-5.3112,-5.2758,-5.1713,-5.0705,-5.0356,-4.9221,-4.8306,-4.8306,-4.8306,-4.8306,-4.8306,-4.8306,-4.8306,-4.8306,-4.8306,-4.8075,-4.7488,-4.7066,-4.6383,-4.5232,-4.4264,-4.3327,-4.2388,-4.1543,-4.079,-4.0146,-4.0096,-4.0096,-4.0096,-4.0096,-4.0096,-4.0096,-4.0096,-4.0096,-4.0096,-4.0096,-4.0874,-4.2286,-4.2293,-4.3149,-6.3202,-6.4332,-6.5443,-6.5459,-6.4769,-6.3649,-6.1979,-6.0731,-5.9098,-5.6202,-5.4785,-5.426,-5.4819,-5.4825,-5.674,-6.2845,0.0,-6.7806,-7.2654,-7.3533,-7.3918,-7.463,-7.4803,-7.4611,-7.3899,-7.363,-7.3187,-7.2418,-7.2149,-7.1687,-7.0937,-7.161,-7.1668,-7.0918,-7.0898,-7.0898,-7.0898,-7.0783,-7.0398,-6.9687,-6.8706,-6.7827,-6.7077,-6.6263,-6.5897,-6.5897,0.0,0.0,-6.5878,-6.5782,-6.5282,-6.4558,-6.4295,-6.276,-6.0681,-6.0494,-5.9392,-5.7997,-5.7997,-5.7997,-5.7997,-5.7997,-5.7941,-5.7565,-5.6063,-5.5528,-5.5133,-5.3607,-5.3185,-5.3185,-5.3185,-5.3185,-5.2999,-5.22,-5.1381,-5.0578,-4.9761,-4.8905,-4.8306,-4.8306,-4.8306,-4.8306,-4.8306,-4.8306,-4.8306,-4.8306,-4.8306,-4.8076,-4.7482,-4.7391,-4.6705,-4.4906,-4.5093,-4.457,-4.2624,-4.2266,-4.1612,-4.0341,-4.0138,-4.0096,-4.0096,-4.0096,-4.0096,-4.0096,-4.0096,-4.0096,-4.0096,-4.0197,-4.0959,-4.2286,-4.2392,-4.3206,-6.5286,-6.6082,-6.6278,-6.6284,-6.5191,-6.3649,-6.1979,-5.9428,0.0,-5.5849,-5.3885,-5.2749,-5.3832,-5.51,-5.7502,-6.217,-6.5433,-6.8567,-7.1934,-7.363,-7.4553,0.0,-7.5341,-7.5726,-7.5572,-7.4322,0.0,0.0,0.0,-7.1052,-7.0918,-7.1033,-7.1052,-7.0898,-7.0898,-7.0898,-7.0898,-7.0244,-6.984,-6.9687,-6.809,-6.7244,-6.7077,-6.6263,-6.5897,-6.5897,-6.5897,0.0,-6.584,-6.5128,-6.4731,-6.443,-6.2661,-6.1434,-6.0577,-5.9455,-5.8608,-5.7997,-5.7997,-5.7997,-5.7997,-5.7997,-5.7547,-5.6832,-5.5894,-5.5135,-5.4422,-5.3479,-5.3185,-5.3185,-5.3185,-5.3185,-5.2999,-5.22,-5.1381,-5.0574,-4.9758,-4.8936,-4.8306,-4.8306,-4.8306,-4.8306,-4.8306,-4.8306,-4.8306,-4.8306,-4.8306,-4.8083,-4.747,-4.7402,-4.6864,-4.5485,-4.4888,-4.4216,-4.3293,-4.2098,-4.127,-4.1028,-4.0434,-4.0096,-4.0096,-4.0096,-4.0096,-4.0096,-4.0096,-4.0096,-4.0096,-4.0696,-4.1457,-4.2303,-4.2915,-4.3694,-6.6058,-6.6808,-6.701,-6.6604,-6.5283,-6.3319,-6.0401,0.0,0.0,-5.3007,-5.1557,-5.0939,-5.1525,-5.281,0.0,-5.8818,-6.1337,-6.4464,-6.9244,-7.033,0.0,-7.4375,-7.4413,-7.4402,0.0,0.0,0.0,0.0,0.0,-7.0298,-7.0885,-7.0898,-7.0898,-7.0898,-7.0898,-7.0706,-7.0283,-6.9898,-6.9244,-6.834,-6.7494,-6.6878,-6.6455,-6.607,-6.5897,-6.5897,-6.5897,0.0,-6.5186,-6.4762,-6.4089,-6.3155,-6.1885,-6.0843,-5.992,-5.9046,-5.8394,-5.7997,-5.7997,-5.7997,-5.7941,-5.751,-5.7116,-5.6557,-5.5339,-5.4726,-5.4234,-5.3445,-5.3185,-5.3185,-5.3185,-5.2889,-5.2367,-5.1566,-5.0405,-4.9386,-4.9009,-4.8612,-4.8306,-4.8306,-4.8306,-4.8306,-4.8306,-4.8306,-4.8306,-4.8306,-4.8306,-4.8195,-4.79,-4.7871,-4.7374,-4.611,-4.5638,-4.5016,-4.399,-4.2962,-4.2011,-4.1264,-4.0849,-4.0501,-4.0113,-4.0096,-4.0282,-4.0652,-4.0662,-4.0663,-4.0663,-4.1035,-4.1576,-4.2303,-4.2651,-4.3464,-6.6224,-6.7101,-6.7467,-6.6494,-6.5026,-6.275,-5.8676,-5.6363,0.0,-5.0363,-4.9445,-4.939,-4.9574,-5.0564,-5.2473,0.0,-5.7524,-6.0448,-6.6274,-6.714,-6.8771,0.0,-7.2888,0.0,0.0,0.0,0.0,0.0,0.0,0.0,-7.0528,-7.0671,-7.0729,-7.0729,-7.0665,-7.0341,-6.9706,-6.934,-6.8456,-6.709,-6.6917,-6.6513,-6.5897,-6.5897,-6.5897,-6.5878,-6.5705,0.0,0.0,-6.4205,-6.3301,-6.2028,-6.1279,-6.0324,-5.9328,-5.8751,-5.8318,-5.7997,-5.7997,-5.7891,-5.7616,-5.6818,-5.6543,-5.6267,-5.4834,-5.4267,-5.4007,-5.3371,-5.3185,-5.3185,-5.3185,-5.259,-5.1736,-5.0783,-4.94,-4.8306,-4.8306,-4.8306,-4.8306,-4.8306,-4.8306,-4.8306,-4.8306,-4.8306,-4.8306,-4.8306,-4.8306,-4.8306,-4.8306,-4.8306,-4.7927,-4.6903,-4.6694,-4.6079,-4.4737,-4.399,-4.2979,-4.1528,-4.1299,-4.0866,-4.013,-4.0096,-4.0375,-4.0944,-4.1127,-4.1213,-4.1202,-4.1528,-4.1979,-4.2539,-4.2722,-4.342,-6.6069,-6.7101,-6.732,-6.5797,-6.4163,-6.1869,-5.7831,0.0,-5.2692,-5.0143,-4.8967,-4.8655,-4.9463,-5.0293,-5.2075,-5.579,0.0,-6.0172,-6.4235,-6.6692,-6.8526,-6.9737,0.0,0.0,0.0,0.0,0.0,0.0,0.0,0.0,-6.9472,-6.992,-7.0162,-7.0162,-6.9927,-6.9763,-6.9706,-6.8129,-6.7263,-6.709,-6.6359,-6.5974,-6.5897,-6.5897,-6.5897,-6.5859,-6.5064,0.0,0.0,-6.2956,-6.2245,-6.1933,-6.0229,-5.9513,-5.9305,-5.8401,-5.8033,-5.7997,-5.7997,-5.7532,-5.6783,-5.5962,-5.5713,-5.5552,-5.4678,-5.3894,-5.3298,-5.3225,-5.3185,-5.3185,-5.3185,-5.259,-5.1616,-5.0072,-4.8987,-4.8306,-4.8306,-4.8306,-4.8306,-4.8306,-4.8306,-4.8306,-4.8306,-4.8306,-4.8306,-4.8306,-4.8306,-4.8306,-4.8306,-4.8306,-4.8248,-4.8149,-4.7633,-4.6805,-4.5497,-4.4727,-4.371,-4.2295,-4.1559,-4.0866,-4.013,-4.0096,-4.0121,-4.0206,-4.0858,-4.1205,-4.1204,-4.2535,-4.3227,-4.3305,-4.4038,-4.4462,-6.5922,-6.7101,-6.7302,-6.5705,-6.4028,-6.163,-5.7116,-5.4601,-5.238,-4.9426,-4.8545,-4.8416,-4.8746,-4.9077,-5.0111,-5.2615,-5.3173,-5.4927,-5.9684,-6.0908,0.0,0.0,0.0,0.0,0.0,0.0,0.0,0.0,0.0,0.0,-6.7657,-6.9188,-6.9847,-6.9332,-6.9567,-6.9206,-6.8148,-6.7455,-6.6859,-6.6359,-6.6051,-6.5897,-6.5878,-6.5359,-6.5128,-6.507,-6.4206,0.0,0.0,-6.2377,-6.1781,-6.1188,-5.9911,-5.9395,-5.9297,-5.8355,-5.7997,-5.7941,-5.7451,-5.707,-5.6589,-5.53,-5.4884,-5.4726,-5.3922,-5.3448,-5.3185,-5.3185,-5.3185,-5.3093,-5.259,-5.1513,-5.0273,-4.9098,-4.8545,-4.8306,-4.8306,-4.8306,-4.8306,-4.8306,-4.8306,-4.8306,-4.8306,-4.8306,-4.8306,-4.8306,-4.8306,-4.8306,-4.8306,-4.8306,-4.8306,-4.8306,-4.7016,-4.5927,-4.5414,-4.4001,-4.2717,-4.1709,-4.1367,-4.0866,-4.013,-4.0096,-4.0519,-4.1416,-4.1716,-4.2073,-4.2538,-4.3108,-4.3384,-4.3416,-4.3724,-4.4136,-6.5105,-6.6386,-6.6659,-6.5283,-6.3686,-6.1245,-5.6638,-5.4363,-5.2268,-4.8985,-4.8306,-4.8306,-4.8306,-4.8306,-4.8783,-5.0215,-5.0381,-5.1865,-5.6375,-5.7076,0.0,0.0,0.0,0.0,0.0,0.0,0.0,0.0,0.0,0.0,0.0,-6.7903,-6.8695,-6.8231,-6.8545,-6.8194,-6.7109,-6.6859,-6.6455,-6.5897,-6.5897,-6.5763,-6.5493,-6.4878,-6.4455,-6.4166,0.0,0.0,0.0,-6.1812,-6.1285,-6.0512,-5.9708,-5.9324,-5.9106,-5.8276,-5.7997,-5.7886,-5.7075,-5.664,-5.6204,-5.4852,-5.4241,-5.3953,-5.3381,-5.3185,-5.3185,-5.3185,-5.3017,-5.2669,-5.1864,-5.0623,-4.9377,-4.8509,-4.8306,-4.8306,-4.8306,-4.8306,-4.8306,-4.8306,-4.8306,-4.8306,-4.8306,-4.8306,-4.8306,-4.8306,-4.8306,-4.8306,-4.8306,-4.8306,-4.8226,-4.8036,-4.6197,-4.506,-4.5294,-4.3853,-4.2435,-4.1257,-4.1384,-4.1112,-4.013,-4.0307,-4.0908,-4.1942,-4.239,-4.2881,-4.3396,-4.3637,-4.3753,-4.3756,-4.3767,-4.4053,-6.347,-6.4725,-6.5136,-6.431,-6.2842,-6.0548,-5.651,-5.4363,-5.2268,-4.8985,-4.8306,-4.8306,-4.8306,-4.8306,-4.86,-4.9482,-5.0951,-5.2842,-5.5284,-5.6987,0.0,0.0,0.0,0.0,0.0,0.0,0.0,0.0,0.0,0.0,0.0,-6.5843,-6.6344,-6.6822,-6.6579,-6.6636,-6.709,-6.6301,-6.5897,-6.5897,-6.5897,-6.5455,-6.4609,-6.4609,-6.4128,0.0,0.0,0.0,0.0,-6.1173,-6.0531,-6.0046,-5.9592,-5.912,-5.8648,-5.8161,-5.7997,-5.7886,-5.7075,-5.6279,-5.5494,-5.4665,-5.3865,-5.3203,-5.3185,-5.3185,-5.3185,-5.3185,-5.2627,-5.1839,-5.1019,-5.0209,-4.9377,-4.8509,-4.8306,-4.8306,-4.8306,-4.8306,-4.8306,-4.8306,-4.8306,-4.8306,-4.8306,-4.8306,-4.8306,-4.8306,-4.8306,-4.8306,-4.8306,-4.8306,-4.8077,-4.7458,-4.5492,-4.4507,-4.5232,-4.4741,-4.3457,-4.1333,-4.1885,-4.1647,-4.0146,-4.0797,-4.1196,-4.1214,-4.2644,-4.3393,-4.3396,-4.4198,-4.4598,-4.4598,-4.4598,-4.4598,-6.0228,-6.1753,-6.2456,-6.1098,-5.9942,-5.8235,-5.4748,-5.3133,-5.1591,-4.8857,-4.8306,-4.8306,-4.8306,-4.8306,-4.8948,-5.0932,-5.1206,0.0,0.0,0.0,0.0,0.0,0.0,0.0,0.0,0.0,0.0,0.0,0.0,0.0,0.0,-6.4647,-6.4943,-6.5419,-6.5709,-6.5663,-6.5251,-6.5314,-6.5048,-6.4475,-6.4839,-6.457,-6.3685,-6.3147,0.0,0.0,0.0,0.0,0.0,-6.0916,-6.0531,-6.0039,-5.9578,-5.9102,-5.8659,-5.8166,-5.7639,-5.7056,-5.625,-5.5456,-5.4638,-5.3839,-5.3414,-5.3185,-5.3185,-5.3185,-5.3093,-5.2535,-5.1788,-5.0984,-5.0186,-4.9358,-4.8638,-4.8361,-4.8306,-4.8306,-4.8306,-4.8306,-4.8306,-4.8306,-4.8306,-4.8306,-4.8306,-4.8306,-4.8306,-4.8306,-4.8306,-4.8306,-4.8306,-4.8306,-4.8085,-4.7456,-4.5918,-4.4892,-4.4702,-4.3189,-4.1937,-4.1251,-4.1897,-4.1856,-4.0882,-4.1543,-4.2191,-4.2695,-4.3159,-4.3675,-4.4215,-4.4485,-4.4615,-4.4615,-4.4615,-4.4615,-5.8047,-5.9475,-5.9997,-5.9006,-5.7905,-5.64,-5.3812,-5.2344,-5.093,-4.8746,-4.8306,-4.8306,-4.8306,-4.8306,-4.882,-5.0343,-5.071,-5.1536,0.0,0.0,0.0,0.0,0.0,0.0,0.0,0.0,0.0,0.0,0.0,0.0,0.0,-6.3613,-6.3757,-6.4049,-6.4559,-6.4686,-6.4407,-6.4356,-6.4073,-6.3543,-6.3753,-6.3397,-6.2567,-6.2252,0.0,0.0,0.0,0.0,0.0,-6.08,-6.0423,-5.9798,-5.9504,-5.9012,-5.8355,-5.7772,-5.7226,-5.6649,-5.5537,-5.4829,-5.4267,-5.3466,-5.3185,-5.313,-5.2831,-5.2962,-5.3017,-5.2236,-5.1412,-5.0615,-4.9799,-4.8952,-4.8306,-4.8306,-4.8306,-4.8306,-4.8306,-4.8306,-4.8306,-4.8306,-4.8306,-4.8306,-4.8306,-4.8306,-4.8306,-4.8306,-4.8306,-4.8306,-4.8306,-4.8094,-4.7731,-4.7093,-4.5793,-4.4834,-4.4483,-4.2972,-4.1788,-4.1247,-4.2162,-4.2375,-4.1644,-4.2306,-4.2928,-4.3389,-4.3713,-4.4086,-4.4615,-4.4615,-4.4615,-4.4615,-4.4615,-4.4615,0.0,-5.7574,-5.7556,-5.7501,-5.6345,-5.484,-5.3298,-5.1793,0.0,-4.8636,-4.8306,-4.8324,-4.8379,-4.8343,-4.8361,-4.8526,-4.9866,0.0,0.0,0.0,0.0,0.0,0.0,0.0,0.0,0.0,0.0,0.0,0.0,0.0,0.0,-6.2743,-6.2713,-6.2713,-6.3141,-6.3638,-6.4199,-6.3371,-6.2955,-6.2917,-6.261,-6.2067,-6.1378,-6.1768,0.0,0.0,0.0,0.0,0.0,-6.08,-6.025,-5.9402,-5.941,-5.8791,-5.7818,-5.7084,-5.6727,-5.6434,-5.4932,-5.4341,-5.4194,-5.3448,-5.3185,-5.3057,-5.2236,-5.2535,-5.2926,-5.2069,-5.1283,-5.0543,-4.9709,-4.8896,-4.8306,-4.8306,-4.8306,-4.8306,-4.8306,-4.8306,-4.8306,-4.8306,-4.8306,-4.8306,-4.8306,-4.8306,-4.8306,-4.8306,-4.8306,-4.8306,-4.8306,-4.7797,-4.7194,-4.6489,-4.5287,-4.4528,-4.4501,-4.385,-4.2842,-4.1427,-4.27,-4.3152,-4.2414,-4.3098,-4.347,-4.3474,-4.4209,-4.4615,-4.4615,-4.4615,-4.4615,-4.4615,-4.4615,-4.4615,-5.3133,0.0,-5.3261,-5.2656,-5.2215,-5.1665,0.0,-5.0161,-4.9572,-4.8526,-4.8306,-4.8508,-4.9169,-4.8746,-4.893,-5.082,-5.1444,-5.2068,0.0,0.0,0.0,0.0,0.0,0.0,0.0,0.0,0.0,0.0,0.0,0.0,0.0,-6.2218,-6.1887,-6.1887,-6.1408,-6.1518,-6.2249,-6.1842,-6.1484,-6.1201,-6.1154,-6.1069,-6.0942,-6.0684,0.0,0.0,0.0,0.0,-6.08,-6.08,-6.025,-5.9402,-5.941,-5.8463,-5.7057,-5.687,-5.6028,-5.4905,-5.4537,-5.4002,-5.3448,-5.3261,-5.3185,-5.3057,-5.2236,-5.2123,-5.1995,-5.0563,-5.0041,-4.9691,-4.8841,-4.8454,-4.8306,-4.8306,-4.8306,-4.8306,-4.8306,-4.8306,-4.8306,-4.8306,-4.8306,-4.8306,-4.8306,-4.8306,-4.8306,-4.8306,-4.8306,-4.8306,-4.8306,-4.8172,-4.7645,-4.6519,-4.613,-4.5312,-4.3799,-4.3503,-4.324,-4.2881,-4.3788,-4.3955,-4.3169,-4.3904,-4.4327,-4.431,-4.4513,-4.4615,-4.4615,-4.4615,-4.4615,-4.4615,-4.4615,-4.4615,-5.1006,-5.1701,-5.2454,-5.2013,-5.1628,-5.1242,-5.0804,-4.9831,-4.8765,-4.7921,-4.7736,-4.7902,-4.8379,-4.8379,-4.8875,-5.062,-5.1518,0.0,0.0,0.0,0.0,0.0,0.0,0.0,0.0,0.0,0.0,0.0,0.0,0.0,0.0,-6.1484,-6.1043,-6.1043,-6.0272,-6.0254,-6.1043,-6.0549,-6.0175,-5.9965,-5.9832,-5.9807,-5.9839,-5.9808,-6.004,0.0,0.0,0.0,-6.08,-6.08,-6.0027,-5.8852,-5.8847,-5.7776,-5.6198,-5.5831,-5.5146,-5.4362,-5.3989,-5.3558,-5.3185,-5.3185,-5.2944,-5.2517,-5.1697,-5.1174,-5.0688,-4.9836,-4.9589,-4.9395,-4.8527,-4.8306,-4.8306,-4.8306,-4.8306,-4.8306,-4.8306,-4.8306,-4.8306,-4.8306,-4.8306,-4.8306,-4.8306,-4.8306,-4.8306,-4.8306,-4.8306,-4.8306,-4.8306,-4.8047,-4.7625,-4.6936,-4.6347,-4.5547,-4.4462,-4.4116,-4.3783,-4.3424,-4.4165,-4.4395,-4.3982,-4.4361,-4.4615,-4.4615,-4.4615,-4.4615,-4.4615,-4.4615,-4.4615,-4.4615,-4.4615,-4.4615,-5.0088,-5.1555,-5.3075,-5.2582,-5.2123,-5.1738,-5.1481,-4.9811,-4.8122,-4.7424,-4.7278,-4.7314,-4.7461,-4.8141,0.0,0.0,0.0,0.0,0.0,0.0,0.0,0.0,0.0,0.0,0.0,0.0,0.0,0.0,0.0,0.0,0.0,-6.0658,-6.0236,-6.0236,-5.9446,-5.9355,-6.0034,-5.9373,-5.9048,-5.9127,-5.8773,-5.8673,-5.8815,-5.9139,-5.9595,0.0,0.0,0.0,-6.0589,-6.0473,-5.9449,-5.7991,-5.8004,-5.6923,-5.534,-5.4644,-5.4325,-5.4117,-5.3448,-5.3185,-5.3167,-5.3059,-5.2574,-5.1828,-5.0908,-5.01,-4.9506,-4.9413,-4.9395,-4.9229,-4.849,-4.8306,-4.8306,-4.8306,-4.8306,-4.8306,-4.8306,-4.8306,-4.8306,-4.8306,-4.8306,-4.8306,-4.8306,-4.8306,-4.8306,-4.8306,-4.8306,-4.8306,-4.8306,-4.7845,-4.7513,-4.7403,-4.6341,-4.5607,-4.5529,-4.4953,-4.4311,-4.3637,-4.4215,-4.4615,-4.4615,-4.4615,-4.4615,-4.4615,-4.4615,-4.4615,-4.4615,-4.4615,-4.4615,-4.4615,-4.4615,-4.4615,-5.1298,-5.2399,-5.2546,-4.9756,-5.0031,-5.0618,-4.9187,-4.8581,-4.8269,-4.8141,0.0,0.0,0.0,-4.9866,-5.0674,0.0,0.0,0.0,0.0,0.0,0.0,0.0,0.0,0.0,0.0,0.0,0.0,0.0,0.0,0.0,0.0,0.0,-5.9368,-5.9368,-5.8602,-5.8235,-5.8364,-5.8253,-5.8375,-5.8756,-5.8316,-5.8526,-5.9266,-5.8971,-5.9266,0.0,0.0,-5.9261,-5.9658,-5.8962,-5.8048,-5.7103,-5.7106,-5.6071,-5.4556,-5.4451,-5.397,-5.3353,-5.3243,-5.3185,-5.3096,-5.2401,-5.21,-5.1724,-5.0216,-4.9688,-4.9413,-4.8693,-4.8509,-4.8472,-4.8324,-4.8306,-4.8306,-4.8306,-4.8306,-4.8306,-4.8306,-4.8306,-4.8306,-4.8306,-4.8306,-4.8306,-4.8306,-4.8306,-4.8306,-4.8306,-4.8306,-4.8306,-4.8306,-4.8213,-4.7974,-4.7439,-4.6715,-4.6077,-4.5544,-4.4953,-4.4536,-4.4423,-4.4519,-4.4615,-4.4615,-4.4615,-4.4615,-4.4615,-4.4615,-4.4615,-4.4615,-4.4615,-4.4615,-4.4615,-4.4615,-4.4615,-4.9921,-5.093,-5.1555,-5.0031,-5.1536,-5.2949,-5.1334,-5.0618,-5.005,-4.9169,0.0,0.0,0.0,0.0,-5.2142,-5.4252,0.0,0.0,0.0,0.0,0.0,0.0,0.0,0.0,0.0,0.0,0.0,0.0,0.0,0.0,0.0,0.0,-5.8547,-5.8547,-5.8198,-5.7997,-5.7997,-5.7997,-5.8097,-5.8307,-5.8097,-5.8235,-5.8613,-5.7974,-5.8042,-5.8657,0.0,-5.8053,-5.8465,-5.8349,-5.7649,-5.6605,-5.635,-5.5352,-5.4044,-5.3839,-5.3521,-5.3185,-5.3185,-5.2931,-5.2491,-5.2126,-5.1403,-5.0574,-4.9828,-4.9262,-4.8823,-4.8398,-4.8306,-4.8306,-4.8306,-4.8306,-4.8306,-4.8306,-4.8306,-4.8306,-4.8306,-4.8306,-4.8306,-4.8306,-4.8306,-4.8306,-4.8306,-4.8306,-4.8306,-4.8306,-4.8306,-4.8306,-4.8306,-4.8306,-4.8195,-4.7918,-4.6999,-4.6284,-4.6015,-4.513,-4.4615,-4.4615,-4.4615,-4.4615,-4.4615,-4.4615,-4.4615,-4.4615,-4.4615,-4.4615,-4.4615,-4.4615,-4.4615,-4.4615,-4.4615,-4.4615,-4.8783,-4.9682,-5.0802,-5.0802,-5.2784,-5.4528,-5.3683,-5.2858,-5.1977,-5.0951,-5.073,0.0,0.0,-5.1483,0.0,0.0,0.0,0.0,0.0,0.0,0.0,0.0,0.0,0.0,0.0,0.0,0.0,0.0,0.0,0.0,0.0,0.0,-5.7721,-5.7721,-5.7538,-5.7428,-5.7428,-5.7428,-5.7629,-5.7997,-5.7997,-5.7905,-5.7703,-5.7079,-5.6968,-5.7188,-5.6788,-5.6886,-5.7324,-5.749,-5.6925,-5.5912,-5.5434,-5.4603,-5.3634,-5.3316,-5.3185,-5.3185,-5.3185,-5.2674,-5.1958,-5.1775,-5.0763,-4.955,-4.9363,-4.8835,-4.8306,-4.8306,-4.8306,-4.8306,-4.8306,-4.8306,-4.8306,-4.8306,-4.8306,-4.8306,-4.8306,-4.8306,-4.8306,-4.8306,-4.8306,-4.8306,-4.8306,-4.8306,-4.8306,-4.8306,-4.8306,-4.8306,-4.8306,-4.8306,-4.8306,-4.8306,-4.7292,-4.6509,-4.6218,-4.5215,-4.4615,-4.4615,-4.4615,-4.4615,-4.4615,-4.4615,-4.4615,-4.4615,-4.4615,-4.4615,-4.4615,-4.4615,-4.4615,-4.4615,-4.4615,-4.4615,-4.9519,-5.0141,-5.0802,-5.0802,-5.1536,-5.2619,-5.3995,-5.3702,-5.3298,-5.3922,-5.4051,0.0,0.0,-5.3133,0.0,0.0,0.0,0.0,0.0,0.0,0.0,0.0,0.0,0.0,0.0,0.0,0.0,0.0,0.0,0.0,0.0,0.0,0.0,-5.6895,-5.6161,-5.578,-5.578,-5.578,-5.651,-5.7997,-5.7997,-5.7611,-5.6895,-5.684,-5.6654,-5.6349,-5.5961,-5.6038,-5.642,-5.5656,-5.5071,-5.4604,-5.4117,-5.3662,-5.3243,-5.3203,-5.3185,-5.3185,-5.3185,-5.2674,-5.1867,-5.1132,-5.0305,-4.946,-4.8635,-4.8342,-4.8306,-4.8306,-4.8306,-4.8306,-4.8306,-4.8306,-4.8306,-4.8306,-4.8306,-4.8306,-4.8306,-4.8306,-4.8306,-4.8306,-4.8306,-4.8306,-4.8306,-4.8306,-4.8306,-4.8306,-4.8306,-4.8306,-4.8306,-4.8306,-4.8306,-4.8306,-4.7716,-4.6848,-4.5677,-4.4952,-4.4615,-4.4615,-4.4615,-4.4615,-4.4615,-4.4615,-4.4615,-4.4615,-4.4615,-4.4615,-4.4615,-4.4615,-4.4615,-4.4615,-4.4615,-4.4615,-4.8012,-4.9022,-5.016,-5.0674,-5.1793,-5.3041,-5.4142,-5.495,-5.5684,-5.6473,-5.6235,-5.5556,0.0,0.0,0.0,0.0,0.0,0.0,0.0,0.0,0.0,0.0,0.0,0.0,0.0,0.0,0.0,0.0,0.0,0.0,0.0,0.0,0.0,-5.6051,-5.5757,-5.5614,-5.5614,-5.5614,-5.5926,-5.651,-5.651,-5.6345,-5.6033,-5.5537,-5.5245,-5.511,-5.469,-5.462,-5.4785,-5.4752,-5.4634,-5.4458,-5.3979,-5.3552,-5.3185,-5.3185,-5.3185,-5.3133,-5.2637,-5.1922,-5.1114,-5.0306,-4.9481,-4.8727,-4.8397,-4.8306,-4.8306,-4.8306,-4.8306,-4.8306,-4.8306,-4.8306,-4.8306,-4.8306,-4.8306,-4.8306,-4.8306,-4.8306,-4.8306,-4.8306,-4.8306,-4.8306,-4.8306,-4.8306,-4.8306,-4.8306,-4.8306,-4.8306,-4.8306,-4.8306,-4.8306,-4.8306,-4.7391,-4.643,-4.5572,-4.4953,-4.4615,-4.4615,-4.4615,-4.4615,-4.4615,-4.4129,-4.3853,-4.3853,-4.3406,-4.3382,-4.3844,-4.3844,-4.4103,-4.4615,-4.4615,-4.4615,-4.6911,-4.7921,-4.9319,-4.9866,0.0,-5.3243,-5.4803,-5.6216,-5.7483,-5.8547,-5.7721,-5.6712,-5.64,0.0,0.0,0.0,0.0,0.0,0.0,0.0,0.0,0.0,0.0,0.0,0.0,0.0,0.0,0.0,0.0,0.0,0.0,0.0,0.0,0.0,-5.4968,-5.484,-5.484,-5.484,-5.484,-5.484,-5.484,-5.4968,-5.5188,-5.4638,-5.4252,-5.3999,-5.3866,-5.3795,-5.3831,-5.4155,-5.4185,-5.4061,-5.3738,-5.3431,-5.3185,-5.3185,-5.3041,-5.2747,-5.2174,-5.1314,-5.0323,-4.9793,-4.9022,-4.8306,-4.8306,-4.8306,-4.8306,-4.8306,-4.8306,-4.8306,-4.8306,-4.8306,-4.8306,-4.8306,-4.8306,-4.8306,-4.8306,-4.8306,-4.8306,-4.8306,-4.8306,-4.8306,-4.8306,-4.8306,-4.8306,-4.8306,-4.8306,-4.8306,-4.8306,-4.8306,-4.8306,-4.8306,-4.7368,-4.6448,-4.5832,-4.5032,-4.4456,-4.4236,-4.4001,-4.4085,-4.4581,-4.3833,-4.34,-4.3381,-4.2663,-4.2555,-4.3064,-4.3293,-4.3664,-4.4225,-4.4479,-4.4615,-4.6636,-4.7077,-4.831,-4.8307,0.0,0.0,-5.6088,-5.7428,-5.8474,-6.007,-5.8492,-5.706,-5.7831,-5.6675,0.0,0.0,0.0,0.0,0.0,0.0,0.0,0.0,0.0,0.0,0.0,0.0,0.0,0.0,0.0,0.0,0.0,0.0,0.0,0.0,-5.3628,-5.3185,-5.3185,-5.3185,-5.3185,-5.3185,-5.3185,-5.3628,-5.4399,-5.4399,-5.3959,-5.3227,-5.3624,-5.3789,-5.3787,-5.3792,-5.3546,-5.3185,-5.3185,-5.3185,-5.3185,-5.3185,-5.2674,-5.2013,-5.1983,-5.0939,-4.9606,-4.9606,-4.9002,-4.8306,-4.8306,-4.8306,-4.8306,-4.8306,-4.8306,-4.8306,-4.8306,-4.8306,-4.8306,-4.8306,-4.8306,-4.8306,-4.8306,-4.8306,-4.8306,-4.8306,-4.8306,-4.8306,-4.8306,-4.8306,-4.8306,-4.8306,-4.8306,-4.8306,-4.8306,-4.8306,-4.8306,-4.8306,-4.7752,-4.7119,-4.6457,-4.5165,-4.4096,-4.3427,-4.2702,-4.2996,-4.4502,-4.3814,-4.3381,-4.3381,-4.2644,-4.2294,-4.2294,-4.3008,-4.34,-4.3434,-4.4209,-4.4598,-4.5517,-4.7095,-4.9212,-4.9207,0.0,0.0,0.0,-5.8272,0.0,0.0,-5.9391,-5.8212,-5.7317,0.0,0.0,0.0,0.0,0.0,0.0,0.0,0.0,0.0,0.0,0.0,0.0,0.0,0.0,0.0,0.0,0.0,0.0,0.0,0.0,0.0,-5.3314,-5.3185,-5.3185,-5.3185,-5.3185,-5.3185,-5.3185,-5.3314,-5.3573,-5.3573,-5.3424,-5.3206,-5.3336,-5.3371,-5.3374,-5.3373,-5.3316,-5.3185,-5.3185,-5.3185,-5.3133,-5.2566,-5.2199,-5.1848,-5.0705,-5.001,-4.9499,-4.8874,-4.8507,-4.8306,-4.8306,-4.8306,-4.8306,-4.8306,-4.8306,-4.8306,-4.8306,-4.8306,-4.8306,-4.8306,-4.8306,-4.8306,-4.8306,-4.8306,-4.8306,-4.8306,-4.8306,-4.8306,-4.8306,-4.8306,-4.8306,-4.8306,-4.8306,-4.8306,-4.8306,-4.7808,-4.7679,-4.8232,-4.6813,-4.6009,-4.6374,-4.4739,-4.3627,-4.3413,-4.2715,-4.2513,-4.2946,-4.2251,-4.1844,-4.1843,-4.1129,-4.101,-4.1511,-4.1756,-4.2398,-4.3403,-4.3639,-4.4062,-4.6342,-4.805,0.0,-5.0877,-5.3093,-5.5713,-5.7955,0.0,0.0,0.0,-5.952,-5.8529,-5.7863,0.0,0.0,0.0,0.0,0.0,0.0,0.0,0.0,0.0,0.0,0.0,0.0,0.0,0.0,0.0,0.0,0.0,0.0,0.0,0.0,0.0,-5.3185,-5.3185,-5.3185,-5.3185,-5.3185,-5.3185,-5.3185,-5.3185,-5.3185,-5.3185,-5.3185,-5.3185,-5.3185,-5.3185,-5.3185,-5.3185,-5.3185,-5.3167,-5.2831,-5.2726,-5.2624,-5.1811,-5.1316,-5.0912,-4.9935,-4.9368,-4.8985,-4.8471,-4.8306,-4.8306,-4.8306,-4.8306,-4.8306,-4.8306,-4.8306,-4.8306,-4.8306,-4.8306,-4.8306,-4.8306,-4.8306,-4.8306,-4.8306,-4.8306,-4.8306,-4.8306,-4.8306,-4.8306,-4.8306,-4.8031,-4.7811,-4.7808,-4.755,-4.7457,-4.7771,-4.7403,-4.7184,-4.7445,-4.6634,-4.6055,-4.6043,-4.4386,-4.3262,-4.2985,-4.1985,-4.1433,-4.1433,-4.1299,-4.1197,-4.1197,-4.0485,-4.0333,-4.0747,-4.1068,-4.1813,-4.298,-4.324,-4.3842,-4.8123,-4.9463,0.0,-5.2823,-5.4011,0.0,-5.8432,-5.9698,-6.0291,-6.0291,0.0,-5.8309,0.0,0.0,0.0,0.0,0.0,0.0,0.0,0.0,0.0,0.0,0.0,0.0,0.0,0.0,0.0,0.0,0.0,0.0,0.0,0.0,0.0,0.0,-5.3185,-5.3185,-5.3185,-5.3185,-5.317,0.0,-5.3148,-5.317,-5.3075,-5.3167,-5.3185,-5.3185,-5.3185,-5.317,-5.3096,-5.3096,-5.3038,-5.291,-5.2181,-5.1899,-5.1785,-5.1002,-5.023,-4.9591,-4.951,-4.8962,-4.8306,-4.8306,-4.8306,-4.8306,-4.8306,-4.8306,-4.8306,-4.8306,-4.8306,-4.8306,-4.8306,-4.8306,-4.8306,-4.8306,-4.8306,-4.8306,-4.8306,-4.8306,-4.8306,-4.8306,-4.8306,-4.8306,-4.8306,-4.7628,-4.7077,-4.6999,-4.6354,-4.619,-4.7,-4.7036,-4.6817,-4.636,-4.6831,-4.6748,-4.5593,-4.4148,-4.3011,-4.2349,-4.0976,-4.018,-4.0096,-4.073,-4.1102,-4.1102,-4.0426,-4.0096,-4.0096,-4.0832,-4.1576,-4.2303,-4.3064,-4.3842,-4.6763,-4.9012,0.0,0.0,-5.5713,-5.8175,-5.8235,-5.8896,-5.9459,-5.9459,-5.9166,0.0,0.0,0.0,0.0,0.0,0.0,0.0,0.0,0.0,0.0,0.0,0.0,0.0,0.0,0.0,0.0,0.0,0.0,0.0,0.0,0.0,0.0,-5.3185,-5.3185,-5.3185,-5.3185,-5.3185,-5.2894,0.0,-5.2913,-5.2876,-5.227,-5.2913,-5.3185,-5.3185,-5.3185,-5.2839,-5.2252,-5.2252,-5.1901,-5.1287,-5.1125,-5.1062,-5.0971,-5.0147,-4.974,-4.9496,-4.8818,-4.847,-4.8306,-4.8306,-4.8306,-4.8306,-4.8306,-4.8306,-4.8306,-4.8306,-4.8306,-4.8306,-4.8306,-4.8306,-4.8306,-4.8306,-4.8306,-4.8306,-4.8306,-4.8306,-4.8306,-4.8306,-4.8306,-4.8306,-4.8306,-4.7625,-4.6889,-4.6244,-4.6005,-4.6193,-4.7,-4.6544,-4.6416,-4.7058,-4.6257,-4.562,-4.5495,-4.4184,-4.3078,-4.236,-4.1459,-4.0696,-4.013,-4.0265,-4.035,-4.035,-4.018,-4.0096,-4.0096,-4.0832,-4.1576,-4.2303,-4.3064,-4.3842,-4.7592,0.0,0.0,-5.3857,0.0,-5.8529,-5.8107,-5.8327,-5.8639,-5.8639,0.0,0.0,0.0,0.0,0.0,0.0,0.0,0.0,0.0,0.0,0.0,0.0,0.0,0.0,0.0,0.0,0.0,0.0,0.0,0.0,0.0,-5.2247,-5.2043,-5.2043,-5.2043,-5.2059,-5.205,-5.205,-5.1836,-5.1426,-5.1838,-5.1834,-5.1465,-5.2669,-5.2989,-5.2626,-5.2637,-5.2175,-5.1432,-5.1432,-5.1171,-5.0763,-5.0387,-5.0226,-5.0109,-4.9301,-4.8987,-4.8911,-4.8452,-4.8306,-4.8306,-4.8306,-4.8306,-4.8306,-4.8306,-4.8306,-4.8306,-4.8306,-4.8306,-4.8306,-4.8306,-4.8306,-4.8306,-4.8306,-4.8306,-4.8306,-4.8306,-4.8306,-4.8306,-4.8306,-4.8306,-4.8306,-4.8306,-4.7642,-4.6964,-4.6544,-4.6138,-4.6192,-4.6985,-4.6483,-4.6114,-4.6324,-4.575,-4.5275,-4.5083,-4.4027,-4.3095,-4.2359,-4.1602,-4.0865,-4.013,-4.0096,-4.0096,-4.0096,-4.0096,-4.0096,-4.0096,-4.0832,-4.1576,-4.2303,-4.3064,-4.3639,-4.8402,0.0,-5.1785,-5.5009,-5.6818,0.0,-5.7795,-5.7795,0.0,0.0,0.0,0.0,0.0,0.0,0.0,0.0,0.0,0.0,0.0,0.0,0.0,0.0,0.0,0.0,0.0,0.0,0.0,0.0,0.0,0.0,-5.1793,-5.1145,-5.0794,-5.0794,-5.0796,-5.0792,-5.0793,-5.0814,-5.0733,-5.0582,-5.0593,-5.0659,-5.086,-5.2236,-5.2491,-5.1801,-5.1799,-5.1355,-5.0587,-5.0587,-5.0495,-5.0293,-4.9626,-4.9372,-4.9303,-4.8564,-4.8306,-4.8306,-4.8306,-4.8306,-4.8306,-4.8306,-4.8306,-4.8306,-4.8306,-4.8306,-4.8306,-4.8306,-4.8306,-4.8306,-4.8306,-4.8306,-4.8306,-4.8306,-4.8306,-4.8306,-4.8306,-4.8306,-4.8306,-4.8306,-4.8306,-4.825,-4.8122,-4.7532,-4.7057,-4.6908,-4.6324,-4.6189,-4.7016,-4.6557,-4.5994,-4.5463,-4.5468,-4.5256,-4.466,-4.3999,-4.3237,-4.2354,-4.1728,-4.1001,-4.0146,-4.0096,-4.0096,-4.0096,-4.0096,-4.0096,-4.0096,-4.0967,-4.1694,-4.2303,-4.3064,-4.3392,-4.6302,0.0,-5.2601,0.0,-5.6808,-5.6969,0.0,0.0,0.0,0.0,0.0,0.0,0.0,0.0,0.0,0.0,0.0,0.0,0.0,0.0,0.0,0.0,0.0,0.0,0.0,0.0,0.0,0.0,0.0,0.0,-5.0929,-5.0875,-5.08,-5.08,-5.0794,-5.0794,-5.0798,-5.0804,-5.0457,-4.9757,-4.9756,-5.0133,-5.0824,-5.1326,-5.1326,-5.096,-5.096,-5.0502,-4.9753,-4.9748,-4.933,-4.8618,-4.8526,-4.8471,-4.8472,-4.8343,-4.8306,-4.8306,-4.8306,-4.8306,-4.8306,-4.8306,-4.8306,-4.8306,-4.8306,-4.8306,-4.8306,-4.8306,-4.8306,-4.8306,-4.8306,-4.8306,-4.8306,-4.8306,-4.8306,-4.8306,-4.8306,-4.8306,-4.8306,-4.8306,-4.8306,-4.8066,-4.7384,-4.7182,-4.6851,-4.6174,-4.5971,-4.6189,-4.7016,-4.6573,-4.6204,-4.6224,-4.5796,-4.5264,-4.4654,-4.4496,-4.3836,-4.2388,-4.2202,-4.1551,-4.0163,-4.0096,-4.0096,-4.0096,-4.0096,-4.0096,-4.0096,-4.1474,-4.2202,-4.2303,-4.3064,-4.3392,-4.6744,-4.9561,-5.2569,0.0,-5.5798,-5.6124,0.0,0.0,0.0,0.0,0.0,0.0,0.0,0.0,0.0,0.0,0.0,0.0,0.0,0.0,0.0,0.0,0.0,0.0,0.0,0.0,0.0,0.0,0.0,-4.9419,-5.0085,-4.9664,-4.9407,-4.9407,-4.9393,-4.9393,-4.9407,-4.939,-4.9206,-4.8875,-4.8874,-4.9055,-4.9397,-4.9805,-5.0026,-5.0138,-5.0335,-4.9819,-4.8874,-4.8871,-4.8653,-4.8306,-4.8306,-4.8306,-4.8306,-4.8306,-4.8306,-4.8306,-4.8306,-4.8306,-4.8306,-4.8306,-4.8306,-4.8306,-4.8306,-4.8306,-4.8306,-4.8306,-4.8306,-4.8306,-4.8306,-4.8306,-4.8306,-4.8306,-4.8306,-4.8306,-4.8306,-4.8306,-4.8306,-4.8306,-4.8306,-4.8195,-4.7827,-4.7771,-4.7661,-4.7292,-4.7237,-4.7248,-4.727,-4.6717,-4.6206,-4.5932,-4.5353,-4.4879,-4.4626,-4.4615,-4.4141,-4.2997,-4.2523,-4.1813,-4.0747,-4.0713,-4.051,-4.0113,-4.0096,-4.0096,-4.0096,-4.1153,-4.1677,-4.1694,-4.2439,-4.2777,-4.6561,-4.8732,-5.0675,-5.2931,-5.4087,0.0,0.0,0.0,0.0,0.0,0.0,0.0,0.0,0.0,0.0,0.0,0.0,0.0,0.0,0.0,0.0,0.0,0.0,0.0,0.0,0.0,0.0,0.0,0.0,-4.8331,-4.9005,-4.8559,-4.8306,-4.8306,-4.8306,-4.8306,-4.8306,-4.8306,-4.8306,-4.8306,-4.8306,-4.8306,-4.8324,-4.8823,-4.9178,-4.9433,-4.9677,-4.9229,-4.8306,-4.8306,-4.8306,-4.8306,-4.8306,-4.8306,-4.8306,-4.8306,-4.8306,-4.8306,-4.8306,-4.8306,-4.8306,-4.8306,-4.8306,-4.8306,-4.8306,-4.8306,-4.8306,-4.8306,-4.8306,-4.8306,-4.8306,-4.8306,-4.8306,-4.8306,-4.8306,-4.8306,-4.8306,-4.8306,-4.8306,-4.8306,-4.8306,-4.8306,-4.8306,-4.8306,-4.8306,-4.8306,-4.8169,-4.7925,-4.7445,-4.6695,-4.6014,-4.5545,-4.4944,-4.4615,-4.4615,-4.4615,-4.4248,-4.3443,-4.2878,-4.2252,-4.1508,-4.1474,-4.1221,-4.0671,-4.0485,-4.0299,-4.0096,-4.1018,-4.139,-4.1221,-4.1762,-4.2016,-4.4224,-4.4981,0.0,-4.9994,0.0,0.0,0.0,0.0,0.0,0.0,0.0,0.0,0.0,0.0,0.0,0.0,0.0,0.0,0.0,0.0,0.0,0.0,0.0,0.0,0.0,0.0,0.0,0.0,0.0,-4.6804,-4.7478,-4.8014,-4.8306,-4.8306,-4.8306,-4.8306,-4.8306,-4.8306,-4.8306,-4.8306,-4.8306,-4.8306,-4.8324,-4.9118,-4.927,-4.8935,-4.8945,-4.8712,-4.8306,-4.8306,-4.8306,-4.8306,-4.8306,-4.8306,-4.8306,-4.8306,-4.8306,-4.8306,-4.8306,-4.8306,-4.8306,-4.8306,-4.8306,-4.8306,-4.8306,-4.8306,-4.8306,-4.8306,-4.8306,-4.8306,-4.8306,-4.8306,-4.8306,-4.8306,-4.8306,-4.8306,-4.8306,-4.8306,-4.8306,-4.8306,-4.8306,-4.8306,-4.8306,-4.8306,-4.8306,-4.8306,-4.7801,-4.7441,-4.7397,-4.6332,-4.552,-4.5494,-4.4944,-4.4615,-4.4615,-4.4615,-4.4248,-4.3443,-4.3358,-4.3014,-4.2269,-4.2236,-4.2219,-4.2185,-4.1508,-4.0798,-4.0096,-4.1551,-4.188,-4.1204,-4.1238,-4.1271,-4.3539,-4.4678,0.0,0.0,0.0,0.0,0.0,0.0,0.0,0.0,0.0,0.0,0.0,0.0,0.0,0.0,0.0,0.0,0.0,0.0,0.0,0.0,0.0,0.0,0.0,0.0,0.0,0.0,0.0,0.0,-4.671,-4.6959,-4.7281,-4.7715,-4.7736,-4.7917,-4.8287,-4.8306,-4.8306,-4.8306,-4.8547,-4.8566,-4.8343,-4.9403,-4.9517,-4.8915,-4.9166,-4.9056,-4.8675,-4.8398,-4.8306,-4.8306,-4.8306,-4.8306,-4.8306,-4.8306,-4.8306,-4.8306,-4.8306,-4.8306,-4.8306,-4.8306,-4.8306,-4.8306,-4.8306,-4.8306,-4.8306,-4.8306,-4.8306,-4.8306,-4.8306,-4.8306,-4.8306,-4.8306,-4.8306,-4.8158,-4.7642,-4.7937,-4.8306,-4.8306,-4.8306,-4.8306,-4.8306,-4.8306,-4.8306,-4.8306,-4.7798,-4.7232,-4.6794,-4.5604,-4.463,-4.4192,-4.3532,-4.3318,-4.3792,-4.3826,-4.3927,-4.4147,-4.369,-4.3274,-4.3031,-4.3014,-4.2574,-4.161,-4.2269,-4.2033,-4.0798,-4.0874,-4.0756,-4.0476,-4.0476,-4.0747,-4.2158,-4.3262,0.0,0.0,0.0,0.0,0.0,0.0,0.0,0.0,0.0,0.0,0.0,0.0,0.0,0.0,0.0,0.0,0.0,0.0,0.0,0.0,0.0,0.0,0.0,0.0,0.0,0.0,0.0,0.0,-4.6077,-4.628,-4.671,-4.7385,-4.7593,-4.7897,-4.8287,-4.8306,-4.8306,-4.8306,-4.87,-4.8754,-4.8516,-4.9473,-4.9594,-4.9115,-4.9239,-4.9148,-4.8859,-4.8472,-4.8306,-4.8306,-4.8306,-4.8306,-4.8306,-4.8306,-4.8306,-4.8306,-4.8306,-4.8306,-4.8306,-4.8306,-4.8306,-4.8306,-4.8306,-4.8306,-4.8306,-4.8306,-4.8306,-4.8306,-4.8306,-4.8306,-4.8306,-4.8306,-4.8306,-4.8085,-4.7275,-4.7515,-4.7901,-4.7901,-4.7901,-4.7994,-4.8251,-4.8306,-4.8306,-4.8306,-4.7785,-4.7075,-4.6147,-4.5075,-4.4053,-4.3145,-4.2591,-4.2489,-4.2997,-4.324,-4.3639,-4.4147,-4.3944,-4.3809,-4.3809,-4.3527,-4.2936,-4.1965,-4.2395,-4.2185,-4.1204,-4.0696,-4.035,-4.0096,-4.0096,-4.0637,0.0,0.0,0.0,0.0,0.0,0.0,0.0,0.0,0.0,0.0,0.0,0.0,0.0,0.0,0.0,0.0,0.0,0.0,0.0,0.0,0.0,0.0,0.0,0.0,0.0,0.0,0.0,0.0,0.0,-4.6118,-4.5518,-4.6069,-4.6687,-4.7342,-4.7995,-4.8306,-4.8306,-4.8306,-4.8306,-4.8306,-4.87,-4.889,-4.8914,-4.933,-4.9501,-4.9472,-4.91,-4.8915,-4.8859,-4.8472,-4.8306,-4.8306,-4.8306,-4.8306,-4.8306,-4.8306,-4.8306,-4.8306,-4.8306,-4.8306,-4.8306,-4.8306,-4.8306,-4.8306,-4.8306,-4.8306,-4.8306,-4.8306,-4.8306,-4.8306,-4.8306,-4.8306,-4.8306,-4.8306,-4.8306,-4.8067,-4.7241,-4.7058,-4.7057,-4.7054,-4.7074,-4.7351,-4.8141,-4.8288,-4.8306,-4.8306,-4.7759,-4.6848,-4.5465,-4.4725,-4.3794,-4.2417,-4.2236,-4.2236,-4.2252,-4.2946,-4.3375,-4.3392,-4.4147,-4.4598,-4.4581,-4.3809,-4.3375,-4.3325,-4.1931,-4.1187,-4.117,-4.117,-4.0798,-4.0096,-4.0096,-4.0891,-3.9187,0.0,0.0,0.0,0.0,0.0,0.0,0.0,0.0,0.0,0.0,0.0,0.0,0.0,0.0,0.0,0.0,0.0,0.0,0.0,0.0,0.0,0.0,0.0,0.0,0.0,0.0,0.0,-4.5576,-4.5501,-4.4874,-4.5844,-4.6501,-4.6664,-4.7738,-4.8306,-4.8306,-4.8306,-4.8306,-4.8306,-4.8725,-4.8915,-4.8927,-4.9621,-4.9784,-4.9489,-4.9385,-4.9174,-4.8859,-4.8472,-4.8306,-4.8306,-4.8306,-4.8306,-4.8306,-4.8306,-4.8306,-4.8306,-4.8306,-4.8306,-4.8306,-4.8306,-4.8306,-4.8306,-4.8306,-4.8306,-4.8306,-4.8306,-4.8306,-4.8306,-4.8306,-4.8306,-4.8306,-4.8306,-4.8306,-4.7919,-4.6521,-4.6231,-4.6214,-4.6232,-4.6709,-4.7168,-4.7388,-4.7901,-4.8306,-4.8306,-4.7286,-4.6216,-4.5394,-4.3792,-4.2418,-4.1586,-4.1018,-4.0916,-4.1457,-4.2185,-4.2828,-4.3358,-4.4147,-4.4333,-4.3775,-4.3511,-4.2885,-4.1847,-4.1407,-4.0933,-4.0417,-4.0417,-4.0316,-4.0096,-4.0096,-4.0891,-3.9499,-4.0139,0.0,0.0,0.0,0.0,0.0,0.0,0.0,0.0,0.0,0.0,0.0,0.0,0.0,0.0,0.0,0.0,0.0,0.0,0.0,0.0,0.0,0.0,0.0,0.0,0.0,-4.5523,-4.5486,-4.523,-4.4632,-4.5732,-4.6407,-4.6407,-4.7656,-4.8306,-4.8306,-4.8306,-4.8306,-4.8306,-4.8881,-4.9155,-4.9171,-4.9813,-4.9877,-4.9497,-4.9316,-4.9021,-4.8638,-4.8398,-4.8306,-4.8306,-4.8306,-4.8306,-4.8306,-4.8306,-4.8306,-4.8306,-4.8306,-4.8306,-4.8306,-4.8306,-4.8306,-4.8306,-4.8306,-4.8306,-4.8306,-4.8306,-4.8306,-4.8306,-4.8306,-4.8306,-4.8213,-4.7882,-4.7808,-4.7367,-4.5751,-4.5407,-4.5406,-4.5405,-4.5773,-4.6305,-4.6984,-4.748,-4.7901,-4.8251,-4.732,-4.6166,-4.4978,-4.3469,-4.2025,-4.0866,-4.0367,-4.0282,-4.0696,-4.1694,-4.2472,-4.2912,-4.3673,-4.3893,-4.3409,-4.2801,-4.2083,-4.1221,-4.0899,-4.0536,-4.0096,-4.0096,-4.0096,-4.0096,-4.0096,-4.0739,-4.0416,-4.0561,-4.1242,-4.1882,0.0,0.0,-4.3369,-4.3057,0.0,0.0,0.0,0.0,0.0,0.0,0.0,0.0,0.0,0.0,0.0,0.0,0.0,0.0,0.0,0.0,0.0,-4.614,-4.6162,-4.5643,-4.5468,-4.5207,-4.4726,-4.5783,-4.643,-4.6524,-4.7658,-4.8306,-4.8306,-4.8306,-4.8306,-4.8306,-4.9078,-4.946,-4.9504,-4.9924,-4.9885,-4.9475,-4.9123,-4.8709,-4.8306,-4.8306,-4.8306,-4.8306,-4.8306,-4.8306,-4.8306,-4.8306,-4.8306,-4.8306,-4.8306,-4.8306,-4.8306,-4.8306,-4.8306,-4.8306,-4.8306,-4.8306,-4.8288,-4.8196,-4.8158,-4.8158,-4.8047,-4.8029,-4.7845,-4.7126,-4.6962,-4.6541,-4.504,-4.4693,-4.4672,-4.4575,-4.4633,-4.5168,-4.6691,-4.7039,-4.7369,-4.8196,-4.7535,-4.6292,-4.444,-4.3416,-4.2174,-4.0297,-4.0096,-4.0096,-4.0096,-4.1399,-4.2168,-4.2168,-4.2878,-4.3223,-4.3156,-4.1914,-4.117,-4.1085,-4.0434,-4.0096,-4.0096,-4.0096,-4.0096,-4.0096,-4.0096,-4.0519,-4.0948,-4.0967,-4.0967,-4.0487,0.0,0.0,-4.0818,-4.0579,0.0,0.0,0.0,0.0,0.0,0.0,0.0,0.0,0.0,0.0,0.0,0.0,0.0,0.0,0.0,0.0,0.0,-4.6653,-4.6353,-4.624,-4.5321,-4.4943,-4.5294,-4.6014,-4.6641,-4.7194,-4.7917,-4.8306,-4.8306,-4.8306,-4.8306,-4.8306,-4.8779,-4.9187,-4.9504,-4.9924,-4.9885,-4.9508,-4.9416,-4.8963,-4.8306,-4.8306,-4.8306,-4.8306,-4.8306,-4.8306,-4.8306,-4.8306,-4.8306,-4.8306,-4.8306,-4.8306,-4.8306,-4.8306,-4.8306,-4.8306,-4.8306,-4.8306,-4.8159,-4.7517,-4.7332,-4.72,-4.6557,-4.6354,-4.6317,-4.617,-4.614,-4.588,-4.4913,-4.4693,-4.4525,-4.3862,-4.4267,-4.5021,-4.5975,-4.6654,-4.7369,-4.8196,-4.7058,-4.5674,-4.4369,-4.2934,-4.1533,-4.0246,-4.0096,-4.0096,-4.0096,-4.0899,-4.1407,-4.1407,-4.2117,-4.2252,-4.166,-4.1356,-4.0916,-4.0333,-4.018,-4.0096,-4.0096,-4.0096,-4.0096,-4.0096,-4.0096,-4.0519,-4.1809,-4.1699,-4.1607,-4.1203,0.0,0.0,0.0,0.0,-4.0469,0.0,0.0,0.0,0.0,0.0,0.0,0.0,0.0,0.0,0.0,0.0,0.0,0.0,0.0,0.0,0.0,-4.6594,-4.616,-4.5561,-4.4954,-4.4852,-4.5459,-4.607,-4.671,-4.7385,-4.7995,-4.8306,-4.8306,-4.8306,-4.8306,-4.8306,-4.871,-4.9108,-4.9504,-4.9719,-4.9692,-4.9489,-4.9295,-4.8864,-4.8306,-4.8306,-4.8306,-4.8306,-4.8306,-4.8306,-4.8306,-4.8306,-4.8306,-4.8306,-4.8306,-4.8306,-4.8306,-4.8306,-4.8306,-4.8306,-4.8306,-4.8012,-4.7627,-4.7205,-4.6819,-4.6415,-4.5993,-4.5883,-4.5792,-4.5407,-4.5294,-4.5086,-4.4287,-4.4105,-4.3975,-4.3588,-4.3828,-4.436,-4.5168,-4.5975,-4.6783,-4.7571,-4.6466,-4.5279,-4.4734,-4.2705,-4.1133,-4.0552,-4.0262,-4.0096,-4.0096,-4.0781,-4.1204,-4.1204,-4.1542,-4.1593,-4.1221,-4.0849,-4.0485,-4.0113,-4.0096,-4.0096,-4.0096,-4.0096,-4.0096,-4.0096,-4.0096,-4.0316,0.0,0.0,0.0,0.0,0.0,-4.0414,0.0,0.0,0.0,-4.2194,0.0,0.0,0.0,0.0,0.0,0.0,0.0,0.0,0.0,0.0,0.0,0.0,0.0,0.0,0.0,-4.6029,-4.5469,-4.4648,-4.4421,-4.4744,-4.563,-4.6264,-4.6892,-4.7551,-4.8055,-4.8306,-4.8306,-4.8306,-4.8306,-4.8306,-4.8708,-4.9108,-4.9506,-4.9499,-4.9495,-4.9475,-4.9075,-4.8675,-4.8306,-4.8306,-4.8306,-4.8306,-4.8306,-4.8306,-4.8306,-4.8306,-4.8306,-4.8306,-4.8306,-4.8306,-4.8306,-4.8306,-4.8306,-4.8306,-4.8306,-4.7846,-4.7259,-4.6947,-4.6397,-4.5827,-4.5532,-4.5437,-4.5268,-4.4628,-4.4464,-4.4299,-4.3642,-4.3515,-4.3515,-4.3515,-4.3515,-4.3754,-4.4562,-4.5369,-4.6177,-4.6984,-4.6058,-4.5238,-4.512,-4.2835,-4.1155,-4.0926,-4.0504,-4.0204,-4.0096,-4.0646,-4.0984,-4.0984,-4.0984,-4.0984,-4.0984,-4.0434,-4.0096,-4.0096,-4.0096,-4.0096,-4.0096,-4.0096,-4.0096,-4.0096,-4.0096,-4.0096,0.0,0.0,0.0,0.0,-4.1644,0.0,0.0,0.0,-3.9772,-3.935,0.0,0.0,0.0,0.0,0.0,0.0,0.0,0.0,0.0,0.0,0.0,0.0,0.0,0.0,0.0,0.0,-4.3939,-4.4552,-4.388,-4.4296,-4.6193,-4.6932,-4.7572,-4.8172,-4.8267,-4.8306,-4.8306,-4.8306,-4.8306,-4.8306,-4.8719,-4.911,-4.9505,-4.9499,-4.9492,-4.9475,-4.9075,-4.8675,-4.8306,-4.8306,-4.8306,-4.8306,-4.8306,-4.8306,-4.8306,-4.8306,-4.8306,-4.8306,-4.8306,-4.8306,-4.8306,-4.8306,-4.8306,-4.8306,-4.8306,-4.8251,-4.7884,-4.6434,-4.5974,-4.5569,-4.4138,-4.3771,-4.3752,-4.366,-4.3642,-4.3606,-4.3533,-4.3515,-4.3515,-4.3515,-4.3515,-4.3754,-4.4562,-4.5369,-4.6177,-4.6984,-4.636,-4.5643,-4.516,-4.357,-4.2101,-4.1018,-4.085,-4.0625,-4.0146,-4.018,-4.0231,-4.0231,-4.0231,-4.0231,-4.0231,-4.0146,-4.0096,-4.0096,-4.0096,-4.0096,-4.0096,-4.0096,-4.0096,-4.0096,-4.0096,-4.0096,0.0,0.0,0.0,0.0,0.0,0.0,-3.9732,0.0,-3.9239,0.0,0.0,0.0,0.0,0.0,0.0,0.0,0.0,0.0,0.0,0.0,0.0,0.0,0.0,0.0,0.0,0.0,0.0,0.0,0.0,-4.4017,-4.5664,-4.6793,-4.7695,-4.8287,-4.8306,-4.8306,-4.8306,-4.8306,-4.8306,-4.8306,-4.8476,-4.8761,-4.9144,-4.8924,-4.8933,-4.9123,-4.8728,-4.8458,-4.8306,-4.8306,-4.8306,-4.8306,-4.8306,-4.8306,-4.8306,-4.8306,-4.8306,-4.8306,-4.8306,-4.8306,-4.8306,-4.8306,-4.8306,-4.8306,-4.8306,-4.7957,-4.7461,-4.6782,-4.6269,-4.5736,-4.5075,-4.4544,-4.4195,-4.4195,-4.3828,-4.3515,-4.3515,-4.3515,-4.3515,-4.3515,-4.3515,-4.3754,-4.4562,-4.5369,-4.6012,-4.6361,-4.6264,-4.6,-4.5603,-4.3989,-4.2498,-4.1543,-4.111,-4.0679,-4.0146,-4.0096,-4.0096,-4.0096,-4.0096,-4.0096,-4.0096,-4.0096,-4.0096,-4.0096,-4.0096,-4.0096,-4.0096,-4.0096,-4.0096,-4.0096,-4.0096,-4.0096,-4.3515,0.0,0.0,0.0,0.0,0.0,0.0,0.0,0.0,0.0,0.0,0.0,0.0,0.0,0.0,0.0,0.0,0.0,0.0,0.0,0.0,0.0,0.0,0.0,0.0,0.0,0.0,0.0,0.0,0.0,-4.5441,-4.6672,-4.762,-4.8287,-4.8306,-4.8306,-4.8306,-4.8306,-4.8306,-4.8306,-4.8306,-4.8513,-4.8891,-4.8477,-4.8513,-4.888,-4.8458,-4.8306,-4.8306,-4.8306,-4.8306,-4.8306,-4.8306,-4.8306,-4.8306,-4.8306,-4.8306,-4.8306,-4.8306,-4.8306,-4.8306,-4.8306,-4.8306,-4.8306,-4.8306,-4.7902,-4.7369,-4.7168,-4.6672,-4.6177,-4.5957,-4.548,-4.4984,-4.4746,-4.425,-4.3754,-4.3551,-4.3515,-4.3515,-4.3515,-4.3515,-4.3754,-4.4562,-4.5369,-4.5975,-4.6195,-4.6387,-4.6362,-4.5957,-4.4357,-4.2875,-4.1903,-4.1268,-4.0679,-4.0146,-4.0096,-4.0096,-4.0096,-4.0096,-4.0096,-4.0096,-4.0096,-4.0096,-4.0096,-4.0096,-4.0096,-4.0096,-4.0096,-4.0096,-4.0096,-4.0096,-4.0096,0.0,0.0,0.0,-4.1534,0.0,0.0,0.0,0.0,-3.9866,0.0,0.0,0.0,0.0,0.0,0.0,0.0,0.0,0.0,0.0,0.0,0.0,0.0,0.0,0.0,0.0,0.0,0.0,0.0,0.0,0.0,-4.5987,-4.6769,-4.7479,-4.8269,-4.8306,-4.8306,-4.8306,-4.8306,-4.8306,-4.8306,-4.8306,-4.8512,-4.8891,-4.8495,-4.8513,-4.888,-4.8458,-4.8306,-4.8306,-4.8306,-4.8306,-4.8306,-4.8306,-4.8306,-4.8306,-4.8306,-4.8306,-4.8306,-4.8306,-4.8306,-4.8306,-4.8306,-4.8306,-4.8306,-4.8306,-4.8288,-4.8104,-4.7314,-4.7076,-4.6874,-4.6104,-4.5883,-4.5663,-4.4892,-4.4673,-4.4452,-4.3663,-4.3515,-4.3515,-4.3515,-4.3515,-4.3754,-4.4562,-4.5369,-4.6159,-4.6947,-4.7057,-4.6782,-4.5993,-4.4705,-4.3342,-4.1945,-4.1268,-4.0679,-4.0146,-4.0096,-4.0096,-4.0096,-4.0096,-4.0096,-4.0096,-4.0096,-4.0096,-4.0096,-4.0096,-4.0096,-4.0096,-4.0096,-4.0096,-4.0096,-4.0096,-4.0096,0.0,0.0,-4.324,-4.2164,0.0,0.0,0.0,0.0,0.0,0.0,0.0,0.0,0.0,0.0,0.0,0.0,0.0,0.0,0.0,0.0,0.0,0.0,0.0,0.0,0.0,0.0,0.0,0.0,0.0,0.0,0.0,-4.6206,-4.7223,-4.7498,-4.8012,-4.8306,-4.8306,-4.8306,-4.8306,-4.8306,-4.8306,-4.8365,-4.8494,-4.8364,-4.8383,-4.8495,-4.8364,-4.8306,-4.8306,-4.8306,-4.8306,-4.8306,-4.8306,-4.8306,-4.8306,-4.8306,-4.8306,-4.8306,-4.8306,-4.8306,-4.8306,-4.8306,-4.8306,-4.8306,-4.8306,-4.8306,-4.8251,-4.7957,-4.7902,-4.7828,-4.7572,-4.7095,-4.6489,-4.57,-4.5094,-4.4488,-4.3663,-4.3515,-4.3515,-4.3515,-4.3515,-4.3754,-4.4562,-4.4947,-4.5571,-4.6892,-4.7553,-4.7274,-4.5597,-4.5273,-4.4198,-4.148,-4.138,-4.1127,-4.0196,-4.0096,-4.0096,-4.0096,-4.0096,-4.0096,-4.0096,-4.0096,-4.0096,-4.0096,-4.0096,-4.0096,-4.0096,-4.0096,-4.0096,-4.0096,-4.0096,-4.0096,-4.3515,-4.3515,0.0,-4.2514,-4.1523,0.0,-3.9745,0.0,0.0,0.0,0.0,0.0,0.0,0.0,0.0,0.0,0.0,0.0,0.0,0.0,0.0,0.0,0.0,0.0,0.0,0.0,-3.8845,-4.074,0.0,0.0,0.0,0.0,-4.6801,-4.7094,-4.7865,-4.8306,-4.8306,-4.8306,-4.8306,-4.8306,-4.8306,-4.8306,-4.8306,-4.8306,-4.8306,-4.8306,-4.8306,-4.8306,-4.8306,-4.8306,-4.8306,-4.8306,-4.8306,-4.8306,-4.8306,-4.8306,-4.8306,-4.8306,-4.8306,-4.8306,-4.8306,-4.8306,-4.8306,-4.8306,-4.8306,-4.8306,-4.8306,-4.8306,-4.8306,-4.8306,-4.8306,-4.7921,-4.7314,-4.6526,-4.5718,-4.4911,-4.4103,-4.3699,-4.3515,-4.3515,-4.3515,-4.3754,-4.4562,-4.4691,-4.5168,-4.647,-4.6943,-4.6547,-4.4887,-4.4626,-4.3656,-4.1163,-4.1082,-4.0908,-4.0171,-4.0096,-4.0096,-4.0096,-4.0096,-4.0096,-4.0096,-4.0096,-4.0096,-4.0096,-4.0096,-4.0096,-4.0096,-4.0096,-4.0096,-4.0096,-4.0096,-4.0096]},{"header":{"parameterUnit":"m.s-1","parameterCategory":1,"la1":30.6,"la2":29.2853,"lo1":-89.7004,"lo2":-87.6739,"dy":0.0162,"dx":0.0183,"nx":112,"ny":82,"refTime":"2026-04-29T12:00:00:Z","depth":0,"parameterNumber":3,"parameterNumberName":"V-component_of_WINDS"},"data":[0.0,0.0,0.0,0.0,0.0,0.0,0.0,0.0,0.0,0.0,0.0,0.0,0.0,0.0,0.0,0.0,0.0,0.0,0.0,0.0,0.0,0.0,0.0,0.0,0.0,0.0,0.0,0.0,0.0,0.0,0.0,0.0,0.0,0.0,0.0,0.0,0.0,0.0,0.0,0.0,0.0,0.0,0.0,0.0,0.0,0.0,0.0,0.0,0.0,0.0,0.0,0.0,0.0,0.0,0.0,0.0,0.0,0.0,0.0,0.0,0.0,0.0,0.0,0.0,0.0,0.0,0.0,0.0,0.0,0.0,0.0,0.0,0.0,0.0,0.0,0.0,0.0,0.0,0.0,0.0,0.0,0.0,0.0,0.0,0.0,0.0,0.0,0.0,0.0,0.0,-1.7004,-1.9391,-2.1437,-2.2209,-2.1176,-2.1096,-2.0692,-1.9742,0.0,0.0,0.0,0.0,0.0,0.0,0.0,0.0,0.0,0.0,0.0,0.0,0.0,0.0,0.0,0.0,0.0,0.0,0.0,0.0,0.0,0.0,0.0,0.0,0.0,0.0,0.0,0.0,0.0,0.0,0.0,0.0,0.0,0.0,0.0,0.0,0.0,0.0,0.0,0.0,0.0,0.0,0.0,0.0,0.0,0.0,0.0,0.0,0.0,0.0,0.0,0.0,0.0,0.0,0.0,0.0,0.0,0.0,0.0,0.0,0.0,0.0,0.0,0.0,0.0,0.0,0.0,0.0,0.0,0.0,0.0,0.0,0.0,0.0,0.0,0.0,0.0,0.0,0.0,0.0,0.0,0.0,0.0,0.0,0.0,0.0,0.0,0.0,0.0,0.0,0.0,0.0,0.0,0.0,0.0,0.0,0.0,0.0,0.0,0.0,0.0,0.0,0.0,0.0,-1.825,-2.0563,-2.1171,-2.1286,-2.1102,-2.1099,-2.1019,-2.084,0.0,0.0,0.0,0.0,0.0,0.0,0.0,0.0,0.0,0.0,0.0,0.0,0.0,0.0,0.0,0.0,0.0,0.0,0.0,0.0,0.0,0.0,0.0,0.0,0.0,0.0,0.0,0.0,0.0,0.0,0.0,0.0,0.0,0.0,0.0,0.0,0.0,0.0,0.0,0.0,0.0,0.0,0.0,0.0,0.0,0.0,0.0,0.0,0.0,0.0,0.0,0.0,0.0,0.0,0.0,0.0,0.0,0.0,0.0,0.0,0.0,0.0,0.0,0.0,0.0,0.0,0.0,0.0,0.0,0.0,0.0,0.0,0.0,0.0,0.0,0.0,0.0,0.0,0.0,0.0,0.0,0.0,0.0,0.0,0.0,0.0,0.0,0.0,0.0,0.0,0.0,0.0,0.0,0.0,0.0,0.0,0.0,0.0,0.0,0.0,0.0,0.0,0.0,-2.1255,-1.9933,-2.0978,-2.1109,-2.1092,-2.1085,-2.1132,-2.1071,-2.1117,-2.2371,0.0,0.0,0.0,0.0,0.0,0.0,0.0,0.0,0.0,0.0,0.0,0.0,0.0,0.0,0.0,0.0,0.0,0.0,0.0,0.0,0.0,0.0,0.0,0.0,0.0,0.0,0.0,0.0,0.0,0.0,0.0,0.0,0.0,0.0,0.0,0.0,0.0,0.0,0.0,0.0,0.0,0.0,0.0,0.0,0.0,0.0,0.0,0.0,0.0,0.0,0.0,0.0,0.0,0.0,0.0,0.0,0.0,0.0,0.0,0.0,0.0,0.0,0.0,0.0,0.0,0.0,0.0,0.0,0.0,0.0,0.0,0.0,0.0,0.0,0.0,0.0,0.0,0.0,0.0,0.0,0.0,0.0,0.0,0.0,0.0,0.0,0.0,0.0,0.0,0.0,0.0,0.0,0.0,0.0,0.0,0.0,0.0,0.0,0.0,0.0,0.0,0.0,-2.1541,-2.0795,-2.1052,-2.1109,-2.1109,-2.1109,-2.113,-2.1121,-2.111,-2.238,0.0,0.0,0.0,0.0,0.0,0.0,0.0,0.0,0.0,0.0,0.0,0.0,0.0,0.0,0.0,0.0,0.0,0.0,0.0,0.0,0.0,0.0,0.0,0.0,0.0,0.0,0.0,0.0,0.0,0.0,0.0,0.0,0.0,0.0,0.0,0.0,0.0,0.0,0.0,0.0,0.0,0.0,0.0,0.0,0.0,0.0,0.0,0.0,0.0,0.0,0.0,0.0,0.0,0.0,0.0,0.0,0.0,0.0,0.0,0.0,0.0,0.0,0.0,0.0,0.0,0.0,0.0,0.0,0.0,0.0,0.0,0.0,0.0,0.0,0.0,0.0,0.0,0.0,0.0,0.0,0.0,0.0,0.0,0.0,0.0,0.0,0.0,0.0,0.0,0.0,0.0,0.0,0.0,0.0,0.0,0.0,0.0,0.0,0.0,0.0,0.0,0.0,-1.9618,-1.9913,-2.0972,-2.1109,-2.1109,-2.1109,-2.112,-2.1104,-2.1079,-2.2383,0.0,0.0,0.0,0.0,0.0,0.0,0.0,0.0,0.0,0.0,0.0,0.0,0.0,0.0,0.0,0.0,0.0,0.0,0.0,0.0,0.0,0.0,0.0,0.0,0.0,0.0,0.0,0.0,0.0,0.0,0.0,0.0,0.0,0.0,0.0,0.0,0.0,0.0,0.0,0.0,0.0,0.0,0.0,0.0,0.0,0.0,0.0,0.0,0.0,0.0,0.0,0.0,0.0,0.0,0.0,0.0,0.0,0.0,0.0,0.0,0.0,0.0,0.0,0.0,0.0,0.0,0.0,0.0,0.0,0.0,0.0,0.0,0.0,0.0,0.0,0.0,0.0,0.0,0.0,0.0,0.0,0.0,0.0,0.0,0.0,0.0,0.0,0.0,0.0,0.0,0.0,0.0,0.0,0.0,0.0,0.0,0.0,0.0,0.0,0.0,0.0,0.0,-2.102,-2.0602,0.0,-2.1101,-2.1074,-2.1096,-2.1093,-2.0139,-1.7949,0.0,0.0,0.0,0.0,0.0,0.0,0.0,0.0,0.0,0.0,0.0,0.0,0.0,0.0,0.0,0.0,0.0,0.0,0.0,0.0,0.0,0.0,0.0,0.0,0.0,0.0,0.0,0.0,0.0,0.0,0.0,0.0,0.0,0.0,0.0,0.0,0.0,0.0,0.0,0.0,0.0,0.0,0.0,0.0,0.0,0.0,0.0,0.0,0.0,0.0,0.0,0.0,0.0,0.0,0.0,0.0,0.0,0.0,0.0,0.0,0.0,0.0,0.0,0.0,0.0,0.0,0.0,0.0,0.0,0.0,0.0,0.0,0.0,0.0,0.0,0.0,0.0,0.0,0.0,0.0,0.0,0.0,0.0,0.0,0.0,0.0,0.0,0.0,0.0,0.0,0.0,0.0,0.0,0.0,0.0,0.0,0.0,0.0,0.0,0.0,0.0,0.0,-2.3121,-2.1943,-2.1085,0.0,-2.1086,-2.192,-2.4003,-2.2325,-2.0742,-1.9819,0.0,0.0,0.0,0.0,0.0,0.0,0.0,0.0,0.0,0.0,0.0,0.0,0.0,0.0,0.0,0.0,0.0,0.0,0.0,0.0,0.0,0.0,0.0,0.0,0.0,0.0,0.0,0.0,0.0,0.0,0.0,0.0,0.0,0.0,0.0,0.0,0.0,0.0,0.0,0.0,0.0,0.0,0.0,0.0,0.0,0.0,0.0,0.0,0.0,0.0,0.0,0.0,0.0,0.0,0.0,0.0,0.0,0.0,0.0,0.0,0.0,0.0,0.0,0.0,0.0,0.0,0.0,0.0,0.0,0.0,0.0,0.0,0.0,0.0,0.0,0.0,0.0,0.0,0.0,0.0,0.0,0.0,0.0,0.0,0.0,0.0,0.0,0.0,0.0,0.0,0.0,0.0,0.0,0.0,0.0,0.0,0.0,0.0,0.0,0.0,0.0,0.0,-2.3154,-2.1966,-2.1116,-2.1177,-2.121,-2.3855,-3.0321,-2.4968,-2.3219,0.0,0.0,0.0,0.0,0.0,0.0,0.0,0.0,0.0,0.0,0.0,0.0,0.0,0.0,0.0,0.0,0.0,0.0,0.0,0.0,0.0,0.0,0.0,0.0,0.0,0.0,0.0,0.0,0.0,0.0,0.0,0.0,0.0,0.0,0.0,0.0,0.0,0.0,0.0,0.0,0.0,0.0,0.0,0.0,0.0,0.0,0.0,0.0,0.0,0.0,0.0,0.0,0.0,0.0,0.0,0.0,0.0,0.0,0.0,0.0,0.0,0.0,0.0,0.0,0.0,0.0,0.0,0.0,0.0,0.0,0.0,0.0,0.0,0.0,0.0,0.0,0.0,0.0,0.0,0.0,0.0,0.0,0.0,0.0,0.0,0.0,0.0,0.0,0.0,0.0,0.0,0.0,0.0,0.0,0.0,0.0,0.0,0.0,0.0,0.0,0.0,0.0,0.0,-2.6461,-2.3439,-2.2881,-2.7539,-2.7989,-2.8814,-3.0749,-2.9117,-2.8077,-2.8309,0.0,0.0,0.0,0.0,0.0,0.0,0.0,0.0,0.0,0.0,0.0,0.0,0.0,0.0,0.0,0.0,0.0,0.0,0.0,0.0,0.0,0.0,0.0,0.0,0.0,0.0,0.0,0.0,0.0,0.0,0.0,0.0,0.0,0.0,0.0,0.0,0.0,0.0,0.0,0.0,0.0,0.0,0.0,0.0,0.0,0.0,0.0,0.0,0.0,0.0,0.0,0.0,0.0,0.0,0.0,0.0,0.0,0.0,0.0,0.0,0.0,0.0,0.0,0.0,0.0,0.0,0.0,0.0,0.0,0.0,0.0,0.0,0.0,0.0,0.0,0.0,0.0,0.0,0.0,0.0,0.0,0.0,0.0,0.0,0.0,0.0,0.0,0.0,0.0,0.0,0.0,0.0,0.0,0.0,0.0,0.0,0.0,0.0,0.0,0.0,0.0,0.0,-2.7859,-2.6381,-2.6542,-3.0458,-3.0877,-3.0908,-3.0908,-3.024,-2.9144,-2.7371,0.0,0.0,0.0,0.0,0.0,0.0,0.0,0.0,0.0,0.0,0.0,0.0,0.0,0.0,0.0,0.0,0.0,0.0,0.0,0.0,0.0,0.0,0.0,0.0,0.0,0.0,0.0,0.0,0.0,0.0,0.0,0.0,0.0,0.0,0.0,0.0,0.0,0.0,0.0,0.0,0.0,0.0,0.0,0.0,0.0,0.0,0.0,0.0,0.0,0.0,0.0,0.0,0.0,0.0,0.0,0.0,0.0,0.0,0.0,0.0,0.0,0.0,0.0,0.0,0.0,0.0,0.0,0.0,0.0,0.0,0.0,0.0,0.0,0.0,0.0,0.0,0.0,0.0,0.0,0.0,0.0,0.0,0.0,0.0,0.0,0.0,0.0,0.0,0.0,0.0,0.0,0.0,0.0,0.0,0.0,0.0,0.0,0.0,0.0,0.0,0.0,0.0,-2.7834,-2.9678,-3.0727,-3.0897,-3.092,-3.0816,-3.068,-2.9233,-2.7581,-2.5791,0.0,0.0,0.0,0.0,0.0,0.0,0.0,0.0,0.0,0.0,0.0,0.0,0.0,0.0,0.0,0.0,0.0,0.0,0.0,0.0,0.0,0.0,0.0,0.0,0.0,0.0,0.0,0.0,0.0,0.0,0.0,0.0,0.0,0.0,0.0,0.0,0.0,0.0,0.0,0.0,0.0,0.0,0.0,0.0,0.0,0.0,0.0,0.0,0.0,0.0,0.0,0.0,0.0,0.0,0.0,0.0,0.0,0.0,0.0,0.0,-1.2581,0.0,0.0,0.0,0.0,0.0,0.0,0.0,0.0,0.0,0.0,0.0,0.0,0.0,0.0,0.0,0.0,0.0,0.0,0.0,0.0,0.0,0.0,0.0,0.0,0.0,0.0,0.0,0.0,0.0,0.0,0.0,0.0,0.0,0.0,0.0,0.0,0.0,0.0,0.0,0.0,0.0,-2.7832,-2.8642,-2.9398,-3.0764,-3.0896,-3.0316,-2.8995,-2.854,-2.7552,-2.583,-2.3734,0.0,0.0,0.0,0.0,0.0,0.0,0.0,0.0,0.0,0.0,0.0,0.0,0.0,0.0,0.0,0.0,0.0,0.0,0.0,0.0,0.0,0.0,0.0,0.0,0.0,0.0,0.0,0.0,0.0,0.0,0.0,0.0,0.0,0.0,0.0,0.0,0.0,0.0,0.0,0.0,0.0,0.0,0.0,0.0,0.0,0.0,0.0,0.0,0.0,0.0,0.0,0.0,0.0,0.0,0.0,0.0,0.0,0.0,0.0,0.0,-1.2972,0.0,0.0,0.0,0.0,0.0,0.0,0.0,0.0,0.0,0.0,0.0,0.0,0.0,0.0,0.0,0.0,0.0,0.0,0.0,0.0,0.0,0.0,0.0,0.0,0.0,0.0,0.0,0.0,0.0,0.0,0.0,0.0,0.0,0.0,0.0,0.0,0.0,0.0,0.0,0.0,-2.777,-2.8277,-2.8641,-2.9573,-2.9632,-2.9296,-2.8368,-2.8328,-2.757,-2.582,-2.4836,0.0,0.0,0.0,0.0,0.0,0.0,0.0,0.0,0.0,0.0,0.0,0.0,0.0,0.0,0.0,0.0,0.0,0.0,0.0,0.0,0.0,0.0,0.0,0.0,0.0,0.0,0.0,0.0,0.0,0.0,0.0,0.0,0.0,0.0,0.0,0.0,0.0,0.0,0.0,0.0,0.0,0.0,0.0,0.0,0.0,0.0,0.0,0.0,0.0,0.0,0.0,0.0,0.0,-1.0578,-1.0721,-1.0724,-1.0855,-1.0914,-1.0887,-1.0385,-1.1838,-1.4567,0.0,0.0,0.0,0.0,0.0,0.0,0.0,0.0,0.0,0.0,0.0,0.0,0.0,0.0,0.0,0.0,0.0,0.0,0.0,0.0,0.0,0.0,0.0,0.0,0.0,-1.8264,-1.853,0.0,0.0,0.0,0.0,0.0,0.0,0.0,0.0,0.0,0.0,0.0,0.0,-2.7237,-2.8114,-2.8286,-2.828,-2.83,-2.831,-2.8314,-2.8038,-2.7221,-2.5781,-2.5688,-2.4425,0.0,0.0,0.0,0.0,0.0,0.0,0.0,0.0,0.0,0.0,0.0,0.0,0.0,0.0,0.0,0.0,0.0,0.0,0.0,0.0,0.0,0.0,0.0,0.0,0.0,0.0,0.0,0.0,0.0,0.0,0.0,0.0,-0.0053,-0.0216,0.0,0.0,0.0,0.0,0.0,0.0,0.0,0.0,0.0,0.0,0.0,0.0,0.0,-1.011,-1.0388,-1.0945,-1.1113,-1.1063,-1.1614,-1.1769,-1.1475,-1.1613,-1.1684,-1.1681,-1.1599,0.0,-1.3157,-1.5542,0.0,0.0,0.0,0.0,0.0,0.0,0.0,0.0,0.0,0.0,0.0,0.0,0.0,0.0,0.0,0.0,0.0,0.0,0.0,0.0,0.0,0.0,-1.9065,-1.8741,-1.8957,-1.9144,0.0,-1.9623,-2.0483,-2.0377,-2.1341,0.0,0.0,0.0,0.0,0.0,0.0,0.0,-2.5574,-2.738,-2.8317,-2.8306,-2.8306,-2.8296,-2.8297,-2.6888,-2.595,-2.5716,-2.57,-2.5523,-2.5037,-2.3569,0.0,0.0,0.0,0.0,0.0,0.0,0.0,0.0,0.0,0.0,0.0,0.0,0.0,0.0,0.0,0.0,0.0,0.0,0.0,0.0,0.0,0.0,0.0,0.0,0.0,0.0,0.0,0.0,0.0,0.0,-0.0274,-0.1039,-0.0446,-0.0611,0.0,0.0,0.0,0.0,0.0,0.0,0.0,0.0,0.0,-1.0443,-1.0599,-1.0864,-1.1245,-1.1457,-1.1636,-1.1725,-1.2024,-1.2139,-1.2014,-1.2059,-1.2088,-1.2084,-1.1996,-1.2045,-1.244,-1.5298,-1.6721,-1.7192,0.0,0.0,0.0,0.0,-1.8678,-1.891,-1.9015,-1.9058,0.0,0.0,0.0,0.0,0.0,0.0,0.0,0.0,0.0,0.0,0.0,0.0,0.0,-1.8997,-1.9249,-1.9334,-1.9172,-1.9974,-2.1246,0.0,-2.4203,-2.433,-2.2355,0.0,0.0,0.0,0.0,-2.0551,-2.5119,-2.6377,-2.6828,-2.6851,-2.682,-2.6853,-2.6829,-2.6156,-2.5687,-2.5711,-2.5682,-2.569,-2.5678,-2.4982,-2.3757,0.0,0.0,0.0,0.0,0.0,0.0,0.0,0.0,0.0,0.0,0.0,0.0,0.0,0.0,0.0,0.0,0.0,0.0,0.0,0.0,0.0,0.0,0.0,0.0,0.0,0.0,0.0,0.0,0.0,-0.0396,-0.1346,-0.0584,-0.0996,0.0,0.0,0.0,0.0,0.0,0.0,-1.0092,-1.0419,-1.0751,-1.1093,-1.1318,-1.1586,-1.1918,-1.1969,-1.2067,-1.2182,-1.2263,-1.2343,-1.234,-1.2313,-1.2345,-1.2338,-1.2223,-1.2088,-1.2129,-1.5028,-1.6742,-1.7654,-1.9261,-1.9614,-1.9291,-1.9421,-1.9467,-1.9548,-2.0193,-2.0314,-2.01,-1.988,0.0,-1.8858,-1.7896,0.0,0.0,0.0,0.0,-1.7266,-1.7714,-1.7963,-1.8314,-1.9194,-1.9424,-1.9377,-1.9411,-1.9928,-2.1056,0.0,-2.4734,-2.478,-2.2163,0.0,0.0,0.0,0.0,-2.1144,-2.5198,-2.5691,-2.5685,-2.5724,-2.5702,-2.5698,-2.5718,-2.5698,-2.5691,-2.5703,-2.5693,-2.5722,-2.5696,-2.5575,-2.4766,-2.3156,0.0,0.0,0.0,0.0,0.0,0.0,0.0,0.0,0.0,0.0,0.0,0.0,0.0,0.0,0.0,0.0,0.0,0.0,0.0,0.0,0.0,0.0,0.0,0.0,0.0,0.0,0.0,0.0,0.0,-0.012,-0.0062,0.0,0.0,0.0,0.0,-0.7663,-0.8223,-0.9243,-1.1005,-1.125,-1.1474,-1.1775,-1.1935,-1.2142,-1.2251,-1.2362,-1.2471,-1.2501,-1.2501,-1.2501,-1.2501,-1.2494,-1.2491,-1.2491,-1.2481,-1.24,-1.2519,-1.5363,-1.6543,-1.6748,-1.9817,-2.0793,-2.0502,-2.0856,-2.0965,-2.1016,-2.1072,-2.1056,-2.1042,-2.1029,-2.0261,-1.9279,-1.8875,-1.793,0.0,0.0,-1.7544,-1.7704,-1.8314,-1.8856,-1.9325,-1.9417,-1.9424,-1.9424,-1.941,-1.9176,-1.8783,0.0,-2.0168,-2.1107,-1.8325,0.0,-1.9236,-2.433,-2.5246,-2.5382,-2.565,-2.5712,-2.5723,-2.5684,-2.5684,-2.5684,-2.5713,-2.5713,-2.5703,-2.5693,-2.5693,-2.5684,-2.5713,-2.5206,-2.4375,-2.3211,-2.2242,0.0,0.0,0.0,0.0,0.0,0.0,0.0,0.0,0.0,0.0,0.0,0.0,0.0,0.0,0.0,0.0,0.0,0.0,0.0,0.0,0.0,0.0,0.0,0.0,0.0,0.0,0.0,0.0,0.0,0.0,0.0,-0.4146,-0.5388,-0.7131,-0.9882,-1.0356,-1.083,-1.1579,-1.1918,-1.2155,-1.226,-1.2508,-1.2705,-1.2749,-1.269,-1.2647,-1.2613,-1.2562,-1.2501,-1.2501,-1.2501,-1.2501,-1.2501,-1.2501,-1.242,-1.2574,-1.6076,-1.7252,-1.7113,-2.0609,-2.1758,-2.1455,-2.1599,-2.1665,-2.1666,-2.1704,-2.155,-2.1329,-2.0955,-2.022,-1.9358,-1.9252,-1.8616,-1.7938,-1.7664,-1.8154,-1.8829,-1.9004,-1.9231,-1.9424,-1.9424,-1.9424,-1.9424,-1.9424,-1.9285,-1.9011,-1.833,-1.8642,-1.8736,-1.7789,-1.761,-1.8246,-2.0173,-2.2015,-2.3141,-2.314,-2.4607,-2.5053,-2.3302,-2.3134,-2.383,-2.5554,-2.5691,-2.5722,-2.5693,-2.5693,-2.5547,-2.5188,-2.5012,-2.4479,-2.3615,-2.274,-2.1435,0.0,0.0,0.0,0.0,0.0,0.0,0.0,0.0,0.0,0.0,0.0,0.0,0.0,0.0,0.0,0.0,0.0,0.0,0.0,0.0,0.0,0.0,0.0,0.0,0.0,0.0,0.0,0.0,-0.0835,-0.2473,-0.5284,-0.7157,-0.9155,-1.1392,-1.1775,-1.2003,-1.2203,-1.2494,-1.2657,-1.2657,-1.2854,-1.3009,-1.302,-1.2883,-1.2777,-1.2697,-1.264,-1.2552,-1.2501,-1.2501,-1.2501,-1.2501,-1.2501,-1.2447,-1.2658,-1.6482,-1.7784,-1.7587,-2.1289,-2.2545,-2.2278,-2.2278,-2.2278,-2.2265,-2.2164,-2.201,-2.1753,-2.1052,-2.0431,-1.996,-1.996,-1.9421,-1.88,-1.88,-1.9343,-1.986,-1.949,-1.9391,-1.9421,-1.9386,-1.9424,-1.9424,-1.9424,-1.9424,-1.9192,-1.8604,-1.8145,-1.7782,-1.7629,-1.7592,-1.7627,-1.7591,-1.9155,-2.0347,-2.0311,-2.1845,-2.2659,-2.1803,-2.1695,-2.2434,-2.4198,-2.5174,-2.5625,-2.546,-2.5583,-2.5472,-2.492,-2.4773,-2.4362,-2.3594,-2.2441,-2.1143,-1.9697,0.0,0.0,0.0,0.0,0.0,0.0,0.0,0.0,0.0,0.0,0.0,0.0,0.0,0.0,0.0,0.0,0.0,0.0,0.0,0.0,0.0,0.0,0.0,0.0,-0.0065,-0.0136,-0.0138,-0.245,-0.4558,-0.5803,-0.7965,-1.0116,-1.2136,-1.2437,-1.2647,-1.2946,-1.2966,-1.305,-1.305,-1.2973,-1.2976,-1.2976,-1.2969,-1.2891,-1.2735,-1.2732,-1.2651,-1.2501,-1.2501,-1.2501,-1.2501,-1.2501,-1.2501,-1.2797,-1.6542,-1.797,-1.8035,-2.1851,-2.314,-2.2928,-2.2928,-2.2928,-2.2819,-2.2444,-2.2305,-2.2161,-2.1351,-2.1086,-2.1107,-2.1107,-2.0345,-1.9709,-2.0814,-2.1078,-2.0792,-1.9688,-1.9397,-1.9384,-1.9426,-1.9424,-1.9424,-1.9424,-1.9424,-1.9192,-1.8604,-1.836,-1.8106,-1.7682,-1.7582,-1.762,-1.7594,-1.7612,0.0,-1.7581,-1.7648,-1.8644,-2.1281,-2.1578,-2.1644,-2.1694,-2.4016,-2.5326,-2.4935,-2.5395,-2.5456,-2.4901,-2.455,-2.3994,-2.3198,-2.1505,-2.0214,-1.9389,0.0,0.0,0.0,0.0,0.0,0.0,0.0,0.0,0.0,0.0,0.0,0.0,0.0,0.0,0.0,0.0,0.0,0.0,0.0,0.0,0.0,0.0,0.0,0.0,-0.1765,-0.3056,-0.3009,-0.195,-0.3124,-0.8101,-1.0589,-1.2203,-1.2766,-1.2813,-1.2871,-1.3036,-1.3057,-1.3115,-1.3115,-1.322,-1.3278,-1.3278,-1.3169,-1.3041,-1.2895,-1.2783,-1.2651,-1.2501,-1.2501,-1.2501,-1.2501,-1.2501,-1.2501,-1.2804,-1.6844,-1.8125,-1.8086,-2.1863,-2.314,-2.2928,-2.2928,-2.2928,-2.2819,-2.2444,-2.2458,-2.2538,-2.1494,-2.1085,-2.1128,-2.1128,-2.0866,-2.0723,-2.1014,-2.0493,-1.9871,-1.9792,-1.9595,-1.9394,-1.9386,-1.9424,-1.9424,-1.9424,-1.9424,-1.9192,-1.8604,-1.8484,-1.8235,-1.7689,-1.7582,-1.7615,-1.7613,-1.7607,0.0,-1.7578,-1.8433,-1.8898,-1.8482,-1.9325,-2.0277,-2.1255,-2.132,-2.2536,-2.5317,-2.5049,-2.4686,-2.4555,-2.445,-2.372,-2.2298,-2.1783,-2.1408,0.0,0.0,0.0,0.0,0.0,0.0,0.0,0.0,0.0,0.0,0.0,0.0,0.0,0.0,0.0,0.0,0.0,0.0,0.0,0.0,0.0,0.0,-0.1773,-0.1985,-0.2577,-0.2506,-0.376,-0.7292,-0.622,-0.6377,-0.9288,-1.1552,-1.2923,-1.3034,-1.3051,-1.3078,-1.3142,-1.3224,-1.3268,-1.3268,-1.3356,-1.34,-1.34,-1.3312,-1.3166,-1.3039,-1.2871,-1.2712,-1.2501,-1.2501,-1.2501,0.0,-1.2501,-1.2501,-1.28,-1.6736,-1.8145,0.0,0.0,0.0,0.0,0.0,-2.2928,-2.2887,-2.2599,-2.2685,-2.2683,-2.1494,-2.1131,-2.1109,-2.1109,-2.1109,-2.1109,-2.1109,-2.0493,-1.9907,-1.9998,-1.9827,-1.9519,-1.9457,-1.9424,-1.9424,-1.9424,-1.9272,-1.9045,-1.8584,-1.839,0.0,-1.7662,-1.7582,-1.7582,-1.7582,-1.7582,-1.7582,-1.7582,-1.8297,-1.8383,-1.7452,-1.8715,-2.0004,-2.074,-2.1669,0.0,0.0,0.0,-2.386,-2.3859,-2.3844,0.0,0.0,0.0,0.0,0.0,0.0,0.0,0.0,-1.9689,-2.0446,0.0,0.0,0.0,0.0,0.0,0.0,0.0,0.0,0.0,0.0,0.0,0.0,0.0,0.0,0.0,0.0,-0.4711,-0.5588,-0.684,-0.3771,-0.417,-1.1594,-1.2501,-1.191,-1.0114,-1.1649,-1.2898,-1.3176,-1.32,-1.3258,-1.3393,0.0,0.0,0.0,0.0,-1.34,-1.34,-1.3383,-1.3234,-1.2963,-1.2942,-1.2783,-1.2501,-1.2501,-1.2501,-1.2501,-1.2501,-1.2501,-1.2793,-1.6312,-1.7917,-1.8385,-2.218,-2.3403,-2.2928,-2.2928,-2.2928,-2.2894,-2.2903,0.0,0.0,-2.1422,-2.1131,-2.1109,-2.1109,-2.1109,-2.1109,-2.1109,-2.0806,-2.0425,-2.024,-1.9993,-1.9686,-1.9491,-1.9424,-1.9424,-1.9424,-1.9132,-1.8838,-1.8551,-1.825,-1.7896,-1.7635,-1.7582,-1.7582,-1.7582,-1.7582,-1.7582,-1.7582,-1.7582,-1.7569,-1.7535,0.0,0.0,-1.9907,-2.2791,-2.4574,-2.4538,-2.3625,-2.3115,-2.3113,-2.308,-2.3078,-2.3091,-2.1627,-2.0887,-2.0891,-2.1336,-2.1578,-2.1578,-2.0216,-2.1528,0.0,0.0,0.0,0.0,0.0,0.0,0.0,0.0,0.0,0.0,0.0,0.0,0.0,0.0,0.0,-0.3769,-0.7964,-1.0958,-1.1236,-1.0565,-1.0714,-1.2276,-1.2705,-1.2756,-1.2416,-1.294,-1.3329,-1.3342,-1.3356,-1.337,-1.34,-1.34,0.0,-1.34,-1.34,-1.34,-1.34,-1.3278,-1.3129,-1.3039,0.0,0.0,-1.2501,-1.2501,-1.2501,-1.2501,-1.2501,-1.2501,-1.2642,-1.4884,-1.7473,-2.0166,-2.2294,-2.2993,-2.2928,-2.2928,-2.2928,-2.2894,-2.2903,-2.2231,-2.1418,-2.1201,-2.1131,-2.1109,-2.1109,-2.1109,0.0,-2.1109,-2.0584,-2.0037,-2.018,-1.9846,-1.9432,-1.9379,-1.9424,-1.9424,-1.9424,-1.9132,-1.8838,-1.8551,-1.825,-1.7896,-1.7635,-1.7582,-1.7582,-1.7582,-1.7582,-1.7582,-1.7582,-1.7582,-1.7488,-1.7138,-1.7427,-1.7571,-1.7421,-1.7588,-1.994,-2.5139,-2.3994,-2.31,-2.3113,-2.3083,-2.3116,-2.3088,-2.2787,-2.2619,-2.261,-2.2713,-2.278,-2.2767,-2.1811,-2.2162,0.0,0.0,0.0,0.0,0.0,0.0,0.0,0.0,0.0,0.0,0.0,-0.2352,-0.158,0.0,-0.1162,-0.4714,-0.7547,-1.0117,-1.2229,-1.2464,-1.2508,-1.2525,-1.2661,-1.2787,-1.3019,-1.3108,-1.3244,-1.3383,-1.34,-1.34,-1.34,-1.34,-1.34,-1.34,-1.34,-1.3363,-1.3288,-1.321,-1.3064,-1.2844,-1.2766,-1.2651,-1.2501,-1.2501,-1.2501,-1.2501,-1.2501,-1.2461,-1.2616,-1.5311,-1.7973,-2.0477,-2.2205,-2.2928,-2.2928,-2.2928,-2.2928,-2.2874,-2.2888,-2.2111,-2.1096,-2.1108,-2.1089,-2.1109,-2.1109,-2.1109,-2.1109,-2.1109,-2.0613,-2.0099,-2.0167,-1.9806,-1.9424,-1.9424,-1.9424,-1.9424,-1.9424,-1.9018,-1.8664,-1.8517,-1.8123,-1.7762,-1.7609,-1.7582,-1.7582,-1.7582,-1.7582,-1.7582,-1.7582,-1.7582,-1.7522,-1.7316,-1.732,-1.7286,-1.7155,-1.9369,-2.1781,-2.422,-2.358,-2.3101,-2.3083,-2.31,-2.311,-2.3116,-2.3116,-2.308,-2.3093,-2.3093,-2.3087,-2.3116,-2.2948,-2.3351,0.0,0.0,0.0,0.0,0.0,0.0,0.0,0.0,-0.7797,-0.8111,-0.5841,-0.3655,-0.303,-0.1669,-0.172,-0.5114,-0.6063,-0.7629,-1.1386,-1.2266,-1.2501,-1.2501,-1.2528,-1.2654,-1.2932,-1.2986,-1.3112,-1.338,-1.34,-1.34,-1.34,-1.34,-1.34,-1.34,-1.3373,-1.3298,-1.3173,-1.3115,-1.2966,-1.2729,-1.2701,-1.262,-1.2501,-1.2501,-1.2501,-1.2501,-1.2501,-1.2393,-1.2519,-1.6036,-1.8264,-1.9743,-2.2033,-2.2928,-2.2928,-2.2928,-2.2928,-2.2854,-2.2791,-2.1984,-2.1077,-2.1085,-2.1109,-2.1109,-2.1109,-2.1109,-2.1096,-2.1042,-2.0641,-2.0221,-2.0167,-1.976,-1.9424,-1.9424,-1.9424,-1.9424,-1.9424,-1.8905,-1.849,-1.849,-1.8003,-1.7582,-1.7582,-1.7582,-1.7582,-1.7582,-1.7582,-1.7582,-1.7582,-1.7582,-1.7582,-1.7582,-1.7918,-1.8423,-1.9114,-2.303,-2.4851,-2.3464,-2.3174,-2.3098,-2.3101,-2.3091,-2.3091,-2.3091,-2.3091,-2.3091,-2.3091,-2.3091,-2.314,-2.3227,-2.3711,-2.4391,-0.9094,-0.8345,-0.8511,-0.8798,-0.8879,-0.9026,0.0,0.0,-0.9893,-1.029,-0.9013,-0.6854,-0.3527,-0.2823,-0.2898,-0.3357,-0.5062,-0.7091,-0.9436,-1.1327,-1.2501,-1.2501,-1.2623,-1.2773,-1.2779,-1.3074,-1.3217,-1.339,-1.34,-1.34,-1.34,-1.34,-1.34,-1.34,-1.3268,-1.319,-1.3173,-1.2912,-1.2762,-1.2729,-1.2593,-1.2518,-1.2501,-1.2501,-1.2501,-1.2501,-1.2343,-1.2139,-1.2184,-1.592,-1.7513,-1.7863,-2.1515,-2.2928,-2.2928,-2.2928,-2.2928,-2.2847,-2.2264,-2.1681,-2.1077,-2.1085,-2.1109,-2.1109,-2.1109,-2.1109,-2.1056,-2.0802,-2.0488,-2.0174,-1.9913,-1.9606,-1.9424,-1.9424,-1.9424,-1.9424,-1.9424,-1.8905,-1.849,-1.849,-1.8003,-1.7582,-1.7582,-1.7582,-1.7582,-1.7582,-1.7582,-1.7582,-1.7582,-1.7582,-1.7582,-1.7582,-1.9049,-2.1315,-2.4494,-2.4631,-2.4473,-2.4246,-2.3543,-2.3086,-2.3091,-2.3091,-2.3091,-2.3091,-2.3091,-2.3091,-2.3091,-2.3091,-2.3296,-2.3721,-2.415,-2.4392,-0.9373,-0.6165,-0.4498,-0.8423,-0.9545,-0.9767,-1.0037,-1.0254,-1.0541,-1.091,-1.0591,-0.9912,-0.8512,-0.6474,-0.4703,0.0,-0.6169,-0.8854,-1.0928,-1.1953,-1.2471,-1.2309,-1.2508,-1.2695,-1.2935,-1.3013,-1.3149,-1.3383,-1.34,-1.34,-1.34,-1.34,-1.3363,-1.3439,-1.3374,-1.3172,-1.2998,-1.2876,-1.277,-1.2596,-1.2532,-1.2501,-1.2501,-1.2501,-1.2457,-1.2372,-1.2208,-1.2043,-1.1985,-1.4629,-1.6311,-1.7451,-2.0196,-2.1966,-2.2928,-2.2928,-2.2746,-2.2539,-2.2277,-2.1719,-2.1078,-2.1102,-2.1109,-2.1109,-2.1109,-2.1109,-2.1049,-2.0968,-2.0468,-2.0026,-1.988,-1.9645,-1.9424,-1.9424,-1.9424,-1.9377,-1.9145,-1.8784,-1.8437,-1.8263,-1.7883,-1.7582,-1.7582,-1.7582,-1.7582,-1.7582,-1.7582,-1.7582,-1.7582,-1.7582,-1.8014,-1.9045,-2.172,-2.4047,-2.5574,-2.4918,-2.4188,-2.3696,-2.3316,-2.3109,-2.3101,-2.3091,-2.3091,-2.3091,-2.3091,-2.3091,-2.3091,-2.3091,-2.3315,-2.3799,-2.4219,-2.4551,-0.9363,-0.6102,-0.4344,-0.9139,-1.0483,-1.0678,-1.0662,-1.0841,-1.1042,-1.1251,-1.1494,-1.1711,-1.2007,-0.9835,-0.729,-0.5048,-0.737,-0.9958,-1.1411,-1.2144,-1.2508,-1.2286,-1.244,-1.2606,-1.2871,-1.2898,-1.302,-1.3315,-1.3339,-1.3356,-1.34,-1.3359,-1.337,-1.3343,-1.326,-1.3032,-1.2814,-1.2848,-1.2769,-1.2501,-1.2501,-1.2501,-1.2501,-1.2461,-1.2366,-1.2295,-1.2081,-1.1878,-1.1896,-1.3662,-1.5509,-1.74,-1.9345,-2.1276,-2.2928,-2.2928,-2.2672,-2.2304,-2.2237,-2.179,-2.1277,-2.1132,-2.1109,-2.1109,-2.1109,-2.1056,-2.0998,-2.0922,-2.0415,-1.9907,-1.9819,-1.9591,-1.9424,-1.9424,-1.9424,-1.9285,-1.8985,-1.8698,-1.8404,-1.8049,-1.7796,-1.7582,-1.7582,-1.7582,-1.7582,-1.7582,-1.7582,-1.7582,-1.7582,-1.7582,-1.8411,-2.0476,-2.301,-2.4874,-2.5499,-2.4831,-2.4085,-2.3368,-2.3188,-2.3113,-2.3101,-2.3091,-2.3091,-2.3091,-2.3091,-2.3091,-2.3091,-2.3091,-2.3256,-2.3615,-2.4156,-2.4717,-0.8927,-1.0028,-1.1311,-1.1475,-1.1545,-1.1542,-1.1559,-1.1594,-1.1601,-1.1562,-1.1588,-1.1669,-1.1864,-1.2125,-1.0926,-0.6601,-0.7985,-0.958,-0.9467,-1.1363,-1.2667,-1.2515,-1.2501,-1.2562,0.0,-1.2735,-1.2861,-1.3156,-1.318,-1.3244,-1.3393,-1.3261,-1.3176,-1.3088,-1.2891,-1.2739,-1.2729,-1.2583,-1.2508,-1.2501,-1.2501,-1.2501,-1.2498,-1.2359,-1.2289,-1.2216,-1.1891,-1.1736,-1.1767,-1.3638,-1.5493,-1.7416,-1.9316,-2.1252,-2.2928,-2.2928,-2.2672,-2.2372,-2.2084,-2.1862,-2.1645,-2.1209,-2.1109,-2.1109,-2.1109,-2.0915,-2.0697,-2.0537,-2.024,-1.9812,-1.9517,-1.943,-1.9424,-1.9424,-1.9424,-1.9285,-1.8985,-1.8698,-1.8404,-1.8049,-1.7796,-1.7582,-1.7582,-1.7582,-1.7582,-1.7582,-1.7582,-1.7582,-1.7582,-1.7582,-1.8648,-2.1389,-2.176,-2.2728,-2.4927,-2.4687,-2.4268,-2.4012,-2.3408,-2.3101,-2.3091,-2.3091,-2.3091,-2.3091,-2.3091,-2.3091,-2.3091,-2.3091,-2.3111,-2.313,-2.3994,-2.4883,-0.9255,-1.008,-1.1099,-1.152,-1.157,-1.1619,-1.1631,-1.1619,-1.3049,-1.8046,-1.4952,-1.1273,-1.1103,-1.16,-1.1573,-1.0144,-1.083,-1.157,-1.1616,-1.2384,-1.2786,-1.2532,-1.2589,0.0,0.0,0.0,0.0,-1.3017,-1.3203,-1.3237,-1.3112,-1.3064,-1.3,-1.2888,-1.27,-1.2599,-1.2579,-1.2528,-1.2501,-1.2501,-1.2501,-1.2531,-1.2515,-1.2388,-1.2227,-1.1985,-1.1874,-1.1696,-1.1616,-1.2244,-1.4344,-1.7283,-1.7944,-2.0126,-2.2839,-2.2639,-2.2378,-2.2118,-2.2017,-2.1663,-2.1306,-2.1142,-2.1109,-2.1109,-2.1109,-2.0763,-2.0266,-1.9902,-1.9687,-1.9529,-1.9439,-1.9424,-1.9424,-1.9424,-1.9219,-1.9055,-1.8886,-1.8472,-1.8103,-1.7796,-1.7655,-1.7582,-1.7582,-1.7582,-1.7582,-1.7582,-1.7582,-1.7582,-1.7582,-1.8401,-1.9627,-2.1499,-2.2235,-2.3232,-2.4983,-2.4526,-2.411,-2.4028,-2.3443,-2.3091,-2.3091,-2.3091,-2.3091,-2.3091,-2.3091,-2.3091,-2.3091,-2.3091,-2.3411,-2.3984,-2.4059,-2.4712,-1.0811,-1.2077,-1.3199,-1.4096,-1.3923,-1.3566,-1.3609,-1.3291,-1.4323,-1.9023,-1.7228,-1.4163,-1.2407,-1.2351,-1.2398,-1.1925,-1.2154,-1.2498,-1.2701,-1.2864,-1.2868,-1.2613,-1.2671,-1.2634,0.0,0.0,0.0,-1.2871,-1.3097,-1.3142,-1.3046,-1.2963,-1.2903,-1.2739,-1.2596,-1.2522,-1.2505,-1.2501,-1.2501,-1.2501,-1.245,-1.2456,-1.2519,-1.2251,-1.2016,-1.1753,-1.1779,-1.1704,-1.1619,-1.1619,-1.3456,-1.6192,-1.6192,-1.8454,-2.1705,-2.1452,-2.1619,-2.183,-2.183,-2.1516,-2.1109,-2.1109,-2.1109,-2.1089,-2.0989,-2.0611,-2.0108,-1.9685,-1.9469,-1.9403,-1.9412,-1.9424,-1.9424,-1.9424,-1.9266,-1.9034,-1.8744,-1.8441,-1.8077,-1.7702,-1.7582,-1.7582,-1.7582,-1.7582,-1.7582,-1.7582,-1.7582,-1.7786,-1.8251,-1.9065,-2.0333,-2.2206,-2.2906,-2.3747,-2.4949,-2.4579,-2.4126,-2.3702,-2.3301,-2.3091,-2.3091,-2.3091,-2.3091,-2.3091,-2.3091,-2.3091,-2.3091,-2.3091,-2.3539,-2.4414,-2.4545,-2.5016,-1.3662,-1.5818,-1.7589,-1.8969,-1.8384,-1.7489,-1.7489,-1.6549,-1.5607,-1.5229,-1.8226,-1.9577,0.0,0.0,-1.3384,-1.2001,-1.2084,-1.2406,-1.2701,-1.2881,-1.2925,0.0,0.0,0.0,0.0,0.0,0.0,-1.2729,0.0,-1.2946,-1.2939,-1.2946,-1.2878,-1.2722,-1.2576,-1.2501,-1.2501,-1.2501,-1.2501,-1.2501,-1.2355,-1.2364,-1.2426,-1.1969,-1.1753,-1.1587,-1.1605,-1.1619,-1.1619,-1.1619,-1.2674,-1.4432,-1.4419,-1.6539,-1.9595,-1.9572,-2.0402,-2.1614,-2.1601,-2.1349,-2.1109,-2.1109,-2.1109,-2.1056,-2.0762,-2.0468,-2.0174,-1.9953,-1.9658,-1.9424,-1.9424,-1.9424,-1.9424,-1.9424,-1.9388,-1.921,-1.8613,-1.8496,-1.8306,-1.7702,-1.7582,-1.7582,-1.7582,-1.7582,-1.7582,-1.7582,-1.7582,-1.8094,-1.9428,-1.9679,-2.0743,-2.3434,-2.3705,-2.404,-2.4832,-2.4815,-2.4319,-2.3149,-2.3091,-2.3091,-2.3091,-2.3091,-2.3091,-2.3091,-2.3091,-2.3091,-2.3091,-2.3091,-2.3539,-2.4424,-2.5287,-2.5664,-1.7086,-1.7743,-1.8409,-2.1786,-2.2055,-2.1417,-2.1417,-2.0856,-2.0278,-2.0209,-1.907,-1.7271,0.0,0.0,0.0,-1.1723,-1.2033,0.0,-1.2861,-1.3125,0.0,-1.3078,-1.3057,-1.3003,-1.2857,-1.2776,0.0,0.0,-1.2766,-1.2739,-1.2627,-1.2729,-1.2718,-1.2566,-1.2522,-1.2501,-1.2501,-1.2501,-1.2501,-1.2501,-1.2355,-1.223,-1.2036,-1.1844,-1.1699,-1.1598,-1.1633,-1.1619,-1.1619,-1.1619,-1.2674,-1.4419,-1.4276,-1.6471,-1.9554,-1.9235,-2.021,-2.1581,-2.1296,-2.1169,-2.1109,-2.1109,-2.1109,-2.1056,-2.0762,-2.0468,-2.0174,-1.9887,-1.9593,-1.9424,-1.9424,-1.9424,-1.9424,-1.9424,-1.9169,-1.8896,-1.8566,-1.8137,-1.7795,-1.7648,-1.7582,-1.7582,-1.7582,-1.7582,-1.7582,-1.7582,-1.7582,-1.8094,-1.9428,-2.0538,-2.1803,-2.3534,-2.3999,-2.4397,-2.4875,-2.4077,-2.3443,-2.311,-2.3091,-2.3091,-2.3091,-2.3091,-2.3091,-2.3091,-2.3091,-2.3091,-2.3091,-2.3091,-2.3539,-2.4414,-2.4865,-2.534,-2.0353,-2.059,-2.0967,-2.3262,-2.3448,-2.301,-2.274,-2.233,-2.1836,-2.1313,-1.9636,-1.7656,-1.5721,-1.4517,0.0,0.0,0.0,0.0,-1.2881,-1.3105,-1.32,0.0,-1.3173,0.0,-1.2976,-1.2885,-1.2803,0.0,-1.2729,-1.2664,-1.2511,-1.2647,-1.2661,-1.2508,-1.2501,-1.2501,-1.2501,-1.2501,-1.2471,-1.2406,-1.226,-1.2108,-1.1878,-1.1806,-1.1694,-1.1619,0.0,-1.1619,-1.1619,-1.1619,-1.2212,-1.3114,-1.3087,-1.4793,-1.7424,-1.7736,-1.9356,-2.1336,-2.1169,-2.1109,-2.1109,-2.1109,-2.1109,-2.1099,-2.0889,-2.0571,-2.0147,-1.9726,-1.9492,-1.9424,-1.9424,-1.9424,-1.9397,-1.9398,-1.9014,-1.8643,-1.8515,-1.8037,-1.7582,-1.7582,-1.7582,-1.7582,-1.7582,-1.7582,-1.7582,-1.7582,-1.7582,-1.8094,-1.9428,-2.0282,-2.1752,-2.4304,-2.4284,-2.4202,-2.4473,-2.3864,-2.3372,-2.312,-2.3091,-2.3091,-2.3091,-2.3091,-2.3091,-2.3091,-2.3091,-2.3091,-2.3091,-2.3091,-2.3539,-2.4414,-2.448,-2.4912,-2.3082,-2.3574,-2.4062,-2.3906,-2.3574,-2.3166,-2.2559,-2.2104,-2.151,-2.0386,-1.994,-1.9148,-1.7482,-1.585,-1.4542,-1.386,0.0,-1.2261,-1.2893,-1.2966,-1.3034,-1.3159,-1.319,-1.3156,-1.303,-1.2983,-1.2905,-1.2769,-1.2722,-1.264,-1.2508,-1.2627,-1.2637,-1.2505,-1.2501,-1.2501,-1.2501,-1.2481,-1.2413,-1.2288,-1.2115,-1.2036,-1.1903,-1.1684,-1.1619,-1.1619,0.0,0.0,-1.1616,-1.1599,-1.1511,-1.1456,-1.1482,-1.2555,-1.4219,-1.5786,-1.8371,-2.1109,-2.1109,-2.1109,-2.1109,-2.1109,-2.1089,-2.1094,-2.1101,-2.0692,-2.0067,-1.9578,-1.9424,-1.9424,-1.9424,-1.9424,-1.9421,-1.9387,-1.8955,-1.8534,-1.8605,-1.8103,-1.7582,-1.7582,-1.7582,-1.7582,-1.7582,-1.7582,-1.7582,-1.7582,-1.7582,-1.8035,-1.9184,-1.9509,-2.11,-2.502,-2.4356,-2.3761,-2.4177,-2.4096,-2.3783,-2.3291,-2.3174,-2.3091,-2.3091,-2.3091,-2.3091,-2.3091,-2.3091,-2.3091,-2.3091,-2.3149,-2.3588,-2.4414,-2.4229,-2.4694,-2.3924,-2.4134,-2.4451,-2.4207,-2.3728,-2.3166,-2.2559,-2.163,0.0,-2.0327,-1.9613,-1.8615,-1.7297,-1.6977,-1.6149,-1.3925,-1.3908,-1.3794,-1.2927,-1.2983,-1.3146,0.0,-1.3285,-1.3353,-1.3325,-1.3105,0.0,0.0,0.0,-1.2528,-1.2505,-1.2525,-1.2528,-1.2501,-1.2501,-1.2501,-1.2501,-1.2386,-1.2315,-1.2288,-1.2006,-1.1857,-1.1903,-1.1684,-1.1619,-1.1619,-1.1619,0.0,-1.1609,-1.1484,-1.1487,-1.1506,-1.119,-1.1386,-1.2118,-1.4962,-1.8128,-2.1109,-2.1109,-2.1109,-2.1109,-2.1109,-2.1088,-2.1107,-2.1106,-2.0683,-2.0077,-1.9531,-1.9424,-1.9424,-1.9424,-1.9424,-1.9421,-1.9387,-1.8955,-1.8658,-1.9163,-1.8357,-1.7582,-1.7582,-1.7582,-1.7582,-1.7582,-1.7582,-1.7582,-1.7582,-1.7582,-1.7679,-1.7926,-1.8911,-2.0743,-2.3741,-2.3492,-2.3758,-2.5248,-2.4428,-2.3947,-2.4167,-2.3521,-2.3091,-2.3091,-2.3091,-2.3091,-2.3091,-2.3091,-2.3091,-2.3091,-2.3496,-2.3935,-2.4424,-2.4652,-2.51,-2.437,-2.4481,-2.4555,-2.4242,-2.3761,-2.3046,-2.1984,0.0,0.0,-1.9228,-1.8701,-1.8226,-1.7616,-1.7032,0.0,-1.5554,-1.508,-1.4587,-1.3695,-1.4629,0.0,-1.3365,-1.4128,-1.4799,0.0,0.0,0.0,0.0,0.0,-1.4782,-1.2579,-1.2501,-1.2501,-1.2501,-1.2501,-1.2467,-1.2393,-1.2325,-1.221,-1.205,-1.1901,-1.1792,-1.1718,-1.165,-1.1619,-1.1619,-1.1619,0.0,-1.1494,-1.1419,-1.1301,-1.142,-1.245,-1.3141,-1.404,-1.735,-1.968,-2.1109,-2.1109,-2.1109,-2.1089,-2.1074,-2.1071,-2.1005,-2.0415,-1.9986,-1.974,-1.9452,-1.9424,-1.9424,-1.9424,-1.9381,-1.9384,-1.9408,-1.8721,-1.8097,-1.8385,-1.7994,-1.7582,-1.7582,-1.7582,-1.7582,-1.7582,-1.7582,-1.7582,-1.7582,-1.7582,-1.7601,-1.7612,-1.8137,-1.9805,-2.299,-2.2754,-2.3247,-2.5526,-2.5117,-2.45,-2.3764,-2.3347,-2.309,-2.3101,-2.3091,-2.3315,-2.3767,-2.3595,-2.3477,-2.3477,-2.3691,-2.4004,-2.4424,-2.4563,-2.5031,-2.4596,-2.4589,-2.4556,-2.4202,-2.3667,-2.2839,-2.1356,-2.0514,0.0,-1.8268,-1.7935,-1.7916,-1.7982,-1.7164,-1.6608,0.0,-1.6359,-1.5492,-1.4996,-1.6429,-1.6749,0.0,-1.5659,0.0,0.0,0.0,0.0,0.0,0.0,0.0,-1.3949,-1.3417,-1.3109,-1.3109,-1.2699,-1.2403,-1.2291,-1.2227,-1.2071,-1.183,-1.1799,-1.1728,-1.1619,-1.1619,-1.1619,-1.1616,-1.1586,0.0,0.0,-1.1321,-1.1162,-1.1286,-1.3796,-1.5741,-1.7363,-2.0086,-2.1082,-2.1109,-2.1109,-2.0999,-2.0899,-2.1032,-2.093,-2.0549,-1.9688,-1.9417,-1.9391,-1.9426,-1.9424,-1.9424,-1.9424,-1.9401,-1.9343,-1.905,-1.8286,-1.7582,-1.7582,-1.7582,-1.7582,-1.7582,-1.7582,-1.7582,-1.7582,-1.7582,-1.7582,-1.7582,-1.7582,-1.7582,-1.7582,-1.7582,-1.8698,-2.156,-2.1218,-2.2164,-2.544,-2.5719,-2.5127,-2.3735,-2.3307,-2.3121,-2.311,-2.3091,-2.3428,-2.4118,-2.3805,-2.3734,-2.3908,-2.3735,-2.3811,-2.4129,-2.4479,-2.5068,-2.462,-2.4589,-2.4502,-2.3948,-2.3354,-2.2519,-2.1049,0.0,-1.9178,-1.8189,-1.7822,-1.7709,-1.7942,-1.8119,-1.8058,-1.7323,0.0,-1.7538,-1.6687,-1.7325,-1.7881,-1.7954,0.0,0.0,0.0,0.0,0.0,0.0,0.0,0.0,-1.7967,-1.6223,-1.5234,-1.5234,-1.3355,-1.2301,-1.2291,-1.2013,-1.186,-1.183,-1.1701,-1.1633,-1.1619,-1.1619,-1.1619,-1.1613,-1.1619,0.0,0.0,-1.1313,-1.1186,-1.1479,-1.4599,-1.777,-2.0638,-2.0968,-2.1122,-2.1109,-2.1109,-2.0727,-2.0387,-2.0923,-2.0416,-1.9536,-1.943,-1.9416,-1.9399,-1.9372,-1.9424,-1.9424,-1.9424,-1.9401,-1.9106,-1.8039,-1.7709,-1.7582,-1.7582,-1.7582,-1.7582,-1.7582,-1.7582,-1.7582,-1.7582,-1.7582,-1.7582,-1.7582,-1.7582,-1.7582,-1.7582,-1.7582,-1.774,-1.8062,-1.8047,-2.0048,-2.5284,-2.5693,-2.5619,-2.5476,-2.3994,-2.3121,-2.311,-2.3091,-2.3164,-2.3213,-2.3175,-2.3551,-2.4331,-2.3578,-2.3166,-2.3268,-2.4852,-2.5606,-2.4401,-2.4589,-2.4496,-2.3915,-2.3383,-2.2432,-2.0788,-1.9873,-1.9065,-1.7989,-1.7669,-1.7622,-1.7742,-1.7862,-1.793,-1.7989,-1.7985,-1.7847,-1.7326,-1.8622,0.0,0.0,0.0,0.0,0.0,0.0,0.0,0.0,0.0,0.0,-2.1901,-1.7893,-1.5485,-1.5371,-1.3365,-1.2203,-1.2016,-1.1894,-1.1789,-1.1701,-1.1647,-1.1619,-1.1616,-1.1525,-1.1484,-1.1474,-1.1538,0.0,0.0,-1.0999,-1.0894,-1.0996,-1.2257,-1.6193,-2.1071,-2.1095,-2.1109,-2.1089,-2.1123,-2.0913,-2.0807,-2.102,-2.0794,-2.0325,-1.9626,-1.9387,-1.9424,-1.9424,-1.9424,-1.939,-1.9401,-1.8877,-1.8174,-1.7689,-1.7609,-1.7582,-1.7582,-1.7582,-1.7582,-1.7582,-1.7582,-1.7582,-1.7582,-1.7582,-1.7582,-1.7582,-1.7582,-1.7582,-1.7582,-1.7582,-1.7582,-1.7582,-1.7579,-1.8497,-2.0636,-2.3829,-2.5225,-2.4202,-2.3464,-2.3121,-2.311,-2.3091,-2.3335,-2.3851,-2.3362,-2.3804,-2.5182,-2.4826,-2.4421,-2.3881,-2.405,-2.4717,-2.4019,-2.4327,-2.4262,-2.3761,-2.318,-2.2291,-2.0615,-1.9786,-1.9089,-1.7829,-1.7582,-1.7582,-1.7582,-1.7582,-1.7756,-1.8277,-1.8275,-1.8303,-1.8385,-1.9792,0.0,0.0,0.0,0.0,0.0,0.0,0.0,0.0,0.0,0.0,0.0,-1.9631,-1.673,-1.6066,-1.4101,-1.2639,-1.1833,-1.1789,-1.1718,-1.1619,-1.1619,-1.1596,-1.1548,-1.144,-1.1365,-1.1314,0.0,0.0,0.0,-1.083,-1.0668,-1.067,-1.073,-1.4516,-2.0136,-2.0852,-2.1109,-2.1069,-2.1127,-2.0895,-2.0665,-2.0987,-2.0889,-2.0441,-1.9627,-1.9424,-1.9424,-1.9424,-1.9428,-1.93,-1.8941,-1.8238,-1.7607,-1.7596,-1.7582,-1.7582,-1.7582,-1.7582,-1.7582,-1.7582,-1.7582,-1.7582,-1.7582,-1.7582,-1.7582,-1.7582,-1.7582,-1.7582,-1.7582,-1.7582,-1.7911,-1.8741,-1.8081,-1.8034,-1.911,-2.3195,-2.4934,-2.3223,-2.3117,-2.3083,-2.311,-2.3271,-2.3559,-2.4033,-2.3679,-2.4199,-2.569,-2.5704,-2.5388,-2.4756,-2.4136,-2.4545,-2.3258,-2.3638,-2.3708,-2.3407,-2.2873,-2.2038,-2.0568,-1.9786,-1.9089,-1.7829,-1.7582,-1.7582,-1.7582,-1.7582,-1.7689,-1.7949,-1.8482,-1.9168,-2.0053,-2.0742,0.0,0.0,0.0,0.0,0.0,0.0,0.0,0.0,0.0,0.0,0.0,-2.1791,-1.9809,-1.7905,-1.5754,-1.3784,-1.183,-1.1691,-1.1619,-1.1619,-1.1619,-1.1541,-1.1392,-1.1392,-1.1307,0.0,0.0,0.0,0.0,-1.0855,-1.0673,-1.0723,-1.0709,-1.3513,-1.7931,-2.024,-2.1109,-2.1069,-2.1127,-2.0345,-1.9583,-2.0711,-2.0341,-1.943,-1.9424,-1.9424,-1.9424,-1.9424,-1.9415,-1.9124,-1.7942,-1.7595,-1.7607,-1.7596,-1.7582,-1.7582,-1.7582,-1.7582,-1.7582,-1.7582,-1.7582,-1.7582,-1.7582,-1.7582,-1.7582,-1.7582,-1.7582,-1.7582,-1.7582,-1.7582,-1.8636,-2.1378,-1.9193,-1.9064,-2.2737,-2.4673,-2.4964,-2.3207,-2.3098,-2.3085,-2.312,-2.3673,-2.3725,-2.314,-2.3943,-2.4801,-2.569,-2.5711,-2.5684,-2.5684,-2.5684,-2.5684,-2.1773,-2.2324,-2.2732,-2.2238,-2.1817,-2.1196,-1.9927,-1.9339,-1.8778,-1.7782,-1.7582,-1.7582,-1.7582,-1.7582,-1.7816,-1.8475,-1.8637,0.0,0.0,0.0,0.0,0.0,0.0,0.0,0.0,0.0,0.0,0.0,0.0,0.0,0.0,-2.2813,-2.1651,-1.9767,-1.7683,-1.622,-1.5515,-1.4181,-1.3456,-1.3337,-1.209,-1.1385,-1.1229,-1.1134,0.0,0.0,0.0,0.0,0.0,-1.0741,-1.0673,-1.1195,-1.5964,-1.8706,-2.0055,-2.0812,-2.1121,-2.112,-2.1101,-2.0322,-1.9483,-1.9796,-1.9706,-1.9424,-1.9424,-1.9424,-1.939,-1.9381,-1.9427,-1.9125,-1.7895,-1.76,-1.7583,-1.7602,-1.7582,-1.7582,-1.7582,-1.7582,-1.7582,-1.7582,-1.7582,-1.7582,-1.7582,-1.7582,-1.7582,-1.7582,-1.7582,-1.7582,-1.7582,-1.7582,-1.8398,-2.0511,-2.0564,-2.1113,-2.2961,-2.4685,-2.5199,-2.4057,-2.4189,-2.4105,-2.3603,-2.3864,-2.3992,-2.3972,-2.4855,-2.5407,-2.5721,-2.5684,-2.5693,-2.5693,-2.5693,-2.5693,-2.0912,-2.15,-2.1837,-2.1476,-2.1076,-2.0528,-1.9586,-1.9052,-1.8537,-1.7742,-1.7582,-1.7582,-1.7582,-1.7582,-1.7769,-1.8323,-1.8457,-1.8758,0.0,0.0,0.0,0.0,0.0,0.0,0.0,0.0,0.0,0.0,0.0,0.0,0.0,-2.3153,-2.2578,-2.143,-1.9507,-1.8091,-1.7183,-1.5971,-1.5235,-1.5182,-1.3261,-1.2251,-1.202,-1.1257,0.0,0.0,0.0,0.0,0.0,-1.0721,-1.0722,-1.1421,-1.8405,-2.1115,-2.1095,-2.1099,-2.1112,-2.1039,-2.0834,-2.016,-1.9417,-1.9394,-1.9424,-1.9403,-1.9425,-1.9408,-1.9428,-1.9401,-1.9095,-1.8547,-1.7818,-1.7576,-1.7582,-1.7582,-1.7582,-1.7582,-1.7582,-1.7582,-1.7582,-1.7582,-1.7582,-1.7582,-1.7582,-1.7582,-1.7582,-1.7582,-1.7582,-1.7582,-1.7582,-1.8042,-1.8982,-2.066,-2.1354,-2.2353,-2.3964,-2.5061,-2.5483,-2.4906,-2.4897,-2.465,-2.4043,-2.4302,-2.4473,-2.4611,-2.5302,-2.571,-2.5693,-2.5693,-2.5693,-2.5693,-2.5693,-2.5693,0.0,-2.0955,-2.0949,-2.0929,-2.0508,-1.996,-1.9399,-1.8851,0.0,-1.7702,-1.7582,-1.7589,-1.7609,-1.7595,-1.7602,-1.7662,-1.815,0.0,0.0,0.0,0.0,0.0,0.0,0.0,0.0,0.0,0.0,0.0,0.0,0.0,0.0,-2.2914,-2.2826,-2.2826,-2.1127,-1.938,-1.7578,-1.7203,-1.6869,-1.6785,-1.4887,-1.376,-1.3256,-1.1727,0.0,0.0,0.0,0.0,0.0,-1.0721,-1.0691,-1.1412,-1.8376,-2.1036,-2.0972,-2.0989,-2.0998,-2.0889,-2.0333,-1.9846,-1.9391,-1.9387,-1.9424,-1.9377,-1.9401,-1.9381,-1.9394,-1.9403,-1.8539,-1.7588,-1.7603,-1.7616,-1.7582,-1.7582,-1.7582,-1.7582,-1.7582,-1.7582,-1.7582,-1.7582,-1.7582,-1.7582,-1.7582,-1.7582,-1.7582,-1.7582,-1.7582,-1.7582,-1.7582,-1.8708,-2.0033,-2.1617,-2.1783,-2.2872,-2.5499,-2.5572,-2.5551,-2.5698,-2.5215,-2.4789,-2.4426,-2.4883,-2.5098,-2.4974,-2.546,-2.5693,-2.5693,-2.5693,-2.5693,-2.5693,-2.5693,-2.5693,-1.9339,0.0,-1.9386,-1.9165,-1.9005,-1.8804,0.0,-1.8195,-1.8043,-1.7662,-1.7582,-1.7655,-1.7896,-1.7742,-1.7809,-1.8497,-1.8724,-1.8951,0.0,0.0,0.0,0.0,0.0,0.0,0.0,0.0,0.0,0.0,0.0,0.0,0.0,-2.2645,-2.2525,-2.2525,-2.1897,-2.1408,-2.1206,-1.9499,-1.7921,-1.647,-1.5887,-1.4099,-1.1364,-1.2277,0.0,0.0,0.0,0.0,-1.0721,-1.0721,-1.0691,-1.1412,-1.8376,-2.0559,-1.9786,-1.979,-1.9772,-1.978,-1.9648,-1.9522,-1.9387,-1.9386,-1.9424,-1.9377,-1.9401,-1.9423,-1.9376,-1.9409,-1.8523,-1.7597,-1.7596,-1.7576,-1.7582,-1.7582,-1.7582,-1.7582,-1.7582,-1.7582,-1.7582,-1.7582,-1.7582,-1.7582,-1.7582,-1.7582,-1.7582,-1.7582,-1.7582,-1.7582,-1.7582,-1.7891,-1.925,-2.2376,-2.2686,-2.3525,-2.5543,-2.4488,-2.4278,-2.5638,-2.56,-2.5313,-2.4798,-2.5284,-2.5528,-2.5518,-2.5635,-2.5693,-2.5693,-2.5693,-2.5693,-2.5693,-2.5693,-2.5693,-1.8502,-1.8818,-1.9092,-1.8931,-1.8791,-1.8651,-1.8428,-1.8075,-1.7749,-1.7442,-1.7434,-1.7435,-1.7609,-1.7609,-1.7789,-1.8362,-1.8751,0.0,0.0,0.0,0.0,0.0,0.0,0.0,0.0,0.0,0.0,0.0,0.0,0.0,0.0,-2.2378,-2.2218,-2.2218,-2.1937,-2.1931,-2.2218,-2.0923,-1.977,-1.8763,-1.7723,-1.6165,-1.4297,-1.4428,-1.3517,0.0,0.0,0.0,-1.0721,-1.0721,-1.0719,-1.1373,-1.8413,-2.0744,-2.0108,-1.9565,-1.9393,-1.9384,-1.9384,-1.9427,-1.9424,-1.9424,-1.9401,-1.9374,-1.9393,-1.9006,-1.8574,-1.8571,-1.811,-1.7613,-1.7602,-1.7582,-1.7582,-1.7582,-1.7582,-1.7582,-1.7582,-1.7582,-1.7582,-1.7582,-1.7582,-1.7582,-1.7582,-1.7582,-1.7582,-1.7582,-1.7582,-1.7582,-1.7582,-1.7607,-1.8341,-2.0287,-2.273,-2.4666,-2.5606,-2.4833,-2.4708,-2.5642,-2.5691,-2.5567,-2.5265,-2.5547,-2.5693,-2.5693,-2.5693,-2.5693,-2.5693,-2.5693,-2.5693,-2.5693,-2.5693,-2.5693,-1.8169,-1.8764,-1.9383,-1.9138,-1.8971,-1.8831,-1.8738,-1.813,-1.7515,-1.732,-1.7266,-1.728,-1.7333,-1.7522,0.0,0.0,0.0,0.0,0.0,0.0,0.0,0.0,0.0,0.0,0.0,0.0,0.0,0.0,0.0,0.0,0.0,-2.2078,-2.1924,-2.1924,-2.1637,-2.1603,-2.185,-2.161,-2.1419,-2.1083,-1.9594,-1.864,-1.8052,-1.6818,-1.5204,0.0,0.0,0.0,-1.0683,-1.0663,-1.0951,-1.1996,-1.8358,-2.0859,-2.0691,-1.9754,-1.9371,-1.943,-1.9387,-1.9424,-1.9417,-1.9312,-1.9331,-1.9378,-1.916,-1.8421,-1.7592,-1.762,-1.7613,-1.7614,-1.7589,-1.7582,-1.7582,-1.7582,-1.7582,-1.7582,-1.7582,-1.7582,-1.7582,-1.7582,-1.7582,-1.7582,-1.7582,-1.7582,-1.7582,-1.7582,-1.7582,-1.7582,-1.7582,-1.7592,-1.7587,-1.7605,-2.1979,-2.5086,-2.5628,-2.5693,-2.5712,-2.5704,-2.5721,-2.5693,-2.5693,-2.5693,-2.5693,-2.5693,-2.5693,-2.5693,-2.5693,-2.5693,-2.5693,-2.5693,-2.5693,-2.5693,-1.8671,-1.9072,-1.9125,-1.811,-1.821,-1.8424,-1.7903,-1.7682,-1.7569,-1.7522,0.0,0.0,0.0,-1.815,-1.8444,0.0,0.0,0.0,0.0,0.0,0.0,0.0,0.0,0.0,0.0,0.0,0.0,0.0,0.0,0.0,0.0,0.0,-2.1681,-2.1681,-2.1329,-2.1196,-2.1243,-2.1203,-2.0457,-1.902,-2.0151,-1.9158,-1.6366,-1.7538,-1.6366,0.0,0.0,-1.2124,-1.0452,-1.0463,-1.2008,-1.4701,-1.828,-1.9649,-1.9655,-1.9483,-1.9377,-1.9419,-1.9379,-1.9424,-1.9325,-1.9008,-1.9092,-1.921,-1.8215,-1.7779,-1.762,-1.7603,-1.7596,-1.7583,-1.7589,-1.7582,-1.7582,-1.7582,-1.7582,-1.7582,-1.7582,-1.7582,-1.7582,-1.7582,-1.7582,-1.7582,-1.7582,-1.7582,-1.7582,-1.7582,-1.7582,-1.7582,-1.7582,-1.7608,-1.758,-1.7619,-1.9709,-2.2349,-2.5441,-2.5693,-2.5713,-2.5712,-2.5703,-2.5693,-2.5693,-2.5693,-2.5693,-2.5693,-2.5693,-2.5693,-2.5693,-2.5693,-2.5693,-2.5693,-2.5693,-2.5693,-1.817,-1.8537,-1.8764,-1.821,-1.8758,-1.9272,-1.8684,-1.8424,-1.8217,-1.7896,0.0,0.0,0.0,0.0,-1.8978,-1.9746,0.0,0.0,0.0,0.0,0.0,0.0,0.0,0.0,0.0,0.0,0.0,0.0,0.0,0.0,0.0,0.0,-2.1309,-2.1309,-2.1182,-2.1109,-2.1109,-2.1109,-2.0716,-1.9935,-2.0716,-2.0265,-1.8762,-1.9398,-1.8301,-1.5854,0.0,-1.2737,-1.0243,-1.0223,-1.101,-1.2679,-1.7497,-1.9397,-1.9404,-1.9397,-1.9414,-1.9424,-1.9424,-1.9265,-1.9105,-1.8908,-1.8836,-1.8658,-1.8197,-1.7869,-1.7589,-1.7615,-1.7582,-1.7582,-1.7582,-1.7582,-1.7582,-1.7582,-1.7582,-1.7582,-1.7582,-1.7582,-1.7582,-1.7582,-1.7582,-1.7582,-1.7582,-1.7582,-1.7582,-1.7582,-1.7582,-1.7582,-1.7582,-1.7582,-1.7601,-1.7619,-1.8336,-1.9527,-2.1153,-2.3996,-2.5693,-2.5693,-2.5693,-2.5693,-2.5693,-2.5693,-2.5693,-2.5693,-2.5693,-2.5693,-2.5693,-2.5693,-2.5693,-2.5693,-2.5693,-2.5693,-1.7756,-1.8083,-1.849,-1.849,-1.9212,-1.9846,-1.9539,-1.9239,-1.8918,-1.8482,-1.8402,0.0,0.0,-1.8675,0.0,0.0,0.0,0.0,0.0,0.0,0.0,0.0,0.0,0.0,0.0,0.0,0.0,0.0,0.0,0.0,0.0,0.0,-2.1009,-2.1009,-2.0942,-2.0902,-2.0902,-2.0902,-2.0975,-2.1109,-2.1109,-2.1076,-2.1002,-2.0775,-1.9685,-1.7894,-1.6016,-1.346,-1.0624,-1.059,-1.0743,-1.1439,-1.6618,-1.8935,-1.9389,-1.9406,-1.9424,-1.9424,-1.9424,-1.9172,-1.8911,-1.8844,-1.8539,-1.8218,-1.8272,-1.7956,-1.7582,-1.7582,-1.7582,-1.7582,-1.7582,-1.7582,-1.7582,-1.7582,-1.7582,-1.7582,-1.7582,-1.7582,-1.7582,-1.7582,-1.7582,-1.7582,-1.7582,-1.7582,-1.7582,-1.7582,-1.7582,-1.7582,-1.7582,-1.7582,-1.7582,-1.7582,-1.7623,-1.8086,-1.9381,-2.3287,-2.5693,-2.5693,-2.5693,-2.5693,-2.5693,-2.5693,-2.5693,-2.5693,-2.5693,-2.5693,-2.5693,-2.5693,-2.5693,-2.5693,-2.5693,-2.5693,-1.7962,-1.825,-1.849,-1.849,-1.8758,-1.9152,-1.9653,-1.9546,-1.9399,-1.9626,-1.9673,0.0,0.0,-1.9339,0.0,0.0,0.0,0.0,0.0,0.0,0.0,0.0,0.0,0.0,0.0,0.0,0.0,0.0,0.0,0.0,0.0,0.0,0.0,-2.0708,-2.0441,-2.0233,-2.0233,-2.0233,-2.0568,-2.1109,-2.1109,-2.0969,-2.0708,-2.0688,-1.9577,-1.7564,-1.5783,-1.3972,-1.225,-1.2084,-1.2904,-1.4376,-1.5838,-1.763,-1.9379,-1.943,-1.9424,-1.9424,-1.9424,-1.9172,-1.8878,-1.8611,-1.8372,-1.8124,-1.7762,-1.7655,-1.7582,-1.7582,-1.7582,-1.7582,-1.7582,-1.7582,-1.7582,-1.7582,-1.7582,-1.7582,-1.7582,-1.7582,-1.7582,-1.7582,-1.7582,-1.7582,-1.7582,-1.7582,-1.7582,-1.7582,-1.7582,-1.7582,-1.7582,-1.7582,-1.7582,-1.7582,-1.7603,-1.9645,-2.4672,-2.5497,-2.5693,-2.5693,-2.5693,-2.5693,-2.5693,-2.5693,-2.5693,-2.5693,-2.5693,-2.5693,-2.5693,-2.5693,-2.5693,-2.5693,-2.5693,-2.5693,-1.7475,-1.7842,-1.8257,-1.8444,-1.8851,-1.9305,-1.9706,-2.0,-2.0267,-2.0555,-2.0468,-2.0221,0.0,0.0,0.0,0.0,0.0,0.0,0.0,0.0,0.0,0.0,0.0,0.0,0.0,0.0,0.0,0.0,0.0,0.0,0.0,0.0,0.0,-2.0401,-2.0294,-2.0173,-2.0173,-2.0173,-2.0286,-2.0568,-2.0568,-2.0508,-2.0394,-2.0214,-1.9699,-1.8842,-1.7047,-1.5856,-1.5129,-1.3398,-1.3053,-1.3767,-1.5542,-1.7529,-1.9424,-1.9424,-1.9424,-1.9339,-1.9158,-1.8898,-1.8604,-1.831,-1.8009,-1.7795,-1.7675,-1.7582,-1.7582,-1.7582,-1.7582,-1.7582,-1.7582,-1.7582,-1.7582,-1.7582,-1.7582,-1.7582,-1.7582,-1.7582,-1.7582,-1.7582,-1.7582,-1.7582,-1.7582,-1.7582,-1.7582,-1.7582,-1.7582,-1.7582,-1.7582,-1.7582,-1.7582,-1.7582,-1.9147,-2.1651,-2.5391,-2.5693,-2.5693,-2.5693,-2.5693,-2.5693,-2.5693,-2.465,-2.4059,-2.4059,-2.462,-2.5173,-2.5698,-2.5698,-2.572,-2.5693,-2.5693,-2.5693,-1.7132,-1.7383,-1.7768,-1.815,0.0,-1.9379,-1.9947,-2.0461,-2.0922,-2.1309,-2.1009,-2.0641,-2.0528,0.0,0.0,0.0,0.0,0.0,0.0,0.0,0.0,0.0,0.0,0.0,0.0,0.0,0.0,0.0,0.0,0.0,0.0,0.0,0.0,0.0,-2.0007,-1.996,-1.996,-1.996,-1.996,-1.996,-1.996,-2.0007,-2.0087,-1.9887,-1.9746,-1.9587,-1.7762,-1.7285,-1.7556,-1.5209,-1.4582,-1.5183,-1.6622,-1.8137,-1.9424,-1.9424,-1.9305,-1.9199,-1.9119,-1.874,-1.8378,-1.8123,-1.7842,-1.7582,-1.7582,-1.7582,-1.7582,-1.7582,-1.7582,-1.7582,-1.7582,-1.7582,-1.7582,-1.7582,-1.7582,-1.7582,-1.7582,-1.7582,-1.7582,-1.7582,-1.7582,-1.7582,-1.7582,-1.7582,-1.7582,-1.7582,-1.7582,-1.7582,-1.7582,-1.7582,-1.7582,-1.7582,-1.9258,-2.1844,-2.5405,-2.5155,-2.5024,-2.5411,-2.5468,-2.5517,-2.5674,-2.4297,-2.338,-2.3127,-2.3709,-2.426,-2.4863,-2.5248,-2.5464,-2.5469,-2.5615,-2.5693,-1.6974,-1.6844,-1.7108,-1.7523,0.0,0.0,-2.0414,-2.0902,-2.1283,-2.1864,-2.1289,-2.0768,-2.1049,-2.0628,0.0,0.0,0.0,0.0,0.0,0.0,0.0,0.0,0.0,0.0,0.0,0.0,0.0,0.0,0.0,0.0,0.0,0.0,0.0,0.0,-1.9519,-1.9424,-1.9424,-1.9424,-1.9424,-1.9424,-1.9424,-1.9519,-1.98,-1.98,-1.9639,-1.9307,-1.7683,-1.7932,-1.9311,-1.7673,-1.7981,-1.9424,-1.9424,-1.9424,-1.9424,-1.9424,-1.9172,-1.8931,-1.9242,-1.8855,-1.8178,-1.8178,-1.7896,-1.7582,-1.7582,-1.7582,-1.7582,-1.7582,-1.7582,-1.7582,-1.7582,-1.7582,-1.7582,-1.7582,-1.7582,-1.7582,-1.7582,-1.7582,-1.7582,-1.7582,-1.7582,-1.7582,-1.7582,-1.7582,-1.7582,-1.7582,-1.7582,-1.7582,-1.7582,-1.7582,-1.7582,-1.7582,-1.7617,-1.9758,-2.5159,-2.4015,-2.357,-2.482,-2.4903,-2.5137,-2.5693,-2.4852,-2.3985,-2.3127,-2.3094,-2.3083,-2.3083,-2.4333,-2.4868,-2.4887,-2.546,-2.5684,-1.6623,-1.6909,-1.7487,-1.7789,0.0,0.0,0.0,-2.1209,0.0,0.0,-2.1617,-2.1259,-2.0862,0.0,0.0,0.0,0.0,0.0,0.0,0.0,0.0,0.0,0.0,0.0,0.0,0.0,0.0,0.0,0.0,0.0,0.0,0.0,0.0,0.0,-1.947,-1.9424,-1.9424,-1.9424,-1.9424,-1.9424,-1.9424,-1.947,-1.9499,-1.9499,-1.9511,-1.9366,-1.8887,-1.8965,-1.9361,-1.89,-1.8946,-1.9424,-1.9424,-1.9424,-1.9339,-1.9068,-1.8934,-1.8871,-1.8643,-1.8326,-1.8016,-1.7849,-1.7715,-1.7582,-1.7582,-1.7582,-1.7582,-1.7582,-1.7582,-1.7582,-1.7582,-1.7582,-1.7582,-1.7582,-1.7582,-1.7582,-1.7582,-1.7582,-1.7582,-1.7582,-1.7582,-1.7582,-1.7582,-1.7582,-1.7582,-1.7582,-1.7582,-1.7582,-1.7582,-1.7578,-1.759,-1.7615,-1.7619,-1.8239,-1.9864,-2.2673,-2.4307,-2.425,-2.4413,-2.4607,-2.4795,-2.3965,-2.3374,-2.3134,-2.3092,-2.3262,-2.3606,-2.3926,-2.4417,-2.5059,-2.5195,-2.5439,-1.6924,-1.737,0.0,-1.8455,-1.939,-2.0416,-2.1166,0.0,0.0,0.0,-2.1663,-2.1303,-2.1132,0.0,0.0,0.0,0.0,0.0,0.0,0.0,0.0,0.0,0.0,0.0,0.0,0.0,0.0,0.0,0.0,0.0,0.0,0.0,0.0,0.0,-1.9424,-1.9424,-1.9424,-1.9424,-1.9424,-1.9424,-1.9424,-1.9424,-1.9424,-1.9424,-1.9424,-1.9424,-1.9424,-1.9424,-1.9424,-1.9424,-1.9424,-1.9417,-1.9425,-1.9256,-1.9024,-1.8858,-1.8677,-1.8531,-1.836,-1.809,-1.7829,-1.7642,-1.7582,-1.7582,-1.7582,-1.7582,-1.7582,-1.7582,-1.7582,-1.7582,-1.7582,-1.7582,-1.7582,-1.7582,-1.7582,-1.7582,-1.7582,-1.7582,-1.7582,-1.7582,-1.7582,-1.7582,-1.7582,-1.7423,-1.7343,-1.7578,-1.7601,-1.7626,-1.7624,-1.7605,-1.7407,-1.6918,-1.732,-1.8491,-2.062,-2.2677,-2.3919,-2.4134,-2.3997,-2.3861,-2.3861,-2.3545,-2.3368,-2.3368,-2.3198,-2.3227,-2.3525,-2.3711,-2.4141,-2.4814,-2.5028,-2.5312,-1.7456,-1.7942,0.0,-1.9161,-1.9725,0.0,-2.134,-2.1802,-2.1944,-2.1944,0.0,-2.1223,0.0,0.0,0.0,0.0,0.0,0.0,0.0,0.0,0.0,0.0,0.0,0.0,0.0,0.0,0.0,0.0,0.0,0.0,0.0,0.0,0.0,0.0,-1.9424,-1.9424,-1.9424,-1.9424,-1.9352,0.0,-1.941,-1.9352,-1.9383,-1.9417,-1.9424,-1.9424,-1.9424,-1.9352,-1.9325,-1.9325,-1.937,-1.9323,-1.938,-1.9018,-1.8529,-1.8626,-1.8406,-1.805,-1.8327,-1.8063,-1.7582,-1.7582,-1.7582,-1.7582,-1.7582,-1.7582,-1.7582,-1.7582,-1.7582,-1.7582,-1.7582,-1.7582,-1.7582,-1.7582,-1.7582,-1.7582,-1.7582,-1.7582,-1.7582,-1.7582,-1.7582,-1.7582,-1.7582,-1.7159,-1.696,-1.7514,-1.762,-1.7557,-1.7456,-1.7527,-1.7388,-1.6759,-1.7684,-2.0327,-2.5273,-2.3721,-2.299,-2.4266,-2.3598,-2.314,-2.3091,-2.3516,-2.373,-2.373,-2.334,-2.3091,-2.3091,-2.3574,-2.4004,-2.4424,-2.4863,-2.5312,-1.6445,-1.6996,0.0,0.0,-2.0072,-2.1246,-2.1196,-2.1436,-2.1715,-2.1715,-2.1608,0.0,0.0,0.0,0.0,0.0,0.0,0.0,0.0,0.0,0.0,0.0,0.0,0.0,0.0,0.0,0.0,0.0,0.0,0.0,0.0,0.0,0.0,-1.9424,-1.9424,-1.9424,-1.9424,-1.9424,-1.9252,0.0,-1.9259,-1.9245,-1.9025,-1.9259,-1.9424,-1.9424,-1.9424,-1.9232,-1.9018,-1.9018,-1.8955,-1.8984,-1.9306,-1.9028,-1.8426,-1.8005,-1.7981,-1.8138,-1.7889,-1.7702,-1.7582,-1.7582,-1.7582,-1.7582,-1.7582,-1.7582,-1.7582,-1.7582,-1.7582,-1.7582,-1.7582,-1.7582,-1.7582,-1.7582,-1.7582,-1.7582,-1.7582,-1.7582,-1.7582,-1.7582,-1.7582,-1.7582,-1.7582,-1.7511,-1.7473,-1.7578,-1.7602,-1.7271,-1.6298,-1.6998,-1.9108,-2.3143,-2.3824,-2.4448,-2.5609,-2.4871,-2.4248,-2.4088,-2.3816,-2.3496,-2.311,-2.3188,-2.3237,-2.3237,-2.314,-2.3091,-2.3091,-2.3574,-2.4004,-2.4424,-2.4863,-2.5312,-1.6736,0.0,0.0,-1.9403,0.0,-2.1303,-2.1149,-2.1229,-2.1343,-2.1343,0.0,0.0,0.0,0.0,0.0,0.0,0.0,0.0,0.0,0.0,0.0,0.0,0.0,0.0,0.0,0.0,0.0,0.0,0.0,0.0,0.0,-1.9146,-1.9135,-1.9135,-1.9135,-1.9205,-1.9396,-1.9396,-1.9188,-1.8718,-1.8612,-1.8738,-1.9178,-1.93,-1.9221,-1.896,-1.864,-1.854,-1.8529,-1.8529,-1.8562,-1.8539,-1.8714,-1.8529,-1.8053,-1.7701,-1.7709,-1.7862,-1.7695,-1.7582,-1.7582,-1.7582,-1.7582,-1.7582,-1.7582,-1.7582,-1.7582,-1.7582,-1.7582,-1.7582,-1.7582,-1.7582,-1.7582,-1.7582,-1.7582,-1.7582,-1.7582,-1.7582,-1.7582,-1.7582,-1.7582,-1.7582,-1.7582,-1.7576,-1.7384,-1.6826,-1.725,-1.7385,-1.6754,-1.8369,-2.0652,-2.3476,-2.4905,-2.568,-2.5702,-2.5227,-2.4693,-2.421,-2.3958,-2.3594,-2.311,-2.3091,-2.3091,-2.3091,-2.3091,-2.3091,-2.3091,-2.3574,-2.4004,-2.4424,-2.4863,-2.5195,-1.7199,0.0,-1.9491,-2.0294,-2.075,0.0,-2.1036,-2.1036,0.0,0.0,0.0,0.0,0.0,0.0,0.0,0.0,0.0,0.0,0.0,0.0,0.0,0.0,0.0,0.0,0.0,0.0,0.0,0.0,0.0,0.0,-1.8851,-1.8805,-1.8739,-1.8739,-1.8677,-1.8801,-1.9244,-1.9188,-1.8905,-1.841,-1.7916,-1.8313,-1.9396,-1.9401,-1.9105,-1.8599,-1.7899,-1.7808,-1.8225,-1.8225,-1.8192,-1.8119,-1.8124,-1.7909,-1.758,-1.7616,-1.7582,-1.7582,-1.7582,-1.7582,-1.7582,-1.7582,-1.7582,-1.7582,-1.7582,-1.7582,-1.7582,-1.7582,-1.7582,-1.7582,-1.7582,-1.7582,-1.7582,-1.7582,-1.7582,-1.7582,-1.7582,-1.7582,-1.7582,-1.7582,-1.7582,-1.7621,-1.7574,-1.7594,-1.7244,-1.6266,-1.6975,-1.7615,-1.7579,-1.9882,-2.157,-2.1868,-2.3985,-2.5475,-2.5655,-2.5275,-2.4837,-2.4453,-2.4092,-2.3672,-2.312,-2.3091,-2.3091,-2.3091,-2.3091,-2.3091,-2.3091,-2.3652,-2.4072,-2.4424,-2.4863,-2.5116,-1.6226,0.0,-1.9145,0.0,-2.0606,-2.0735,0.0,0.0,0.0,0.0,0.0,0.0,0.0,0.0,0.0,0.0,0.0,0.0,0.0,0.0,0.0,0.0,0.0,0.0,0.0,0.0,0.0,0.0,0.0,0.0,-1.8599,-1.8517,-1.8553,-1.8553,-1.805,-1.805,-1.8615,-1.8428,-1.824,-1.8049,-1.811,-1.8557,-1.9382,-1.9382,-1.9382,-1.9244,-1.8109,-1.7822,-1.8232,-1.8415,-1.8138,-1.7695,-1.7662,-1.7642,-1.7583,-1.7595,-1.7582,-1.7582,-1.7582,-1.7582,-1.7582,-1.7582,-1.7582,-1.7582,-1.7582,-1.7582,-1.7582,-1.7582,-1.7582,-1.7582,-1.7582,-1.7582,-1.7582,-1.7582,-1.7582,-1.7582,-1.7582,-1.7582,-1.7582,-1.7582,-1.7582,-1.7613,-1.7599,-1.7582,-1.7575,-1.7379,-1.7474,-1.7615,-1.7579,-1.9291,-2.1117,-2.267,-2.3523,-2.4449,-2.5586,-2.5625,-2.5245,-2.4473,-2.4365,-2.3929,-2.313,-2.3091,-2.3091,-2.3091,-2.3091,-2.3091,-2.3091,-2.3945,-2.4365,-2.4424,-2.4863,-2.5116,-1.6438,-1.7611,-1.9004,0.0,-2.024,-2.0428,0.0,0.0,0.0,0.0,0.0,0.0,0.0,0.0,0.0,0.0,0.0,0.0,0.0,0.0,0.0,0.0,0.0,0.0,0.0,0.0,0.0,0.0,0.0,-1.9654,-1.8291,-1.8076,-1.7983,-1.7983,-1.7734,-1.7734,-1.7983,-1.7916,-1.7849,-1.7789,-1.7849,-1.8036,-1.8407,-1.8374,-1.8394,-1.8373,-1.7825,-1.7703,-1.7849,-1.7969,-1.7828,-1.7582,-1.7582,-1.7582,-1.7582,-1.7582,-1.7582,-1.7582,-1.7582,-1.7582,-1.7582,-1.7582,-1.7582,-1.7582,-1.7582,-1.7582,-1.7582,-1.7582,-1.7582,-1.7582,-1.7582,-1.7582,-1.7582,-1.7582,-1.7582,-1.7582,-1.7582,-1.7582,-1.7582,-1.7582,-1.7582,-1.7601,-1.7585,-1.7624,-1.7583,-1.7623,-1.7602,-1.796,-1.8978,-2.0252,-2.1669,-2.3214,-2.4242,-2.5069,-2.5635,-2.5693,-2.5421,-2.4824,-2.4551,-2.4141,-2.3525,-2.3506,-2.3389,-2.3101,-2.3091,-2.3091,-2.3091,-2.376,-2.4062,-2.4072,-2.4502,-2.4697,-1.6488,-1.7437,-1.8382,-1.9265,-1.9686,0.0,0.0,0.0,0.0,0.0,0.0,0.0,0.0,0.0,0.0,0.0,0.0,0.0,0.0,0.0,0.0,0.0,0.0,0.0,0.0,0.0,0.0,0.0,0.0,-1.9896,-1.8505,-1.7914,-1.7582,-1.7582,-1.7582,-1.7582,-1.7582,-1.7582,-1.7582,-1.7582,-1.7582,-1.7582,-1.7589,-1.7589,-1.6813,-1.5468,-1.6984,-1.7614,-1.7582,-1.7582,-1.7582,-1.7582,-1.7582,-1.7582,-1.7582,-1.7582,-1.7582,-1.7582,-1.7582,-1.7582,-1.7582,-1.7582,-1.7582,-1.7582,-1.7582,-1.7582,-1.7582,-1.7582,-1.7582,-1.7582,-1.7582,-1.7582,-1.7582,-1.7582,-1.7582,-1.7582,-1.7582,-1.7582,-1.7582,-1.7582,-1.7582,-1.7582,-1.7582,-1.7582,-1.7582,-1.7582,-1.801,-1.8757,-2.0139,-2.1404,-2.2567,-2.3583,-2.4913,-2.5693,-2.5693,-2.5693,-2.5547,-2.5145,-2.4756,-2.4394,-2.3965,-2.3945,-2.3799,-2.3422,-2.3315,-2.3208,-2.3091,-2.3682,-2.3896,-2.3799,-2.4111,-2.4258,-1.5715,-1.615,0.0,-1.8196,0.0,0.0,0.0,0.0,0.0,0.0,0.0,0.0,0.0,0.0,0.0,0.0,0.0,0.0,0.0,0.0,0.0,0.0,0.0,0.0,0.0,0.0,0.0,0.0,0.0,-2.1022,-1.9606,-1.8311,-1.7582,-1.7582,-1.7582,-1.7582,-1.7582,-1.7582,-1.7582,-1.7582,-1.7582,-1.7582,-1.7589,-1.7575,-1.4595,-0.9678,-1.5198,-1.7609,-1.7582,-1.7582,-1.7582,-1.7582,-1.7582,-1.7582,-1.7582,-1.7582,-1.7582,-1.7582,-1.7582,-1.7582,-1.7582,-1.7582,-1.7582,-1.7582,-1.7582,-1.7582,-1.7582,-1.7582,-1.7582,-1.7582,-1.7582,-1.7582,-1.7582,-1.7582,-1.7582,-1.7582,-1.7582,-1.7582,-1.7582,-1.7582,-1.7582,-1.7582,-1.7582,-1.7582,-1.7582,-1.7582,-1.9071,-2.0199,-2.0302,-2.2224,-2.3633,-2.3683,-2.4913,-2.5693,-2.5693,-2.5693,-2.5547,-2.5145,-2.5096,-2.4834,-2.4404,-2.4385,-2.4375,-2.4355,-2.3965,-2.3555,-2.3091,-2.3929,-2.418,-2.3789,-2.3809,-2.3828,-1.4832,-1.5602,0.0,0.0,0.0,0.0,0.0,0.0,0.0,0.0,0.0,0.0,0.0,0.0,0.0,0.0,0.0,0.0,0.0,0.0,0.0,0.0,0.0,0.0,0.0,0.0,0.0,0.0,0.0,0.0,-2.1041,-2.0479,-1.9826,-1.8916,-1.8864,-1.8454,-1.7635,-1.7582,-1.7582,-1.7582,-1.6362,-1.6368,-1.7536,-1.5695,-1.4726,-1.4489,-1.4739,-1.588,-1.7596,-1.7615,-1.7582,-1.7582,-1.7582,-1.7582,-1.7582,-1.7582,-1.7582,-1.7582,-1.7582,-1.7582,-1.7582,-1.7582,-1.7582,-1.7582,-1.7582,-1.7582,-1.7582,-1.7582,-1.7582,-1.7582,-1.7582,-1.7582,-1.7582,-1.7582,-1.7582,-1.7588,-1.7576,-1.7625,-1.7582,-1.7582,-1.7582,-1.7582,-1.7582,-1.7582,-1.7582,-1.7582,-1.913,-2.0537,-2.114,-2.2427,-2.3605,-2.4496,-2.4755,-2.501,-2.5283,-2.5303,-2.5361,-2.5488,-2.5225,-2.5047,-2.4844,-2.4834,-2.458,-2.4023,-2.4404,-2.4268,-2.3555,-2.3539,-2.3471,-2.3369,-2.3369,-2.3525,-1.4465,-1.5214,0.0,0.0,0.0,0.0,0.0,0.0,0.0,0.0,0.0,0.0,0.0,0.0,0.0,0.0,0.0,0.0,0.0,0.0,0.0,0.0,0.0,0.0,0.0,0.0,0.0,0.0,0.0,0.0,-2.3099,-2.2198,-2.1041,-1.9627,-1.9169,-1.8506,-1.7635,-1.7582,-1.7582,-1.7582,-1.5648,-1.5022,-1.5647,-1.5007,-1.5281,-1.6077,-1.5171,-1.5851,-1.7602,-1.7583,-1.7582,-1.7582,-1.7582,-1.7582,-1.7582,-1.7582,-1.7582,-1.7582,-1.7582,-1.7582,-1.7582,-1.7582,-1.7582,-1.7582,-1.7582,-1.7582,-1.7582,-1.7582,-1.7582,-1.7582,-1.7582,-1.7582,-1.7582,-1.7582,-1.7582,-1.7561,-1.7499,-1.747,-1.7494,-1.7553,-1.7553,-1.7468,-1.7562,-1.7582,-1.7582,-1.7582,-1.9004,-2.0408,-2.1335,-2.2351,-2.3485,-2.4722,-2.459,-2.4531,-2.4824,-2.5028,-2.5195,-2.5488,-2.5371,-2.5293,-2.5293,-2.5194,-2.4851,-2.4228,-2.4538,-2.4355,-2.3789,-2.3496,-2.3237,-2.3091,-2.3091,-2.3403,0.0,0.0,0.0,0.0,0.0,0.0,0.0,0.0,0.0,0.0,0.0,0.0,0.0,0.0,0.0,0.0,0.0,0.0,0.0,0.0,0.0,0.0,0.0,0.0,0.0,0.0,0.0,0.0,0.0,-2.5695,-2.5687,-2.3158,-2.1092,-1.9731,-1.8304,-1.7582,-1.7582,-1.7582,-1.7582,-1.7582,-1.5648,-1.3731,-1.2026,-1.5731,-1.5965,-1.3604,-1.631,-1.7562,-1.7602,-1.7583,-1.7582,-1.7582,-1.7582,-1.7582,-1.7582,-1.7582,-1.7582,-1.7582,-1.7582,-1.7582,-1.7582,-1.7582,-1.7582,-1.7582,-1.7582,-1.7582,-1.7582,-1.7582,-1.7582,-1.7582,-1.7582,-1.7582,-1.7582,-1.7582,-1.7582,-1.7554,-1.7253,-1.7186,-1.7244,-1.7534,-1.7367,-1.7293,-1.7522,-1.7575,-1.7582,-1.7582,-1.8753,-1.9946,-2.09,-2.2177,-2.3347,-2.4305,-2.4385,-2.4385,-2.4394,-2.4795,-2.5106,-2.5116,-2.5488,-2.5684,-2.5674,-2.5293,-2.5106,-2.5077,-2.4209,-2.3779,-2.3769,-2.3769,-2.3555,-2.3091,-2.3091,-2.3549,-1.4311,0.0,0.0,0.0,0.0,0.0,0.0,0.0,0.0,0.0,0.0,0.0,0.0,0.0,0.0,0.0,0.0,0.0,0.0,0.0,0.0,0.0,0.0,0.0,0.0,0.0,0.0,0.0,-2.4939,-2.5678,-2.5713,-2.317,-2.1499,-2.1143,-1.8805,-1.7582,-1.7582,-1.7582,-1.7582,-1.7582,-1.5949,-1.4896,-1.4377,-1.3354,-1.4158,-1.6379,-1.5749,-1.6275,-1.7602,-1.7583,-1.7582,-1.7582,-1.7582,-1.7582,-1.7582,-1.7582,-1.7582,-1.7582,-1.7582,-1.7582,-1.7582,-1.7582,-1.7582,-1.7582,-1.7582,-1.7582,-1.7582,-1.7582,-1.7582,-1.7582,-1.7582,-1.7582,-1.7582,-1.7582,-1.7582,-1.756,-1.7509,-1.717,-1.6878,-1.6941,-1.7058,-1.7226,-1.7306,-1.7494,-1.7582,-1.7582,-1.8567,-1.9737,-2.0867,-2.1774,-2.2732,-2.3829,-2.3682,-2.3623,-2.3935,-2.4355,-2.4727,-2.5096,-2.5488,-2.5596,-2.5273,-2.5184,-2.4822,-2.416,-2.3906,-2.3633,-2.3276,-2.3276,-2.3218,-2.3091,-2.3091,-2.3549,-1.4425,-1.4609,0.0,0.0,0.0,0.0,0.0,0.0,0.0,0.0,0.0,0.0,0.0,0.0,0.0,0.0,0.0,0.0,0.0,0.0,0.0,0.0,0.0,0.0,0.0,0.0,0.0,-2.307,-2.4697,-2.572,-2.5703,-2.3176,-2.1702,-2.1702,-1.9013,-1.7582,-1.7582,-1.7582,-1.7582,-1.7582,-1.553,-1.4502,-1.4449,-1.2132,-1.2841,-1.5785,-1.5254,-1.5987,-1.7583,-1.7615,-1.7582,-1.7582,-1.7582,-1.7582,-1.7582,-1.7582,-1.7582,-1.7582,-1.7582,-1.7582,-1.7582,-1.7582,-1.7582,-1.7582,-1.7582,-1.7582,-1.7582,-1.7582,-1.7582,-1.7582,-1.7582,-1.7582,-1.7608,-1.7605,-1.7578,-1.7533,-1.7391,-1.692,-1.6526,-1.6358,-1.6603,-1.6911,-1.7159,-1.734,-1.7494,-1.7562,-1.8046,-1.8946,-2.0557,-2.0967,-2.176,-2.3357,-2.3247,-2.3198,-2.3496,-2.4072,-2.4521,-2.4775,-2.5215,-2.5342,-2.5125,-2.4773,-2.4297,-2.3799,-2.3613,-2.3344,-2.3091,-2.3091,-2.3091,-2.3091,-2.3091,-2.3461,-1.476,-1.4763,-1.5062,-1.5244,0.0,0.0,-1.5785,-1.5671,0.0,0.0,0.0,0.0,0.0,0.0,0.0,0.0,0.0,0.0,0.0,0.0,0.0,0.0,0.0,0.0,0.0,-2.2754,-2.3016,-2.3006,-2.4687,-2.5642,-2.5499,-2.3076,-2.1651,-2.1448,-1.8954,-1.7582,-1.7582,-1.7582,-1.7582,-1.7582,-1.4829,-1.3426,-1.3264,-1.1755,-1.1919,-1.3372,-1.4609,-1.6062,-1.7582,-1.7582,-1.7582,-1.7582,-1.7582,-1.7582,-1.7582,-1.7582,-1.7582,-1.7582,-1.7582,-1.7582,-1.7582,-1.7582,-1.7582,-1.7582,-1.7582,-1.7582,-1.7575,-1.7542,-1.7588,-1.7588,-1.7607,-1.76,-1.7592,-1.762,-1.75,-1.7343,-1.7008,-1.6654,-1.6259,-1.5894,-1.608,-1.6496,-1.7052,-1.7179,-1.73,-1.7542,-1.736,-1.7944,-2.0136,-2.0073,-2.0683,-2.2857,-2.3091,-2.3091,-2.3091,-2.3842,-2.4346,-2.4346,-2.4756,-2.5018,-2.4979,-2.4199,-2.3769,-2.3721,-2.3286,-2.3091,-2.3091,-2.3091,-2.3091,-2.3091,-2.3091,-2.3335,-1.4955,-1.4961,-1.4961,-1.4736,0.0,0.0,-1.4856,-1.477,0.0,0.0,0.0,0.0,0.0,0.0,0.0,0.0,0.0,0.0,0.0,0.0,0.0,0.0,0.0,0.0,0.0,-2.1261,-2.2984,-2.2991,-2.4672,-2.5234,-2.4146,-2.2567,-2.1194,-2.0033,-1.8454,-1.7582,-1.7582,-1.7582,-1.7582,-1.7582,-1.5849,-1.4395,-1.3264,-1.1755,-1.1919,-1.3324,-1.3588,-1.5204,-1.7582,-1.7582,-1.7582,-1.7582,-1.7582,-1.7582,-1.7582,-1.7582,-1.7582,-1.7582,-1.7582,-1.7582,-1.7582,-1.7582,-1.7582,-1.7582,-1.7582,-1.7582,-1.7528,-1.7236,-1.7345,-1.7589,-1.7581,-1.762,-1.7606,-1.7608,-1.6851,-1.6247,-1.6681,-1.6543,-1.6206,-1.5856,-1.6057,-1.6386,-1.6734,-1.7038,-1.73,-1.7542,-1.7128,-1.7647,-2.0103,-1.9906,-2.0482,-2.2828,-2.3091,-2.3091,-2.3091,-2.3613,-2.3906,-2.3906,-2.4316,-2.4394,-2.4053,-2.3877,-2.3623,-2.3227,-2.314,-2.3091,-2.3091,-2.3091,-2.3091,-2.3091,-2.3091,-2.3335,-1.5217,-1.5177,-1.5144,-1.4997,0.0,0.0,0.0,0.0,-1.473,0.0,0.0,0.0,0.0,0.0,0.0,0.0,0.0,0.0,0.0,0.0,0.0,0.0,0.0,0.0,0.0,-2.1296,-2.2889,-2.4225,-2.5175,-2.5118,-2.3791,-2.2408,-2.1041,-1.9627,-1.8304,-1.7582,-1.7582,-1.7582,-1.7582,-1.7582,-1.6121,-1.4663,-1.3264,-1.2512,-1.262,-1.3318,-1.4019,-1.5583,-1.7582,-1.7582,-1.7582,-1.7582,-1.7582,-1.7582,-1.7582,-1.7582,-1.7582,-1.7582,-1.7582,-1.7582,-1.7582,-1.7582,-1.7582,-1.7582,-1.7582,-1.7534,-1.7335,-1.7181,-1.7041,-1.7009,-1.7025,-1.687,-1.6723,-1.6695,-1.6262,-1.5855,-1.6174,-1.6162,-1.6005,-1.5811,-1.5952,-1.6146,-1.644,-1.6734,-1.7027,-1.7373,-1.7489,-1.8065,-1.9277,-2.0027,-2.0845,-2.2076,-2.2721,-2.3091,-2.3091,-2.3545,-2.3789,-2.3789,-2.3984,-2.4014,-2.3799,-2.3584,-2.3315,-2.3101,-2.3091,-2.3091,-2.3091,-2.3091,-2.3091,-2.3091,-2.3091,-2.3218,0.0,0.0,0.0,0.0,0.0,-1.471,0.0,0.0,0.0,-1.5357,0.0,0.0,0.0,0.0,0.0,0.0,0.0,0.0,0.0,0.0,0.0,0.0,0.0,0.0,0.0,-2.1586,-2.2918,-2.5518,-2.5324,-2.4547,-2.3375,-2.2005,-2.0633,-1.9272,-1.8146,-1.7582,-1.7582,-1.7582,-1.7582,-1.7582,-1.6003,-1.4663,-1.3555,-1.3205,-1.3146,-1.3372,-1.477,-1.6227,-1.7582,-1.7582,-1.7582,-1.7582,-1.7582,-1.7582,-1.7582,-1.7582,-1.7582,-1.7582,-1.7582,-1.7582,-1.7582,-1.7582,-1.7582,-1.7582,-1.7582,-1.7474,-1.7259,-1.7146,-1.6773,-1.6397,-1.6292,-1.6034,-1.5808,-1.5804,-1.58,-1.5796,-1.5777,-1.5784,-1.5784,-1.5784,-1.5784,-1.5925,-1.6219,-1.6513,-1.6807,-1.7159,-1.7738,-1.822,-1.8459,-1.9747,-2.08,-2.1248,-2.2164,-2.2862,-2.3091,-2.3467,-2.3662,-2.3662,-2.3662,-2.3662,-2.3662,-2.3286,-2.3091,-2.3091,-2.3091,-2.3091,-2.3091,-2.3091,-2.3091,-2.3091,-2.3091,-2.3091,0.0,0.0,0.0,0.0,-1.5157,0.0,0.0,0.0,-1.4476,-1.4322,0.0,0.0,0.0,0.0,0.0,0.0,0.0,0.0,0.0,0.0,0.0,0.0,0.0,0.0,0.0,0.0,-2.324,-2.5528,-2.3887,-2.2509,-2.1971,-2.059,-1.922,-1.7891,-1.7687,-1.7582,-1.7582,-1.7582,-1.7582,-1.7582,-1.5654,-1.4722,-1.4488,-1.2744,-1.2454,-1.3372,-1.477,-1.6227,-1.7582,-1.7582,-1.7582,-1.7582,-1.7582,-1.7582,-1.7582,-1.7582,-1.7582,-1.7582,-1.7582,-1.7582,-1.7582,-1.7582,-1.7582,-1.7582,-1.7582,-1.7562,-1.7428,-1.6901,-1.6563,-1.6305,-1.5956,-1.5823,-1.5817,-1.5783,-1.5777,-1.5818,-1.5791,-1.5784,-1.5784,-1.5784,-1.5784,-1.5925,-1.6219,-1.6513,-1.6807,-1.7159,-1.7046,-1.7292,-1.8361,-1.8271,-1.891,-2.1069,-2.1436,-2.1943,-2.3003,-2.314,-2.3169,-2.3169,-2.3169,-2.3169,-2.3169,-2.312,-2.3091,-2.3091,-2.3091,-2.3091,-2.3091,-2.3091,-2.3091,-2.3091,-2.3091,-2.3091,0.0,0.0,0.0,0.0,0.0,0.0,-1.4412,0.0,-1.4282,0.0,0.0,0.0,0.0,0.0,0.0,0.0,0.0,0.0,0.0,0.0,0.0,0.0,0.0,0.0,0.0,0.0,0.0,0.0,0.0,-2.2066,-2.1354,-2.0225,-1.8968,-1.7635,-1.7582,-1.7582,-1.7582,-1.7582,-1.7582,-1.7582,-1.6751,-1.5902,-1.5083,-1.5133,-1.4902,-1.4609,-1.6068,-1.7041,-1.7582,-1.7582,-1.7582,-1.7582,-1.7582,-1.7582,-1.7582,-1.7582,-1.7582,-1.7582,-1.7582,-1.7582,-1.7582,-1.7582,-1.7582,-1.7582,-1.7582,-1.7514,-1.7333,-1.7085,-1.6783,-1.6534,-1.635,-1.6213,-1.6086,-1.6086,-1.5952,-1.5784,-1.5784,-1.5784,-1.5784,-1.5784,-1.5784,-1.5925,-1.6219,-1.6513,-1.6747,-1.6874,-1.7528,-1.7888,-1.7505,-1.8333,-1.9311,-2.015,-2.089,-2.18,-2.3003,-2.3091,-2.3091,-2.3091,-2.3091,-2.3091,-2.3091,-2.3091,-2.3091,-2.3091,-2.3091,-2.3091,-2.3091,-2.3091,-2.3091,-2.3091,-2.3091,-2.3091,-1.5784,0.0,0.0,0.0,0.0,0.0,0.0,0.0,0.0,0.0,0.0,0.0,0.0,0.0,0.0,0.0,0.0,0.0,0.0,0.0,0.0,0.0,0.0,0.0,0.0,0.0,0.0,0.0,0.0,0.0,-2.0529,-1.9511,-1.8518,-1.7635,-1.7582,-1.7582,-1.7582,-1.7582,-1.7582,-1.7582,-1.7582,-1.6764,-1.5239,-1.6869,-1.6823,-1.547,-1.6982,-1.7582,-1.7582,-1.7582,-1.7582,-1.7582,-1.7582,-1.7582,-1.7582,-1.7582,-1.7582,-1.7582,-1.7582,-1.7582,-1.7582,-1.7582,-1.7582,-1.7582,-1.7582,-1.7435,-1.73,-1.7226,-1.7045,-1.6807,-1.6727,-1.6553,-1.6373,-1.6342,-1.6106,-1.5925,-1.5798,-1.5784,-1.5784,-1.5784,-1.5784,-1.5925,-1.6219,-1.6513,-1.6734,-1.6814,-1.7806,-1.8087,-1.6841,-1.826,-1.9426,-1.9484,-2.0576,-2.18,-2.3003,-2.3091,-2.3091,-2.3091,-2.3091,-2.3091,-2.3091,-2.3091,-2.3091,-2.3091,-2.3091,-2.3091,-2.3091,-2.3091,-2.3091,-2.3091,-2.3091,-2.3091,0.0,0.0,0.0,-1.5117,0.0,0.0,0.0,0.0,-1.4215,0.0,0.0,0.0,0.0,0.0,0.0,0.0,0.0,0.0,0.0,0.0,0.0,0.0,0.0,0.0,0.0,0.0,0.0,0.0,0.0,0.0,-1.9225,-1.8011,-1.7398,-1.7569,-1.7582,-1.7582,-1.7582,-1.7582,-1.7582,-1.7582,-1.7582,-1.6586,-1.4773,-1.6698,-1.6823,-1.547,-1.6982,-1.7582,-1.7582,-1.7582,-1.7582,-1.7582,-1.7582,-1.7582,-1.7582,-1.7582,-1.7582,-1.7582,-1.7582,-1.7582,-1.7582,-1.7582,-1.7582,-1.7582,-1.7582,-1.7575,-1.7508,-1.728,-1.7192,-1.7119,-1.678,-1.67,-1.662,-1.6339,-1.6315,-1.6179,-1.5892,-1.5784,-1.5784,-1.5784,-1.5784,-1.5925,-1.6219,-1.6513,-1.68,-1.7146,-1.7244,-1.7143,-1.674,-1.7553,-1.8509,-1.9392,-2.0576,-2.18,-2.3003,-2.3091,-2.3091,-2.3091,-2.3091,-2.3091,-2.3091,-2.3091,-2.3091,-2.3091,-2.3091,-2.3091,-2.3091,-2.3091,-2.3091,-2.3091,-2.3091,-2.3091,0.0,0.0,-1.5738,-1.5555,0.0,0.0,0.0,0.0,0.0,0.0,0.0,0.0,0.0,0.0,0.0,0.0,0.0,0.0,0.0,0.0,0.0,0.0,0.0,0.0,0.0,0.0,0.0,0.0,0.0,0.0,0.0,-1.7679,-1.7246,-1.7347,-1.7534,-1.7582,-1.7582,-1.7582,-1.7582,-1.7582,-1.7582,-1.7246,-1.6639,-1.7305,-1.7312,-1.6876,-1.7364,-1.7582,-1.7582,-1.7582,-1.7582,-1.7582,-1.7582,-1.7582,-1.7582,-1.7582,-1.7582,-1.7582,-1.7582,-1.7582,-1.7582,-1.7582,-1.7582,-1.7582,-1.7582,-1.7582,-1.7562,-1.7514,-1.7435,-1.7467,-1.7315,-1.7141,-1.6978,-1.6633,-1.6413,-1.6192,-1.5892,-1.5784,-1.5784,-1.5784,-1.5784,-1.5925,-1.6219,-1.6359,-1.6587,-1.7125,-1.7367,-1.7558,-1.7846,-1.7492,-1.8082,-2.0456,-2.035,-2.0899,-2.2916,-2.3091,-2.3091,-2.3091,-2.3091,-2.3091,-2.3091,-2.3091,-2.3091,-2.3091,-2.3091,-2.3091,-2.3091,-2.3091,-2.3091,-2.3091,-2.3091,-2.3091,-1.5784,-1.5784,0.0,-1.579,-1.4857,0.0,-1.3734,0.0,0.0,0.0,0.0,0.0,0.0,0.0,0.0,0.0,0.0,0.0,0.0,0.0,0.0,0.0,0.0,0.0,0.0,0.0,-1.8998,-1.8459,0.0,0.0,0.0,0.0,-1.7092,-1.7199,-1.7481,-1.7582,-1.7582,-1.7582,-1.7582,-1.7582,-1.7582,-1.7582,-1.7582,-1.7582,-1.7582,-1.7582,-1.7582,-1.7582,-1.7582,-1.7582,-1.7582,-1.7582,-1.7582,-1.7582,-1.7582,-1.7582,-1.7582,-1.7582,-1.7582,-1.7582,-1.7582,-1.7582,-1.7582,-1.7582,-1.7582,-1.7582,-1.7582,-1.7582,-1.7582,-1.7582,-1.7582,-1.7442,-1.728,-1.6934,-1.664,-1.6346,-1.6052,-1.5905,-1.5784,-1.5784,-1.5784,-1.5925,-1.6219,-1.6321,-1.644,-1.6971,-1.7551,-1.8043,-1.8307,-1.8428,-1.9209,-2.1087,-2.0989,-2.1409,-2.296,-2.3091,-2.3091,-2.3091,-2.3091,-2.3091,-2.3091,-2.3091,-2.3091,-2.3091,-2.3091,-2.3091,-2.3091,-2.3091,-2.3091,-2.3091,-2.3091,-2.3091]}]]